
Distance (Route):
Temperature : 0°C
Humidity : 0%
Pressure : 0hPa| Receiver | Frames | First received | Last received |
|---|---|---|---|
| MIELECB | 620 | 2026-09-05 23:21:59 | 2026-09-06 00:59:36 |
| SQ9PSP-11 | 370 | 2026-09-05 23:18:27 | 2026-09-06 01:23:08 |
| AKAW682 | 177 | 2026-09-05 23:23:22 | 2026-09-06 01:00:51 |
| AKAW68 | 123 | 2026-09-05 23:17:16 | 2026-09-06 00:53:13 |
| GYPAP8-17 | 66 | 2026-09-05 23:38:48 | 2026-09-06 01:18:31 |
| SQ9EZE-12 | 63 | 2026-09-05 23:22:48 | 2026-09-06 00:04:40 |
| SQ9EZE-14 | 2 | 2026-09-05 23:48:44 | 2026-09-05 23:48:59 |
| Receiver | Date | Latitude | Longitude | Direction | Speed | Altitude | Climb | Temperature | Humidity | Pressure | Voltage | Killtimer | Uptime | BKT | XDATA |
|---|---|---|---|---|---|---|---|---|---|---|---|---|---|---|---|
| SQ9PSP-11 | 2026-09-06 01:23:08 | 49.37616 | 23.21947 | 106° | 168km/h | 7101m | -7.4m/s | 0°C | 0% | 0hPa | 0V | 00:00:00 | 00:00:00 | 00:00:00 | |
| SQ9PSP-11 | 2026-09-06 01:22:44 | 49.37910 | 23.20469 | 109° | 170km/h | 7312m | -7.7m/s | 0°C | 0% | 0hPa | 0V | 00:00:00 | 00:00:00 | 00:00:00 | |
| SQ9PSP-11 | 2026-09-06 01:22:12 | 49.38382 | 23.18452 | 111° | 175km/h | 7607m | -8.4m/s | 0°C | 0% | 0hPa | 0V | 00:00:00 | 00:00:00 | 00:00:00 | |
| GYPAP8-17 | 2026-09-06 01:18:31 | 49.43504 | 23.02752 | 122° | 223km/h | 9634m | -7.8m/s | 0°C | 0% | 0hPa | 0V | 00:00:00 | 00:00:00 | 00:00:00 | |
| SQ9PSP-11 | 2026-09-06 01:17:33 | 49.45088 | 22.98490 | 120° | 210km/h | 10173m | -11.6m/s | 0°C | 0% | 0hPa | 0V | 00:00:00 | 00:00:00 | 00:00:00 | |
| SQ9PSP-11 | 2026-09-06 01:17:18 | 49.45469 | 22.97417 | 119° | 208km/h | 10310m | -9.3m/s | 0°C | 0% | 0hPa | 0V | 00:00:00 | 00:00:00 | 00:00:00 | |
| GYPAP8-17 | 2026-09-06 01:17:14 | 49.45566 | 22.97129 | 118° | 210km/h | 10351m | -7.7m/s | 0°C | 0% | 0hPa | 0V | 00:00:00 | 00:00:00 | 00:00:00 | |
| SQ9PSP-11 | 2026-09-06 01:17:02 | 49.45848 | 22.96255 | 118° | 208km/h | 10466m | -10.1m/s | 0°C | 0% | 0hPa | 0V | 00:00:00 | 00:00:00 | 00:00:00 | |
| SQ9PSP-11 | 2026-09-06 01:16:47 | 49.46212 | 22.95162 | 118° | 208km/h | 10613m | -6.5m/s | 0°C | 0% | 0hPa | 0V | 00:00:00 | 00:00:00 | 00:00:00 | |
| SQ9PSP-11 | 2026-09-06 01:16:29 | 49.46660 | 22.93867 | 118° | 204km/h | 10784m | -9.0m/s | 0°C | 0% | 0hPa | 0V | 00:00:00 | 00:00:00 | 00:00:00 | |
| SQ9PSP-11 | 2026-09-06 01:16:12 | 49.47068 | 22.92683 | 120° | 201km/h | 10946m | -9.6m/s | 0°C | 0% | 0hPa | 0V | 00:00:00 | 00:00:00 | 00:00:00 | |
| GYPAP8-17 | 2026-09-06 01:16:02 | 49.47309 | 22.92006 | 120° | 195km/h | 11045m | -12.2m/s | 0°C | 0% | 0hPa | 0V | 00:00:00 | 00:00:00 | 00:00:00 | |
| SQ9PSP-11 | 2026-09-06 01:15:55 | 49.47470 | 22.91544 | 118° | 192km/h | 11115m | -9.5m/s | 0°C | 0% | 0hPa | 0V | 00:00:00 | 00:00:00 | 00:00:00 | |
| SQ9PSP-11 | 2026-09-06 01:15:34 | 49.47918 | 22.90149 | 116° | 192km/h | 11320m | -8.6m/s | 0°C | 0% | 0hPa | 0V | 00:00:00 | 00:00:00 | 00:00:00 | |
| SQ9PSP-11 | 2026-09-06 01:15:18 | 49.48267 | 22.89069 | 120° | 195km/h | 11480m | -5.7m/s | 0°C | 0% | 0hPa | 0V | 00:00:00 | 00:00:00 | 00:00:00 | |
| SQ9PSP-11 | 2026-09-06 01:15:02 | 49.48650 | 22.88040 | 123° | 183km/h | 11638m | -8.3m/s | 0°C | 0% | 0hPa | 0V | 00:00:00 | 00:00:00 | 00:00:00 | |
| SQ9PSP-11 | 2026-09-06 01:14:46 | 49.49019 | 22.87134 | 122° | 164km/h | 11792m | -7.8m/s | 0°C | 0% | 0hPa | 0V | 00:00:00 | 00:00:00 | 00:00:00 | |
| SQ9PSP-11 | 2026-09-06 01:14:24 | 49.49454 | 22.85939 | 118° | 153km/h | 12007m | -8.1m/s | 0°C | 0% | 0hPa | 0V | 00:00:00 | 00:00:00 | 00:00:00 | |
| SQ9PSP-11 | 2026-09-06 01:14:08 | 49.49730 | 22.85092 | 117° | 150km/h | 12157m | -8.9m/s | 0°C | 0% | 0hPa | 0V | 00:00:00 | 00:00:00 | 00:00:00 | |
| SQ9PSP-11 | 2026-09-06 01:13:26 | 49.50354 | 22.82871 | 113° | 151km/h | 12572m | -10.0m/s | 0°C | 0% | 0hPa | 0V | 00:00:00 | 00:00:00 | 00:00:00 | |
| SQ9PSP-11 | 2026-09-06 01:13:10 | 49.50597 | 22.82003 | 115° | 151km/h | 12729m | -11.1m/s | 0°C | 0% | 0hPa | 0V | 00:00:00 | 00:00:00 | 00:00:00 | |
| GYPAP8-17 | 2026-09-06 01:13:06 | 49.50662 | 22.81784 | 115° | 150km/h | 12772m | -8.3m/s | 0°C | 0% | 0hPa | 0V | 00:00:00 | 00:00:00 | 00:00:00 | |
| SQ9PSP-11 | 2026-09-06 01:12:55 | 49.50842 | 22.81212 | 118° | 148km/h | 12882m | -7.8m/s | 0°C | 0% | 0hPa | 0V | 00:00:00 | 00:00:00 | 00:00:00 | |
| SQ9PSP-11 | 2026-09-06 01:12:39 | 49.51124 | 22.80422 | 117° | 142km/h | 13052m | -10.9m/s | 0°C | 0% | 0hPa | 0V | 00:00:00 | 00:00:00 | 00:00:00 | |
| SQ9PSP-11 | 2026-09-06 01:12:23 | 49.51366 | 22.79625 | 114° | 135km/h | 13213m | -8.6m/s | 0°C | 0% | 0hPa | 0V | 00:00:00 | 00:00:00 | 00:00:00 | |
| SQ9PSP-11 | 2026-09-06 01:12:01 | 49.51653 | 22.78541 | 113° | 141km/h | 13465m | -12.2m/s | 0°C | 0% | 0hPa | 0V | 00:00:00 | 00:00:00 | 00:00:00 | |
| SQ9PSP-11 | 2026-09-06 01:11:44 | 49.51880 | 22.77736 | 115° | 126km/h | 13652m | -12.5m/s | 0°C | 0% | 0hPa | 0V | 00:00:00 | 00:00:00 | 00:00:00 | |
| SQ9PSP-11 | 2026-09-06 01:11:22 | 49.52149 | 22.76758 | 118° | 117km/h | 13902m | -9.9m/s | 0°C | 0% | 0hPa | 0V | 00:00:00 | 00:00:00 | 00:00:00 | |
| SQ9PSP-11 | 2026-09-06 01:11:06 | 49.52355 | 22.76126 | 117° | 113km/h | 14084m | -13.0m/s | 0°C | 0% | 0hPa | 0V | 00:00:00 | 00:00:00 | 00:00:00 | |
| SQ9PSP-11 | 2026-09-06 01:10:50 | 49.52534 | 22.75484 | 115° | 117km/h | 14268m | -9.4m/s | 0°C | 0% | 0hPa | 0V | 00:00:00 | 00:00:00 | 00:00:00 | |
| SQ9PSP-11 | 2026-09-06 01:10:35 | 49.52732 | 22.74889 | 121° | 108km/h | 14439m | -10.4m/s | 0°C | 0% | 0hPa | 0V | 00:00:00 | 00:00:00 | 00:00:00 | |
| GYPAP8-17 | 2026-09-06 01:10:29 | 49.52809 | 22.74675 | 120° | 99km/h | 14498m | -10.2m/s | 0°C | 0% | 0hPa | 0V | 00:00:00 | 00:00:00 | 00:00:00 | |
| SQ9PSP-11 | 2026-09-06 01:10:19 | 49.52929 | 22.74344 | 121° | 95km/h | 14614m | -9.3m/s | 0°C | 0% | 0hPa | 0V | 00:00:00 | 00:00:00 | 00:00:00 | |
| SQ9PSP-11 | 2026-09-06 01:10:03 | 49.53078 | 22.73866 | 113° | 82km/h | 14797m | -10.2m/s | 0°C | 0% | 0hPa | 0V | 00:00:00 | 00:00:00 | 00:00:00 | |
| GYPAP8-17 | 2026-09-06 01:09:20 | 49.53455 | 22.72711 | 119° | 75km/h | 15281m | -11.9m/s | 0°C | 0% | 0hPa | 0V | 00:00:00 | 00:00:00 | 00:00:00 | |
| GYPAP8-17 | 2026-09-06 01:08:11 | 49.53739 | 22.70867 | 102° | 84km/h | 16025m | -8.0m/s | 0°C | 0% | 0hPa | 0V | 00:00:00 | 00:00:00 | 00:00:00 | |
| SQ9PSP-11 | 2026-09-06 01:07:29 | 49.53896 | 22.69749 | 102° | 64km/h | 16548m | -11.1m/s | 0°C | 0% | 0hPa | 0V | 00:00:00 | 00:00:00 | 00:00:00 | |
| SQ9PSP-11 | 2026-09-06 01:07:08 | 49.53945 | 22.69181 | 102° | 66km/h | 16809m | -14.7m/s | 0°C | 0% | 0hPa | 0V | 00:00:00 | 00:00:00 | 00:00:00 | |
| GYPAP8-17 | 2026-09-06 01:06:57 | 49.53986 | 22.68904 | 105° | 71km/h | 16945m | -12.2m/s | 0°C | 0% | 0hPa | 0V | 00:00:00 | 00:00:00 | 00:00:00 | |
| SQ9PSP-11 | 2026-09-06 01:06:51 | 49.54008 | 22.68752 | 103° | 66km/h | 17018m | -9.4m/s | 0°C | 0% | 0hPa | 0V | 00:00:00 | 00:00:00 | 00:00:00 | |
| SQ9PSP-11 | 2026-09-06 01:06:29 | 49.54099 | 22.68171 | 93° | 68km/h | 17281m | -13.3m/s | 0°C | 0% | 0hPa | 0V | 00:00:00 | 00:00:00 | 00:00:00 | |
| SQ9PSP-11 | 2026-09-06 01:06:06 | 49.54092 | 22.67549 | 90° | 75km/h | 17545m | -10.3m/s | 0°C | 0% | 0hPa | 0V | 00:00:00 | 00:00:00 | 00:00:00 | |
| SQ9PSP-11 | 2026-09-06 01:05:49 | 49.54132 | 22.67057 | 107° | 77km/h | 17743m | -12.4m/s | 0°C | 0% | 0hPa | 0V | 00:00:00 | 00:00:00 | 00:00:00 | |
| GYPAP8-17 | 2026-09-06 01:05:38 | 49.54199 | 22.66760 | 106° | 75km/h | 17877m | -11.6m/s | 0°C | 0% | 0hPa | 0V | 00:00:00 | 00:00:00 | 00:00:00 | |
| SQ9PSP-11 | 2026-09-06 01:05:31 | 49.54230 | 22.66563 | 107° | 78km/h | 17945m | -9.1m/s | 0°C | 0% | 0hPa | 0V | 00:00:00 | 00:00:00 | 00:00:00 | |
| SQ9PSP-11 | 2026-09-06 01:05:14 | 49.54334 | 22.66132 | 117° | 53km/h | 18117m | -8.8m/s | 0°C | 0% | 0hPa | 0V | 00:00:00 | 00:00:00 | 00:00:00 | |
| SQ9PSP-11 | 2026-09-06 01:04:59 | 49.54408 | 22.65877 | 120° | 55km/h | 18286m | -14.0m/s | 0°C | 0% | 0hPa | 0V | 00:00:00 | 00:00:00 | 00:00:00 | |
| SQ9PSP-11 | 2026-09-06 01:04:43 | 49.54508 | 22.65595 | 131° | 35km/h | 18450m | -12.8m/s | 0°C | 0% | 0hPa | 0V | 00:00:00 | 00:00:00 | 00:00:00 | |
| SQ9PSP-11 | 2026-09-06 01:04:27 | 49.54556 | 22.65469 | 119° | 13km/h | 18624m | -11.6m/s | 0°C | 0% | 0hPa | 0V | 00:00:00 | 00:00:00 | 00:00:00 | |
| SQ9PSP-11 | 2026-09-06 01:04:11 | 49.54583 | 22.65403 | 111° | 13km/h | 18807m | -9.1m/s | 0°C | 0% | 0hPa | 0V | 00:00:00 | 00:00:00 | 00:00:00 | |
| GYPAP8-17 | 2026-09-06 01:03:56 | 49.54600 | 22.65332 | 114° | 15km/h | 18991m | -13.5m/s | 0°C | 0% | 0hPa | 0V | 00:00:00 | 00:00:00 | 00:00:00 | |
| SQ9PSP-11 | 2026-09-06 01:03:55 | 49.54601 | 22.65327 | 109° | 15km/h | 19004m | -10.5m/s | 0°C | 0% | 0hPa | 0V | 00:00:00 | 00:00:00 | 00:00:00 | |
| SQ9PSP-11 | 2026-09-06 01:03:39 | 49.54604 | 22.65200 | 82° | 24km/h | 19194m | -11.4m/s | 0°C | 0% | 0hPa | 0V | 00:00:00 | 00:00:00 | 00:00:00 | |
| SQ9PSP-11 | 2026-09-06 01:03:24 | 49.54619 | 22.65031 | 95° | 38km/h | 19384m | -9.8m/s | 0°C | 0% | 0hPa | 0V | 00:00:00 | 00:00:00 | 00:00:00 | |
| SQ9PSP-11 | 2026-09-06 01:03:08 | 49.54652 | 22.64779 | 93° | 38km/h | 19575m | -12.6m/s | 0°C | 0% | 0hPa | 0V | 00:00:00 | 00:00:00 | 00:00:00 | |
| SQ9PSP-11 | 2026-09-06 01:02:52 | 49.54665 | 22.64560 | 98° | 31km/h | 19781m | -8.9m/s | 0°C | 0% | 0hPa | 0V | 00:00:00 | 00:00:00 | 00:00:00 | |
| SQ9PSP-11 | 2026-09-06 01:02:36 | 49.54681 | 22.64372 | 102° | 27km/h | 19972m | -9.9m/s | 0°C | 0% | 0hPa | 0V | 00:00:00 | 00:00:00 | 00:00:00 | |
| SQ9PSP-11 | 2026-09-06 01:02:19 | 49.54708 | 22.64175 | 94° | 27km/h | 20195m | -13.4m/s | 0°C | 0% | 0hPa | 0V | 00:00:00 | 00:00:00 | 00:00:00 | |
| SQ9PSP-11 | 2026-09-06 01:02:04 | 49.54710 | 22.64012 | 92° | 35km/h | 20400m | -12.7m/s | 0°C | 0% | 0hPa | 0V | 00:00:00 | 00:00:00 | 00:00:00 | |
| SQ9PSP-11 | 2026-09-06 01:01:49 | 49.54714 | 22.63810 | 76° | 26km/h | 20597m | -9.9m/s | 0°C | 0% | 0hPa | 0V | 00:00:00 | 00:00:00 | 00:00:00 | |
| SQ9PSP-11 | 2026-09-06 01:01:33 | 49.54688 | 22.63655 | 76° | 26km/h | 20812m | -13.4m/s | 0°C | 0% | 0hPa | 0V | 00:00:00 | 00:00:00 | 00:00:00 | |
| SQ9PSP-11 | 2026-09-06 01:01:17 | 49.54693 | 22.63509 | 95° | 27km/h | 21031m | -11.5m/s | 0°C | 0% | 0hPa | 0V | 00:00:00 | 00:00:00 | 00:00:00 | |
| SQ9PSP-11 | 2026-09-06 01:01:02 | 49.54708 | 22.63417 | 125° | 9km/h | 21242m | -17.4m/s | 0°C | 0% | 0hPa | 0V | 00:00:00 | 00:00:00 | 00:00:00 | |
| AKAW682 | 2026-09-06 01:00:51 | 49.54706 | 22.63332 | 62° | 29km/h | 21395m | -11.2m/s | 0°C | 0% | 0hPa | 0V | 00:00:00 | 00:00:00 | 00:00:00 | |
| SQ9PSP-11 | 2026-09-06 01:00:47 | 49.54688 | 22.63293 | 61° | 26km/h | 21443m | -15.3m/s | 0°C | 0% | 0hPa | 0V | 00:00:00 | 00:00:00 | 00:00:00 | |
| SQ9PSP-11 | 2026-09-06 01:00:31 | 49.54666 | 22.63108 | 87° | 33km/h | 21660m | -11.9m/s | 0°C | 0% | 0hPa | 0V | 00:00:00 | 00:00:00 | 00:00:00 | |
| SQ9PSP-11 | 2026-09-06 01:00:15 | 49.54656 | 22.62926 | 86° | 35km/h | 21867m | -12.4m/s | 0°C | 0% | 0hPa | 0V | 00:00:00 | 00:00:00 | 00:00:00 | |
| SQ9PSP-11 | 2026-09-06 00:59:59 | 49.54677 | 22.62740 | 119° | 35km/h | 22089m | -11.9m/s | 0°C | 0% | 0hPa | 0V | 00:00:00 | 00:00:00 | 00:00:00 | |
| AKAW682 | 2026-09-06 00:59:53 | 49.54713 | 22.62658 | 131° | 47km/h | 22165m | -12.8m/s | 0°C | 0% | 0hPa | 0V | 00:00:00 | 00:00:00 | 00:00:00 | |
| SQ9PSP-11 | 2026-09-06 00:59:44 | 49.54766 | 22.62583 | 143° | 22km/h | 22301m | -14.8m/s | 0°C | 0% | 0hPa | 0V | 00:00:00 | 00:00:00 | 00:00:00 | |
| MIELECB | 2026-09-06 00:59:36 | 49.54796 | 22.62550 | 132° | 13km/h | 22425m | -11.7m/s | 0°C | 0% | 0hPa | 0V | 00:00:00 | 00:00:00 | 00:00:00 | |
| SQ9PSP-11 | 2026-09-06 00:59:28 | 49.54804 | 22.62514 | 91° | 20km/h | 22504m | -12.7m/s | 0°C | 0% | 0hPa | 0V | 00:00:00 | 00:00:00 | 00:00:00 | |
| MIELECB | 2026-09-06 00:59:12 | 49.54829 | 22.62373 | 125° | 13km/h | 22727m | -14.0m/s | 0°C | 0% | 0hPa | 0V | 00:00:00 | 00:00:00 | 00:00:00 | |
| AKAW682 | 2026-09-06 00:59:00 | 49.54876 | 22.62325 | 190° | 16km/h | 22899m | -13.7m/s | 0°C | 0% | 0hPa | 0V | 00:00:00 | 00:00:00 | 00:00:00 | |
| SQ9PSP-11 | 2026-09-06 00:58:52 | 49.54919 | 22.62316 | 171° | 18km/h | 23010m | -14.5m/s | 0°C | 0% | 0hPa | 0V | 00:00:00 | 00:00:00 | 00:00:00 | |
| MIELECB | 2026-09-06 00:58:43 | 49.54951 | 22.62290 | 145° | 27km/h | 23132m | -18.1m/s | 0°C | 0% | 0hPa | 0V | 00:00:00 | 00:00:00 | 00:00:00 | |
| SQ9PSP-11 | 2026-09-06 00:58:37 | 49.54975 | 22.62263 | 161° | 18km/h | 23221m | -15.9m/s | 0°C | 0% | 0hPa | 0V | 00:00:00 | 00:00:00 | 00:00:00 | |
| AKAW682 | 2026-09-06 00:58:32 | 49.54997 | 22.62251 | 179° | 16km/h | 23292m | -11.4m/s | 0°C | 0% | 0hPa | 0V | 00:00:00 | 00:00:00 | 00:00:00 | |
| MIELECB | 2026-09-06 00:58:22 | 49.55035 | 22.62272 | 216° | 16km/h | 23440m | -17.7m/s | 0°C | 0% | 0hPa | 0V | 00:00:00 | 00:00:00 | 00:00:00 | |
| SQ9PSP-11 | 2026-09-06 00:58:21 | 49.55039 | 22.62275 | 222° | 15km/h | 23458m | -13.1m/s | 0°C | 0% | 0hPa | 0V | 00:00:00 | 00:00:00 | 00:00:00 | |
| MIELECB | 2026-09-06 00:58:17 | 49.55046 | 22.62287 | 200° | 5km/h | 23512m | -11.6m/s | 0°C | 0% | 0hPa | 0V | 00:00:00 | 00:00:00 | 00:00:00 | |
| MIELECB | 2026-09-06 00:58:09 | 49.55045 | 22.62294 | 202° | 7km/h | 23621m | -17.2m/s | 0°C | 0% | 0hPa | 0V | 00:00:00 | 00:00:00 | 00:00:00 | |
| SQ9PSP-11 | 2026-09-06 00:58:06 | 49.55049 | 22.62292 | 137° | 5km/h | 23662m | -13.9m/s | 0°C | 0% | 0hPa | 0V | 00:00:00 | 00:00:00 | 00:00:00 | |
| MIELECB | 2026-09-06 00:57:59 | 49.55048 | 22.62279 | 51° | 5km/h | 23769m | -17.1m/s | 0°C | 0% | 0hPa | 0V | 00:00:00 | 00:00:00 | 00:00:00 | |
| SQ9PSP-11 | 2026-09-06 00:57:49 | 49.55056 | 22.62245 | 66° | 5km/h | 23900m | -15.8m/s | 0°C | 0% | 0hPa | 0V | 00:00:00 | 00:00:00 | 00:00:00 | |
| MIELECB | 2026-09-06 00:57:35 | 49.55046 | 22.62235 | 54° | 13km/h | 24103m | -16.1m/s | 0°C | 0% | 0hPa | 0V | 00:00:00 | 00:00:00 | 00:00:00 | |
| SQ9PSP-11 | 2026-09-06 00:57:34 | 49.55045 | 22.62231 | 56° | 15km/h | 24121m | -17.9m/s | 0°C | 0% | 0hPa | 0V | 00:00:00 | 00:00:00 | 00:00:00 | |
| MIELECB | 2026-09-06 00:57:18 | 49.55045 | 22.62149 | 32° | 4km/h | 24399m | -13.1m/s | 0°C | 0% | 0hPa | 0V | 00:00:00 | 00:00:00 | 00:00:00 | |
| MIELECB | 2026-09-06 00:57:06 | 49.55036 | 22.62107 | 60° | 22km/h | 24603m | -17.0m/s | 0°C | 0% | 0hPa | 0V | 00:00:00 | 00:00:00 | 00:00:00 | |
| MIELECB | 2026-09-06 00:56:57 | 49.54995 | 22.62043 | 56° | 27km/h | 24743m | -13.4m/s | 0°C | 0% | 0hPa | 0V | 00:00:00 | 00:00:00 | 00:00:00 | |
| SQ9PSP-11 | 2026-09-06 00:56:55 | 49.54995 | 22.62043 | 56° | 27km/h | 24743m | -13.4m/s | 0°C | 0% | 0hPa | 0V | 00:00:00 | 00:00:00 | 00:00:00 | |
| MIELECB | 2026-09-06 00:56:48 | 49.54977 | 22.61987 | 81° | 22km/h | 24848m | -19.3m/s | 0°C | 0% | 0hPa | 0V | 00:00:00 | 00:00:00 | 00:00:00 | |
| MIELECB | 2026-09-06 00:56:41 | 49.54975 | 22.61930 | 80° | 15km/h | 24978m | -21.4m/s | 0°C | 0% | 0hPa | 0V | 00:00:00 | 00:00:00 | 00:00:00 | |
| SQ9PSP-11 | 2026-09-06 00:56:39 | 49.54973 | 22.61920 | 59° | 13km/h | 25020m | -16.2m/s | 0°C | 0% | 0hPa | 0V | 00:00:00 | 00:00:00 | 00:00:00 | |
| MIELECB | 2026-09-06 00:56:34 | 49.54964 | 22.61898 | 70° | 15km/h | 25100m | -15.6m/s | 0°C | 0% | 0hPa | 0V | 00:00:00 | 00:00:00 | 00:00:00 | |
| MIELECB | 2026-09-06 00:56:28 | 49.54947 | 22.61874 | 16° | 18km/h | 25199m | -16.9m/s | 0°C | 0% | 0hPa | 0V | 00:00:00 | 00:00:00 | 00:00:00 | |
| MIELECB | 2026-09-06 00:56:23 | 49.54923 | 22.61861 | 28° | 18km/h | 25270m | -17.1m/s | 0°C | 0% | 0hPa | 0V | 00:00:00 | 00:00:00 | 00:00:00 | |
| MIELECB | 2026-09-06 00:56:19 | 49.54898 | 22.61834 | 50° | 31km/h | 25374m | -17.1m/s | 0°C | 0% | 0hPa | 0V | 00:00:00 | 00:00:00 | 00:00:00 | |
| MIELECB | 2026-09-06 00:56:12 | 49.54882 | 22.61774 | 86° | 26km/h | 25454m | -16.8m/s | 0°C | 0% | 0hPa | 0V | 00:00:00 | 00:00:00 | 00:00:00 | |
| SQ9PSP-11 | 2026-09-06 00:56:07 | 49.54877 | 22.61720 | 99° | 40km/h | 25541m | -21.1m/s | 0°C | 0% | 0hPa | 0V | 00:00:00 | 00:00:00 | 00:00:00 | |
| MIELECB | 2026-09-06 00:56:06 | 49.54880 | 22.61705 | 109° | 38km/h | 25561m | -18.5m/s | 0°C | 0% | 0hPa | 0V | 00:00:00 | 00:00:00 | 00:00:00 | |
| MIELECB | 2026-09-06 00:56:00 | 49.54914 | 22.61622 | 134° | 35km/h | 25674m | -15.1m/s | 0°C | 0% | 0hPa | 0V | 00:00:00 | 00:00:00 | 00:00:00 | |
| MIELECB | 2026-09-06 00:55:55 | 49.54940 | 22.61568 | 142° | 33km/h | 25753m | -14.9m/s | 0°C | 0% | 0hPa | 0V | 00:00:00 | 00:00:00 | 00:00:00 | |
| SQ9PSP-11 | 2026-09-06 00:55:52 | 49.54960 | 22.61545 | 145° | 35km/h | 25798m | -15.1m/s | 0°C | 0% | 0hPa | 0V | 00:00:00 | 00:00:00 | 00:00:00 | |
| AKAW682 | 2026-09-06 00:55:50 | 49.54973 | 22.61528 | 135° | 33km/h | 25831m | -15.6m/s | 0°C | 0% | 0hPa | 0V | 00:00:00 | 00:00:00 | 00:00:00 | |
| MIELECB | 2026-09-06 00:55:44 | 49.55003 | 22.61489 | 160° | 22km/h | 25926m | -17.4m/s | 0°C | 0% | 0hPa | 0V | 00:00:00 | 00:00:00 | 00:00:00 | |
| MIELECB | 2026-09-06 00:55:38 | 49.55039 | 22.61477 | 171° | 22km/h | 26026m | -19.7m/s | 0°C | 0% | 0hPa | 0V | 00:00:00 | 00:00:00 | 00:00:00 | |
| SQ9PSP-11 | 2026-09-06 00:55:36 | 49.55048 | 22.61474 | 168° | 15km/h | 26070m | -22.3m/s | 0°C | 0% | 0hPa | 0V | 00:00:00 | 00:00:00 | 00:00:00 | |
| MIELECB | 2026-09-06 00:55:33 | 49.55054 | 22.61465 | 122° | 15km/h | 26132m | -17.4m/s | 0°C | 0% | 0hPa | 0V | 00:00:00 | 00:00:00 | 00:00:00 | |
| MIELECB | 2026-09-06 00:55:27 | 49.55062 | 22.61436 | 115° | 15km/h | 26228m | -17.6m/s | 0°C | 0% | 0hPa | 0V | 00:00:00 | 00:00:00 | 00:00:00 | |
| MIELECB | 2026-09-06 00:55:22 | 49.55075 | 22.61415 | 136° | 27km/h | 26328m | -24.8m/s | 0°C | 0% | 0hPa | 0V | 00:00:00 | 00:00:00 | 00:00:00 | |
| SQ9PSP-11 | 2026-09-06 00:55:19 | 49.55093 | 22.61390 | 146° | 38km/h | 26394m | -23.2m/s | 0°C | 0% | 0hPa | 0V | 00:00:00 | 00:00:00 | 00:00:00 | |
| MIELECB | 2026-09-06 00:55:17 | 49.55111 | 22.61372 | 149° | 42km/h | 26436m | -18.1m/s | 0°C | 0% | 0hPa | 0V | 00:00:00 | 00:00:00 | 00:00:00 | |
| MIELECB | 2026-09-06 00:55:13 | 49.55165 | 22.61331 | 145° | 31km/h | 26535m | -20.0m/s | 0°C | 0% | 0hPa | 0V | 00:00:00 | 00:00:00 | 00:00:00 | |
| MIELECB | 2026-09-06 00:55:05 | 49.55195 | 22.61303 | 174° | 20km/h | 26648m | -16.5m/s | 0°C | 0% | 0hPa | 0V | 00:00:00 | 00:00:00 | 00:00:00 | |
| SQ9PSP-11 | 2026-09-06 00:55:04 | 49.55200 | 22.61302 | 165° | 24km/h | 26666m | -17.5m/s | 0°C | 0% | 0hPa | 0V | 00:00:00 | 00:00:00 | 00:00:00 | |
| MIELECB | 2026-09-06 00:55:00 | 49.55219 | 22.61290 | 121° | 22km/h | 26732m | -15.0m/s | 0°C | 0% | 0hPa | 0V | 00:00:00 | 00:00:00 | 00:00:00 | |
| AKAW682 | 2026-09-06 00:54:56 | 49.55232 | 22.61258 | 118° | 20km/h | 26794m | -15.6m/s | 0°C | 0% | 0hPa | 0V | 00:00:00 | 00:00:00 | 00:00:00 | |
| MIELECB | 2026-09-06 00:54:55 | 49.55235 | 22.61251 | 147° | 18km/h | 26811m | -19.4m/s | 0°C | 0% | 0hPa | 0V | 00:00:00 | 00:00:00 | 00:00:00 | |
| MIELECB | 2026-09-06 00:54:49 | 49.55256 | 22.61229 | 133° | 27km/h | 26932m | -16.7m/s | 0°C | 0% | 0hPa | 0V | 00:00:00 | 00:00:00 | 00:00:00 | |
| SQ9PSP-11 | 2026-09-06 00:54:48 | 49.55262 | 22.61221 | 137° | 33km/h | 26951m | -16.7m/s | 0°C | 0% | 0hPa | 0V | 00:00:00 | 00:00:00 | 00:00:00 | |
| MIELECB | 2026-09-06 00:54:44 | 49.55287 | 22.61190 | 145° | 31km/h | 27023m | -21.0m/s | 0°C | 0% | 0hPa | 0V | 00:00:00 | 00:00:00 | 00:00:00 | |
| MIELECB | 2026-09-06 00:54:40 | 49.55320 | 22.61175 | 154° | 26km/h | 27170m | -24.4m/s | 0°C | 0% | 0hPa | 0V | 00:00:00 | 00:00:00 | 00:00:00 | |
| MIELECB | 2026-09-06 00:54:35 | 49.55352 | 22.61147 | 146° | 38km/h | 27284m | -22.6m/s | 0°C | 0% | 0hPa | 0V | 00:00:00 | 00:00:00 | 00:00:00 | |
| AKAW682 | 2026-09-06 00:54:31 | 49.55367 | 22.61135 | 144° | 27km/h | 27334m | -26.1m/s | 0°C | 0% | 0hPa | 0V | 00:00:00 | 00:00:00 | 00:00:00 | |
| MIELECB | 2026-09-06 00:54:30 | 49.55381 | 22.61130 | 166° | 11km/h | 27408m | -20.9m/s | 0°C | 0% | 0hPa | 0V | 00:00:00 | 00:00:00 | 00:00:00 | |
| MIELECB | 2026-09-06 00:54:23 | 49.55393 | 22.61114 | 125° | 16km/h | 27510m | -16.6m/s | 0°C | 0% | 0hPa | 0V | 00:00:00 | 00:00:00 | 00:00:00 | |
| MIELECB | 2026-09-06 00:54:18 | 49.55405 | 22.61097 | 240° | 9km/h | 27593m | -18.5m/s | 0°C | 0% | 0hPa | 0V | 00:00:00 | 00:00:00 | 00:00:00 | |
| SQ9PSP-11 | 2026-09-06 00:54:14 | 49.55410 | 22.61103 | 168° | 9km/h | 27666m | -18.6m/s | 0°C | 0% | 0hPa | 0V | 00:00:00 | 00:00:00 | 00:00:00 | |
| MIELECB | 2026-09-06 00:54:13 | 49.55414 | 22.61099 | 149° | 15km/h | 27700m | -16.2m/s | 0°C | 0% | 0hPa | 0V | 00:00:00 | 00:00:00 | 00:00:00 | |
| AKAW682 | 2026-09-06 00:54:08 | 49.55418 | 22.61085 | 57° | 4km/h | 27767m | -13.9m/s | 0°C | 0% | 0hPa | 0V | 00:00:00 | 00:00:00 | 00:00:00 | |
| MIELECB | 2026-09-06 00:54:07 | 49.55417 | 22.61084 | 65° | 5km/h | 27779m | -13.6m/s | 0°C | 0% | 0hPa | 0V | 00:00:00 | 00:00:00 | 00:00:00 | |
| MIELECB | 2026-09-06 00:54:01 | 49.55418 | 22.61053 | 98° | 24km/h | 27885m | -17.1m/s | 0°C | 0% | 0hPa | 0V | 00:00:00 | 00:00:00 | 00:00:00 | |
| SQ9PSP-11 | 2026-09-06 00:53:58 | 49.55419 | 22.61031 | 111° | 16km/h | 27928m | -16.0m/s | 0°C | 0% | 0hPa | 0V | 00:00:00 | 00:00:00 | 00:00:00 | |
| MIELECB | 2026-09-06 00:53:55 | 49.55420 | 22.61012 | 109° | 22km/h | 27976m | -19.9m/s | 0°C | 0% | 0hPa | 0V | 00:00:00 | 00:00:00 | 00:00:00 | |
| MIELECB | 2026-09-06 00:53:49 | 49.55440 | 22.60966 | 119° | 27km/h | 28087m | -20.5m/s | 0°C | 0% | 0hPa | 0V | 00:00:00 | 00:00:00 | 00:00:00 | |
| AKAW682 | 2026-09-06 00:53:46 | 49.55449 | 22.60940 | 130° | 27km/h | 28142m | -18.2m/s | 0°C | 0% | 0hPa | 0V | 00:00:00 | 00:00:00 | 00:00:00 | |
| MIELECB | 2026-09-06 00:53:43 | 49.55459 | 22.60927 | 163° | 22km/h | 28200m | -21.6m/s | 0°C | 0% | 0hPa | 0V | 00:00:00 | 00:00:00 | 00:00:00 | |
| SQ9PSP-11 | 2026-09-06 00:53:42 | 49.55464 | 22.60925 | 165° | 22km/h | 28221m | -22.3m/s | 0°C | 0% | 0hPa | 0V | 00:00:00 | 00:00:00 | 00:00:00 | |
| MIELECB | 2026-09-06 00:53:37 | 49.55487 | 22.60914 | 169° | 7km/h | 28313m | -24.9m/s | 0°C | 0% | 0hPa | 0V | 00:00:00 | 00:00:00 | 00:00:00 | |
| MIELECB | 2026-09-06 00:53:32 | 49.55492 | 22.60910 | 134° | 15km/h | 28417m | -21.2m/s | 0°C | 0% | 0hPa | 0V | 00:00:00 | 00:00:00 | 00:00:00 | |
| MIELECB | 2026-09-06 00:53:27 | 49.55498 | 22.60880 | 88° | 5km/h | 28533m | -17.7m/s | 0°C | 0% | 0hPa | 0V | 00:00:00 | 00:00:00 | 00:00:00 | |
| SQ9PSP-11 | 2026-09-06 00:53:26 | 49.55498 | 22.60880 | 88° | 5km/h | 28533m | -17.7m/s | 0°C | 0% | 0hPa | 0V | 00:00:00 | 00:00:00 | 00:00:00 | |
| AKAW682 | 2026-09-06 00:53:25 | 49.55497 | 22.60879 | 67° | 7km/h | 28551m | -18.4m/s | 0°C | 0% | 0hPa | 0V | 00:00:00 | 00:00:00 | 00:00:00 | |
| MIELECB | 2026-09-06 00:53:21 | 49.55496 | 22.60864 | 91° | 16km/h | 28635m | -15.8m/s | 0°C | 0% | 0hPa | 0V | 00:00:00 | 00:00:00 | 00:00:00 | |
| MIELECB | 2026-09-06 00:53:15 | 49.55500 | 22.60818 | 116° | 20km/h | 28752m | -16.6m/s | 0°C | 0% | 0hPa | 0V | 00:00:00 | 00:00:00 | 00:00:00 | |
| AKAW68 | 2026-09-06 00:53:13 | 49.55506 | 22.60806 | 128° | 20km/h | 28792m | -21.0m/s | 0°C | 0% | 0hPa | 0V | 00:00:00 | 00:00:00 | 00:00:00 | |
| MIELECB | 2026-09-06 00:53:10 | 49.55515 | 22.60788 | 138° | 13km/h | 28854m | -19.3m/s | 0°C | 0% | 0hPa | 0V | 00:00:00 | 00:00:00 | 00:00:00 | |
| MIELECB | 2026-09-06 00:53:05 | 49.55531 | 22.60761 | 108° | 13km/h | 29000m | -21.3m/s | 0°C | 0% | 0hPa | 0V | 00:00:00 | 00:00:00 | 00:00:00 | |
| AKAW682 | 2026-09-06 00:53:03 | 49.55531 | 22.60761 | 108° | 13km/h | 29000m | -21.3m/s | 0°C | 0% | 0hPa | 0V | 00:00:00 | 00:00:00 | 00:00:00 | |
| MIELECB | 2026-09-06 00:52:59 | 49.55536 | 22.60747 | 130° | 2km/h | 29154m | -17.3m/s | 0°C | 0% | 0hPa | 0V | 00:00:00 | 00:00:00 | 00:00:00 | |
| SQ9PSP-11 | 2026-09-06 00:52:53 | 49.55536 | 22.60736 | 86° | 16km/h | 29208m | -22.8m/s | 0°C | 0% | 0hPa | 0V | 00:00:00 | 00:00:00 | 00:00:00 | |
| MIELECB | 2026-09-06 00:52:51 | 49.55540 | 22.60718 | 151° | 9km/h | 29292m | -20.4m/s | 0°C | 0% | 0hPa | 0V | 00:00:00 | 00:00:00 | 00:00:00 | |
| AKAW68 | 2026-09-06 00:52:45 | 49.55549 | 22.60725 | 247° | 5km/h | 29378m | -21.1m/s | 0°C | 0% | 0hPa | 0V | 00:00:00 | 00:00:00 | 00:00:00 | |
| AKAW682 | 2026-09-06 00:52:41 | 49.55548 | 22.60715 | 50° | 22km/h | 29450m | -20.5m/s | 0°C | 0% | 0hPa | 0V | 00:00:00 | 00:00:00 | 00:00:00 | |
| SQ9PSP-11 | 2026-09-06 00:52:37 | 49.55536 | 22.60698 | 12° | 7km/h | 29533m | -21.2m/s | 0°C | 0% | 0hPa | 0V | 00:00:00 | 00:00:00 | 00:00:00 | |
| MIELECB | 2026-09-06 00:52:32 | 49.55521 | 22.60680 | 33° | 29km/h | 29646m | -26.3m/s | 0°C | 0% | 0hPa | 0V | 00:00:00 | 00:00:00 | 00:00:00 | |
| MIELECB | 2026-09-06 00:52:25 | 49.55508 | 22.60630 | 120° | 24km/h | 29829m | -20.1m/s | 0°C | 0% | 0hPa | 0V | 00:00:00 | 00:00:00 | 00:00:00 | |
| SQ9PSP-11 | 2026-09-06 00:52:21 | 49.55506 | 22.60596 | 93° | 15km/h | 29912m | -22.8m/s | 0°C | 0% | 0hPa | 0V | 00:00:00 | 00:00:00 | 00:00:00 | |
| MIELECB | 2026-09-06 00:52:19 | 49.55510 | 22.60589 | 166° | 27km/h | 29955m | -20.3m/s | 0°C | 0% | 0hPa | 0V | 00:00:00 | 00:00:00 | 00:00:00 | |
| GYPAP8-17 | 2026-09-06 00:52:18 | 49.55517 | 22.60586 | 169° | 33km/h | 29976m | -20.7m/s | 0°C | 0% | 0hPa | 0V | 00:00:00 | 00:00:00 | 00:00:00 | |
| MIELECB | 2026-09-06 00:52:13 | 49.55537 | 22.60554 | 36° | 29km/h | 30083m | -15.5m/s | 0°C | 0% | 0hPa | 0V | 00:00:00 | 00:00:00 | 00:00:00 | |
| MIELECB | 2026-09-06 00:52:08 | 49.55540 | 22.60534 | 148° | 51km/h | 30161m | -13.3m/s | 0°C | 0% | 0hPa | 0V | 00:00:00 | 00:00:00 | 00:00:00 | |
| SQ9PSP-11 | 2026-09-06 00:52:05 | 49.55549 | 22.60504 | 37° | 27km/h | 30226m | -15.0m/s | 0°C | 0% | 0hPa | 0V | 00:00:00 | 00:00:00 | 00:00:00 | |
| MIELECB | 2026-09-06 00:51:59 | 49.55561 | 22.60480 | 107° | 38km/h | 30206m | 6.9m/s | 0°C | 0% | 0hPa | 0V | 00:00:00 | 00:00:00 | 00:00:00 | |
| AKAW682 | 2026-09-06 00:51:56 | 49.55548 | 22.60450 | 20° | 22km/h | 30186m | 4.0m/s | 0°C | 0% | 0hPa | 0V | 00:00:00 | 00:00:00 | 00:00:00 | |
| MIELECB | 2026-09-06 00:51:52 | 49.55557 | 22.60465 | 158° | 35km/h | 30165m | 4.9m/s | 0°C | 0% | 0hPa | 0V | 00:00:00 | 00:00:00 | 00:00:00 | |
| SQ9PSP-11 | 2026-09-06 00:51:50 | 49.55567 | 22.60438 | 101° | 57km/h | 30151m | 5.8m/s | 0°C | 0% | 0hPa | 0V | 00:00:00 | 00:00:00 | 00:00:00 | |
| MIELECB | 2026-09-06 00:51:44 | 49.55569 | 22.60418 | 166° | 51km/h | 30122m | 2.8m/s | 0°C | 0% | 0hPa | 0V | 00:00:00 | 00:00:00 | 00:00:00 | |
| MIELECB | 2026-09-06 00:51:39 | 49.55566 | 22.60367 | 296° | 31km/h | 30100m | 13.0m/s | 0°C | 0% | 0hPa | 0V | 00:00:00 | 00:00:00 | 00:00:00 | |
| SQ9PSP-11 | 2026-09-06 00:51:35 | 49.55591 | 22.60349 | 98° | 66km/h | 30065m | 8.4m/s | 0°C | 0% | 0hPa | 0V | 00:00:00 | 00:00:00 | 00:00:00 | |
| MIELECB | 2026-09-06 00:51:34 | 49.55589 | 22.60328 | 70° | 46km/h | 30059m | 8.1m/s | 0°C | 0% | 0hPa | 0V | 00:00:00 | 00:00:00 | 00:00:00 | |
| MIELECB | 2026-09-06 00:51:23 | 49.55610 | 22.60290 | 222° | 33km/h | 29982m | -0.3m/s | 0°C | 0% | 0hPa | 0V | 00:00:00 | 00:00:00 | 00:00:00 | |
| MIELECB | 2026-09-06 00:51:18 | 49.55631 | 22.60233 | 93° | 29km/h | 29958m | 4.1m/s | 0°C | 0% | 0hPa | 0V | 00:00:00 | 00:00:00 | 00:00:00 | |
| SQ9PSP-11 | 2026-09-06 00:51:17 | 49.55632 | 22.60225 | 123° | 16km/h | 29951m | 11.1m/s | 0°C | 0% | 0hPa | 0V | 00:00:00 | 00:00:00 | 00:00:00 | |
| MIELECB | 2026-09-06 00:51:12 | 49.55651 | 22.60216 | 102° | 57km/h | 29911m | 10.7m/s | 0°C | 0% | 0hPa | 0V | 00:00:00 | 00:00:00 | 00:00:00 | |
| MIELECB | 2026-09-06 00:51:05 | 49.55658 | 22.60173 | 146° | 27km/h | 29874m | 10.2m/s | 0°C | 0% | 0hPa | 0V | 00:00:00 | 00:00:00 | 00:00:00 | |
| SQ9PSP-11 | 2026-09-06 00:51:02 | 49.55681 | 22.60133 | 107° | 47km/h | 29850m | 2.0m/s | 0°C | 0% | 0hPa | 0V | 00:00:00 | 00:00:00 | 00:00:00 | |
| MIELECB | 2026-09-06 00:50:57 | 49.55666 | 22.60108 | 226° | 24km/h | 29813m | 5.2m/s | 0°C | 0% | 0hPa | 0V | 00:00:00 | 00:00:00 | 00:00:00 | |
| AKAW682 | 2026-09-06 00:50:49 | 49.55660 | 22.60066 | 198° | 46km/h | 29768m | 2.7m/s | 0°C | 0% | 0hPa | 0V | 00:00:00 | 00:00:00 | 00:00:00 | |
| SQ9PSP-11 | 2026-09-06 00:50:46 | 49.55665 | 22.60022 | 47° | 69km/h | 29751m | 11.8m/s | 0°C | 0% | 0hPa | 0V | 00:00:00 | 00:00:00 | 00:00:00 | |
| MIELECB | 2026-09-06 00:50:36 | 49.55599 | 22.59987 | 263° | 33km/h | 29681m | 10.5m/s | 0°C | 0% | 0hPa | 0V | 00:00:00 | 00:00:00 | 00:00:00 | |
| SQ9PSP-11 | 2026-09-06 00:50:30 | 49.55561 | 22.59956 | 319° | 27km/h | 29649m | 5.7m/s | 0°C | 0% | 0hPa | 0V | 00:00:00 | 00:00:00 | 00:00:00 | |
| AKAW682 | 2026-09-06 00:50:28 | 49.55566 | 22.59959 | 166° | 33km/h | 29629m | 10.7m/s | 0°C | 0% | 0hPa | 0V | 00:00:00 | 00:00:00 | 00:00:00 | |
| MIELECB | 2026-09-06 00:50:19 | 49.55551 | 22.59911 | 69° | 46km/h | 29568m | 6.3m/s | 0°C | 0% | 0hPa | 0V | 00:00:00 | 00:00:00 | 00:00:00 | |
| MIELECB | 2026-09-06 00:50:14 | 49.55518 | 22.59909 | 178° | 24km/h | 29534m | 7.7m/s | 0°C | 0% | 0hPa | 0V | 00:00:00 | 00:00:00 | 00:00:00 | |
| SQ9PSP-11 | 2026-09-06 00:50:13 | 49.55525 | 22.59902 | 135° | 46km/h | 29528m | 2.3m/s | 0°C | 0% | 0hPa | 0V | 00:00:00 | 00:00:00 | 00:00:00 | |
| MIELECB | 2026-09-06 00:50:08 | 49.55494 | 22.59884 | 291° | 26km/h | 29502m | 1.6m/s | 0°C | 0% | 0hPa | 0V | 00:00:00 | 00:00:00 | 00:00:00 | |
| AKAW682 | 2026-09-06 00:50:07 | 49.55495 | 22.59890 | 237° | 16km/h | 29497m | 9.6m/s | 0°C | 0% | 0hPa | 0V | 00:00:00 | 00:00:00 | 00:00:00 | |
| SQ9PSP-11 | 2026-09-06 00:49:58 | 49.55484 | 22.59864 | 118° | 44km/h | 29441m | 6.6m/s | 0°C | 0% | 0hPa | 0V | 00:00:00 | 00:00:00 | 00:00:00 | |
| MIELECB | 2026-09-06 00:49:57 | 49.55484 | 22.59846 | 78° | 51km/h | 29438m | 3.8m/s | 0°C | 0% | 0hPa | 0V | 00:00:00 | 00:00:00 | 00:00:00 | |
| MIELECB | 2026-09-06 00:49:50 | 49.55488 | 22.59846 | 116° | 38km/h | 29400m | 4.6m/s | 0°C | 0% | 0hPa | 0V | 00:00:00 | 00:00:00 | 00:00:00 | |
| MIELECB | 2026-09-06 00:49:43 | 49.55484 | 22.59841 | 157° | 62km/h | 29352m | 6.4m/s | 0°C | 0% | 0hPa | 0V | 00:00:00 | 00:00:00 | 00:00:00 | |
| AKAW682 | 2026-09-06 00:49:42 | 49.55493 | 22.59827 | 116° | 47km/h | 29348m | 1.0m/s | 0°C | 0% | 0hPa | 0V | 00:00:00 | 00:00:00 | 00:00:00 | |
| MIELECB | 2026-09-06 00:49:38 | 49.55473 | 22.59817 | 281° | 40km/h | 29321m | 3.2m/s | 0°C | 0% | 0hPa | 0V | 00:00:00 | 00:00:00 | 00:00:00 | |
| MIELECB | 2026-09-06 00:49:31 | 49.55475 | 22.59793 | 281° | 42km/h | 29278m | 2.4m/s | 0°C | 0% | 0hPa | 0V | 00:00:00 | 00:00:00 | 00:00:00 | |
| MIELECB | 2026-09-06 00:49:25 | 49.55488 | 22.59764 | 322° | 40km/h | 29245m | 8.6m/s | 0°C | 0% | 0hPa | 0V | 00:00:00 | 00:00:00 | 00:00:00 | |
| MIELECB | 2026-09-06 00:49:20 | 49.55511 | 22.59753 | 63° | 46km/h | 29215m | 5.9m/s | 0°C | 0% | 0hPa | 0V | 00:00:00 | 00:00:00 | 00:00:00 | |
| AKAW682 | 2026-09-06 00:49:15 | 49.55521 | 22.59745 | 99° | 57km/h | 29179m | 4.3m/s | 0°C | 0% | 0hPa | 0V | 00:00:00 | 00:00:00 | 00:00:00 | |
| SQ9PSP-11 | 2026-09-06 00:49:09 | 49.55510 | 22.59756 | 184° | 40km/h | 29150m | 5.8m/s | 0°C | 0% | 0hPa | 0V | 00:00:00 | 00:00:00 | 00:00:00 | |
| MIELECB | 2026-09-06 00:49:08 | 49.55521 | 22.59750 | 138° | 51km/h | 29143m | 8.5m/s | 0°C | 0% | 0hPa | 0V | 00:00:00 | 00:00:00 | 00:00:00 | |
| MIELECB | 2026-09-06 00:49:01 | 49.55534 | 22.59732 | 151° | 40km/h | 29099m | 4.7m/s | 0°C | 0% | 0hPa | 0V | 00:00:00 | 00:00:00 | 00:00:00 | |
| MIELECB | 2026-09-06 00:48:55 | 49.55531 | 22.59727 | 174° | 51km/h | 29074m | 4.5m/s | 0°C | 0% | 0hPa | 0V | 00:00:00 | 00:00:00 | 00:00:00 | |
| MIELECB | 2026-09-06 00:48:46 | 49.55564 | 22.59669 | 66° | 60km/h | 29020m | 11.3m/s | 0°C | 0% | 0hPa | 0V | 00:00:00 | 00:00:00 | 00:00:00 | |
| MIELECB | 2026-09-06 00:48:39 | 49.55582 | 22.59640 | 68° | 57km/h | 28973m | 5.6m/s | 0°C | 0% | 0hPa | 0V | 00:00:00 | 00:00:00 | 00:00:00 | |
| SQ9PSP-11 | 2026-09-06 00:48:35 | 49.55583 | 22.59645 | 196° | 55km/h | 28945m | 4.3m/s | 0°C | 0% | 0hPa | 0V | 00:00:00 | 00:00:00 | 00:00:00 | |
| MIELECB | 2026-09-06 00:48:32 | 49.55608 | 22.59602 | 79° | 62km/h | 28930m | 9.0m/s | 0°C | 0% | 0hPa | 0V | 00:00:00 | 00:00:00 | 00:00:00 | |
| MIELECB | 2026-09-06 00:48:26 | 49.55627 | 22.59585 | 112° | 66km/h | 28891m | 8.5m/s | 0°C | 0% | 0hPa | 0V | 00:00:00 | 00:00:00 | 00:00:00 | |
| AKAW682 | 2026-09-06 00:48:22 | 49.55612 | 22.59562 | 231° | 42km/h | 28863m | 7.8m/s | 0°C | 0% | 0hPa | 0V | 00:00:00 | 00:00:00 | 00:00:00 | |
| SQ9PSP-11 | 2026-09-06 00:48:20 | 49.55635 | 22.59560 | 130° | 60km/h | 28853m | 1.0m/s | 0°C | 0% | 0hPa | 0V | 00:00:00 | 00:00:00 | 00:00:00 | |
| MIELECB | 2026-09-06 00:48:19 | 49.55642 | 22.59541 | 103° | 60km/h | 28846m | 7.8m/s | 0°C | 0% | 0hPa | 0V | 00:00:00 | 00:00:00 | 00:00:00 | |
| MIELECB | 2026-09-06 00:48:13 | 49.55645 | 22.59508 | 142° | 66km/h | 28809m | 1.6m/s | 0°C | 0% | 0hPa | 0V | 00:00:00 | 00:00:00 | 00:00:00 | |
| MIELECB | 2026-09-06 00:48:07 | 49.55654 | 22.59471 | 170° | 62km/h | 28774m | 5.9m/s | 0°C | 0% | 0hPa | 0V | 00:00:00 | 00:00:00 | 00:00:00 | |
| SQ9PSP-11 | 2026-09-06 00:48:05 | 49.55670 | 22.59436 | 92° | 57km/h | 28767m | 8.2m/s | 0°C | 0% | 0hPa | 0V | 00:00:00 | 00:00:00 | 00:00:00 | |
| MIELECB | 2026-09-06 00:47:59 | 49.55677 | 22.59416 | 111° | 60km/h | 28726m | 3.6m/s | 0°C | 0% | 0hPa | 0V | 00:00:00 | 00:00:00 | 00:00:00 | |
| MIELECB | 2026-09-06 00:47:53 | 49.55675 | 22.59392 | 146° | 53km/h | 28690m | 5.7m/s | 0°C | 0% | 0hPa | 0V | 00:00:00 | 00:00:00 | 00:00:00 | |
| SQ9PSP-11 | 2026-09-06 00:47:49 | 49.55669 | 22.59356 | 296° | 42km/h | 28664m | 4.4m/s | 0°C | 0% | 0hPa | 0V | 00:00:00 | 00:00:00 | 00:00:00 | |
| MIELECB | 2026-09-06 00:47:46 | 49.55684 | 22.59369 | 136° | 49km/h | 28646m | 8.7m/s | 0°C | 0% | 0hPa | 0V | 00:00:00 | 00:00:00 | 00:00:00 | |
| MIELECB | 2026-09-06 00:47:41 | 49.55680 | 22.59340 | 188° | 40km/h | 28610m | 7.9m/s | 0°C | 0% | 0hPa | 0V | 00:00:00 | 00:00:00 | 00:00:00 | |
| AKAW682 | 2026-09-06 00:47:38 | 49.55696 | 22.59318 | 101° | 49km/h | 28599m | 2.6m/s | 0°C | 0% | 0hPa | 0V | 00:00:00 | 00:00:00 | 00:00:00 | |
| MIELECB | 2026-09-06 00:47:35 | 49.55676 | 22.59295 | 326° | 38km/h | 28580m | 2.4m/s | 0°C | 0% | 0hPa | 0V | 00:00:00 | 00:00:00 | 00:00:00 | |
| SQ9PSP-11 | 2026-09-06 00:47:34 | 49.55672 | 22.59301 | 251° | 13km/h | 28577m | 4.5m/s | 0°C | 0% | 0hPa | 0V | 00:00:00 | 00:00:00 | 00:00:00 | |
| MIELECB | 2026-09-06 00:47:30 | 49.55701 | 22.59268 | 97° | 49km/h | 28552m | 2.5m/s | 0°C | 0% | 0hPa | 0V | 00:00:00 | 00:00:00 | 00:00:00 | |
| MIELECB | 2026-09-06 00:47:23 | 49.55713 | 22.59254 | 92° | 49km/h | 28502m | 6.0m/s | 0°C | 0% | 0hPa | 0V | 00:00:00 | 00:00:00 | 00:00:00 | |
| SQ9PSP-11 | 2026-09-06 00:47:19 | 49.55684 | 22.59242 | 250° | 29km/h | 28484m | 5.9m/s | 0°C | 0% | 0hPa | 0V | 00:00:00 | 00:00:00 | 00:00:00 | |
| AKAW682 | 2026-09-06 00:47:17 | 49.55703 | 22.59249 | 153° | 60km/h | 28468m | 5.6m/s | 0°C | 0% | 0hPa | 0V | 00:00:00 | 00:00:00 | 00:00:00 | |
| MIELECB | 2026-09-06 00:47:16 | 49.55712 | 22.59233 | 108° | 49km/h | 28464m | 2.7m/s | 0°C | 0% | 0hPa | 0V | 00:00:00 | 00:00:00 | 00:00:00 | |
| MIELECB | 2026-09-06 00:47:10 | 49.55714 | 22.59232 | 154° | 57km/h | 28429m | 6.0m/s | 0°C | 0% | 0hPa | 0V | 00:00:00 | 00:00:00 | 00:00:00 | |
| SQ9PSP-11 | 2026-09-06 00:47:03 | 49.55732 | 22.59231 | 150° | 51km/h | 28387m | 6.7m/s | 0°C | 0% | 0hPa | 0V | 00:00:00 | 00:00:00 | 00:00:00 | |
| MIELECB | 2026-09-06 00:46:58 | 49.55732 | 22.59215 | 244° | 24km/h | 28356m | 6.8m/s | 0°C | 0% | 0hPa | 0V | 00:00:00 | 00:00:00 | 00:00:00 | |
| AKAW682 | 2026-09-06 00:46:56 | 49.55748 | 22.59225 | 187° | 49km/h | 28338m | 4.3m/s | 0°C | 0% | 0hPa | 0V | 00:00:00 | 00:00:00 | 00:00:00 | |
| SQ9PSP-11 | 2026-09-06 00:46:48 | 49.55780 | 22.59228 | 197° | 64km/h | 28295m | 3.8m/s | 0°C | 0% | 0hPa | 0V | 00:00:00 | 00:00:00 | 00:00:00 | |
| MIELECB | 2026-09-06 00:46:46 | 49.55805 | 22.59220 | 141° | 49km/h | 28288m | 9.2m/s | 0°C | 0% | 0hPa | 0V | 00:00:00 | 00:00:00 | 00:00:00 | |
| MIELECB | 2026-09-06 00:46:40 | 49.55823 | 22.59220 | 178° | 71km/h | 28243m | 4.7m/s | 0°C | 0% | 0hPa | 0V | 00:00:00 | 00:00:00 | 00:00:00 | |
| MIELECB | 2026-09-06 00:46:35 | 49.55842 | 22.59179 | 239° | 49km/h | 28204m | 7.7m/s | 0°C | 0% | 0hPa | 0V | 00:00:00 | 00:00:00 | 00:00:00 | |
| AKAW682 | 2026-09-06 00:46:33 | 49.55871 | 22.59187 | 157° | 64km/h | 28193m | 5.9m/s | 0°C | 0% | 0hPa | 0V | 00:00:00 | 00:00:00 | 00:00:00 | |
| SQ9PSP-11 | 2026-09-06 00:46:32 | 49.55884 | 22.59172 | 117° | 64km/h | 28187m | 5.9m/s | 0°C | 0% | 0hPa | 0V | 00:00:00 | 00:00:00 | 00:00:00 | |
| MIELECB | 2026-09-06 00:46:29 | 49.55877 | 22.59149 | 258° | 15km/h | 28174m | 9.8m/s | 0°C | 0% | 0hPa | 0V | 00:00:00 | 00:00:00 | 00:00:00 | |
| MIELECB | 2026-09-06 00:46:23 | 49.55950 | 22.59097 | 343° | 20km/h | 28131m | 8.3m/s | 0°C | 0% | 0hPa | 0V | 00:00:00 | 00:00:00 | 00:00:00 | |
| MIELECB | 2026-09-06 00:46:18 | 49.55991 | 22.59083 | 55° | 55km/h | 28107m | 8.4m/s | 0°C | 0% | 0hPa | 0V | 00:00:00 | 00:00:00 | 00:00:00 | |
| SQ9PSP-11 | 2026-09-06 00:46:16 | 49.55970 | 22.59059 | 52° | 22km/h | 28084m | 6.6m/s | 0°C | 0% | 0hPa | 0V | 00:00:00 | 00:00:00 | 00:00:00 | |
| MIELECB | 2026-09-06 00:46:12 | 49.55999 | 22.59035 | 122° | 46km/h | 28071m | 7.3m/s | 0°C | 0% | 0hPa | 0V | 00:00:00 | 00:00:00 | 00:00:00 | |
| MIELECB | 2026-09-06 00:46:06 | 49.55988 | 22.58994 | 67° | 42km/h | 28053m | 1.1m/s | 0°C | 0% | 0hPa | 0V | 00:00:00 | 00:00:00 | 00:00:00 | |
| SQ9PSP-11 | 2026-09-06 00:46:00 | 49.55976 | 22.58981 | 114° | 22km/h | 28046m | 10.4m/s | 0°C | 0% | 0hPa | 0V | 00:00:00 | 00:00:00 | 00:00:00 | |
| MIELECB | 2026-09-06 00:45:56 | 49.55976 | 22.58919 | 27° | 37km/h | 28011m | 9.5m/s | 0°C | 0% | 0hPa | 0V | 00:00:00 | 00:00:00 | 00:00:00 | |
| AKAW682 | 2026-09-06 00:45:51 | 49.55986 | 22.58909 | 114° | 57km/h | 28000m | 0.6m/s | 0°C | 0% | 0hPa | 0V | 00:00:00 | 00:00:00 | 00:00:00 | |
| MIELECB | 2026-09-06 00:45:50 | 49.55988 | 22.58893 | 90° | 49km/h | 28004m | 5.3m/s | 0°C | 0% | 0hPa | 0V | 00:00:00 | 00:00:00 | 00:00:00 | |
| SQ9PSP-11 | 2026-09-06 00:45:44 | 49.55984 | 22.58855 | 106° | 53km/h | 28012m | 6.1m/s | 0°C | 0% | 0hPa | 0V | 00:00:00 | 00:00:00 | 00:00:00 | |
| MIELECB | 2026-09-06 00:45:37 | 49.55984 | 22.58812 | 98° | 60km/h | 27978m | 10.7m/s | 0°C | 0% | 0hPa | 0V | 00:00:00 | 00:00:00 | 00:00:00 | |
| MIELECB | 2026-09-06 00:45:31 | 49.56000 | 22.58775 | 113° | 57km/h | 27913m | 12.1m/s | 0°C | 0% | 0hPa | 0V | 00:00:00 | 00:00:00 | 00:00:00 | |
| AKAW682 | 2026-09-06 00:45:28 | 49.55977 | 22.58755 | 220° | 15km/h | 27883m | 19.5m/s | 0°C | 0% | 0hPa | 0V | 00:00:00 | 00:00:00 | 00:00:00 | |
| SQ9PSP-11 | 2026-09-06 00:45:27 | 49.55981 | 22.58758 | 213° | 37km/h | 27864m | 12.6m/s | 0°C | 0% | 0hPa | 0V | 00:00:00 | 00:00:00 | 00:00:00 | |
| MIELECB | 2026-09-06 00:45:25 | 49.55988 | 22.58748 | 76° | 46km/h | 27848m | 13.1m/s | 0°C | 0% | 0hPa | 0V | 00:00:00 | 00:00:00 | 00:00:00 | |
| MIELECB | 2026-09-06 00:45:19 | 49.56001 | 22.58743 | 160° | 38km/h | 27791m | 4.6m/s | 0°C | 0% | 0hPa | 0V | 00:00:00 | 00:00:00 | 00:00:00 | |
| MIELECB | 2026-09-06 00:45:13 | 49.56038 | 22.58724 | 204° | 47km/h | 27754m | 7.1m/s | 0°C | 0% | 0hPa | 0V | 00:00:00 | 00:00:00 | 00:00:00 | |
| SQ9PSP-11 | 2026-09-06 00:45:11 | 49.56052 | 22.58714 | 93° | 20km/h | 27742m | 11.3m/s | 0°C | 0% | 0hPa | 0V | 00:00:00 | 00:00:00 | 00:00:00 | |
| MIELECB | 2026-09-06 00:45:08 | 49.56034 | 22.58707 | 306° | 38km/h | 27725m | 7.4m/s | 0°C | 0% | 0hPa | 0V | 00:00:00 | 00:00:00 | 00:00:00 | |
| AKAW682 | 2026-09-06 00:45:05 | 49.56051 | 22.58729 | 123° | 33km/h | 27724m | 2.4m/s | 0°C | 0% | 0hPa | 0V | 00:00:00 | 00:00:00 | 00:00:00 | |
| MIELECB | 2026-09-06 00:45:00 | 49.56046 | 22.58727 | 242° | 46km/h | 27709m | 9.6m/s | 0°C | 0% | 0hPa | 0V | 00:00:00 | 00:00:00 | 00:00:00 | |
| SQ9PSP-11 | 2026-09-06 00:44:54 | 49.56042 | 22.58732 | 251° | 40km/h | 27676m | 9.3m/s | 0°C | 0% | 0hPa | 0V | 00:00:00 | 00:00:00 | 00:00:00 | |
| GYPAP8-17 | 2026-09-06 00:44:48 | 49.56062 | 22.58724 | 303° | 24km/h | 27620m | 6.4m/s | 0°C | 0% | 0hPa | 0V | 00:00:00 | 00:00:00 | 00:00:00 | |
| AKAW682 | 2026-09-06 00:44:45 | 49.56082 | 22.58739 | 175° | 49km/h | 27592m | 6.7m/s | 0°C | 0% | 0hPa | 0V | 00:00:00 | 00:00:00 | 00:00:00 | |
| MIELECB | 2026-09-06 00:44:42 | 49.56095 | 22.58706 | 53° | 35km/h | 27573m | 8.7m/s | 0°C | 0% | 0hPa | 0V | 00:00:00 | 00:00:00 | 00:00:00 | |
| SQ9PSP-11 | 2026-09-06 00:44:39 | 49.56087 | 22.58725 | 246° | 40km/h | 27551m | 1.0m/s | 0°C | 0% | 0hPa | 0V | 00:00:00 | 00:00:00 | 00:00:00 | |
| MIELECB | 2026-09-06 00:44:37 | 49.56108 | 22.58731 | 162° | 33km/h | 27555m | 7.4m/s | 0°C | 0% | 0hPa | 0V | 00:00:00 | 00:00:00 | 00:00:00 | |
| MIELECB | 2026-09-06 00:44:31 | 49.56110 | 22.58734 | 190° | 69km/h | 27515m | 5.4m/s | 0°C | 0% | 0hPa | 0V | 00:00:00 | 00:00:00 | 00:00:00 | |
| AKAW68 | 2026-09-06 00:44:26 | 49.56125 | 22.58692 | 316° | 27km/h | 27500m | 2.6m/s | 0°C | 0% | 0hPa | 0V | 00:00:00 | 00:00:00 | 00:00:00 | |
| MIELECB | 2026-09-06 00:44:25 | 49.56125 | 22.58701 | 223° | 35km/h | 27499m | 0.5m/s | 0°C | 0% | 0hPa | 0V | 00:00:00 | 00:00:00 | 00:00:00 | |
| AKAW682 | 2026-09-06 00:44:24 | 49.56135 | 22.58706 | 182° | 51km/h | 27501m | 2.8m/s | 0°C | 0% | 0hPa | 0V | 00:00:00 | 00:00:00 | 00:00:00 | |
| SQ9PSP-11 | 2026-09-06 00:44:23 | 49.56148 | 22.58703 | 160° | 60km/h | 27500m | 9.1m/s | 0°C | 0% | 0hPa | 0V | 00:00:00 | 00:00:00 | 00:00:00 | |
| MIELECB | 2026-09-06 00:44:20 | 49.56155 | 22.58666 | 42° | 18km/h | 27482m | 3.6m/s | 0°C | 0% | 0hPa | 0V | 00:00:00 | 00:00:00 | 00:00:00 | |
| MIELECB | 2026-09-06 00:44:13 | 49.56196 | 22.58672 | 359° | 27km/h | 27442m | 13.4m/s | 0°C | 0% | 0hPa | 0V | 00:00:00 | 00:00:00 | 00:00:00 | |
| SQ9PSP-11 | 2026-09-06 00:44:08 | 49.56239 | 22.58655 | 111° | 53km/h | 27407m | 2.2m/s | 0°C | 0% | 0hPa | 0V | 00:00:00 | 00:00:00 | 00:00:00 | |
| MIELECB | 2026-09-06 00:44:06 | 49.56242 | 22.58639 | 287° | 11km/h | 27406m | 7.1m/s | 0°C | 0% | 0hPa | 0V | 00:00:00 | 00:00:00 | 00:00:00 | |
| AKAW682 | 2026-09-06 00:44:03 | 49.56271 | 22.58644 | 159° | 68km/h | 27386m | 10.0m/s | 0°C | 0% | 0hPa | 0V | 00:00:00 | 00:00:00 | 00:00:00 | |
| MIELECB | 2026-09-06 00:44:01 | 49.56290 | 22.58616 | 108° | 29km/h | 27360m | 21.0m/s | 0°C | 0% | 0hPa | 0V | 00:00:00 | 00:00:00 | 00:00:00 | |
| MIELECB | 2026-09-06 00:43:55 | 49.56330 | 22.58593 | 118° | 49km/h | 27295m | 9.9m/s | 0°C | 0% | 0hPa | 0V | 00:00:00 | 00:00:00 | 00:00:00 | |
| SQ9PSP-11 | 2026-09-06 00:43:52 | 49.56325 | 22.58579 | 261° | 27km/h | 27278m | 4.4m/s | 0°C | 0% | 0hPa | 0V | 00:00:00 | 00:00:00 | 00:00:00 | |
| MIELECB | 2026-09-06 00:43:47 | 49.56364 | 22.58544 | 44° | 20km/h | 27265m | 10.8m/s | 0°C | 0% | 0hPa | 0V | 00:00:00 | 00:00:00 | 00:00:00 | |
| AKAW682 | 2026-09-06 00:43:42 | 49.56384 | 22.58529 | 79° | 35km/h | 27223m | 3.1m/s | 0°C | 0% | 0hPa | 0V | 00:00:00 | 00:00:00 | 00:00:00 | |
| MIELECB | 2026-09-06 00:43:41 | 49.56381 | 22.58519 | 84° | 18km/h | 27220m | 6.7m/s | 0°C | 0% | 0hPa | 0V | 00:00:00 | 00:00:00 | 00:00:00 | |
| AKAW68 | 2026-09-06 00:43:39 | 49.56381 | 22.58525 | 235° | 29km/h | 27208m | 7.6m/s | 0°C | 0% | 0hPa | 0V | 00:00:00 | 00:00:00 | 00:00:00 | |
| SQ9PSP-11 | 2026-09-06 00:43:35 | 49.56420 | 22.58507 | 113° | 49km/h | 27174m | 7.6m/s | 0°C | 0% | 0hPa | 0V | 00:00:00 | 00:00:00 | 00:00:00 | |
| MIELECB | 2026-09-06 00:43:28 | 49.56463 | 22.58474 | 109° | 44km/h | 27126m | 7.8m/s | 0°C | 0% | 0hPa | 0V | 00:00:00 | 00:00:00 | 00:00:00 | |
| AKAW682 | 2026-09-06 00:43:22 | 49.56500 | 22.58444 | 129° | 51km/h | 27087m | 1.1m/s | 0°C | 0% | 0hPa | 0V | 00:00:00 | 00:00:00 | 00:00:00 | |
| SQ9PSP-11 | 2026-09-06 00:43:18 | 49.56518 | 22.58430 | 231° | 18km/h | 27085m | -0.0m/s | 0°C | 0% | 0hPa | 0V | 00:00:00 | 00:00:00 | 00:00:00 | |
| MIELECB | 2026-09-06 00:43:14 | 49.56544 | 22.58398 | 111° | 51km/h | 27062m | 2.3m/s | 0°C | 0% | 0hPa | 0V | 00:00:00 | 00:00:00 | 00:00:00 | |
| MIELECB | 2026-09-06 00:43:07 | 49.56577 | 22.58356 | 114° | 51km/h | 27015m | 4.8m/s | 0°C | 0% | 0hPa | 0V | 00:00:00 | 00:00:00 | 00:00:00 | |
| SQ9PSP-11 | 2026-09-06 00:43:03 | 49.56584 | 22.58330 | 224° | 11km/h | 26988m | 4.6m/s | 0°C | 0% | 0hPa | 0V | 00:00:00 | 00:00:00 | 00:00:00 | |
| AKAW682 | 2026-09-06 00:43:00 | 49.56601 | 22.58307 | 130° | 44km/h | 26966m | 4.2m/s | 0°C | 0% | 0hPa | 0V | 00:00:00 | 00:00:00 | 00:00:00 | |
| MIELECB | 2026-09-06 00:42:59 | 49.56607 | 22.58296 | 138° | 33km/h | 26960m | 6.1m/s | 0°C | 0% | 0hPa | 0V | 00:00:00 | 00:00:00 | 00:00:00 | |
| MIELECB | 2026-09-06 00:42:52 | 49.56630 | 22.58249 | 148° | 24km/h | 26919m | 5.7m/s | 0°C | 0% | 0hPa | 0V | 00:00:00 | 00:00:00 | 00:00:00 | |
| SQ9PSP-11 | 2026-09-06 00:42:47 | 49.56642 | 22.58225 | 109° | 37km/h | 26893m | 4.0m/s | 0°C | 0% | 0hPa | 0V | 00:00:00 | 00:00:00 | 00:00:00 | |
| MIELECB | 2026-09-06 00:42:46 | 49.56645 | 22.58212 | 118° | 31km/h | 26889m | 4.0m/s | 0°C | 0% | 0hPa | 0V | 00:00:00 | 00:00:00 | 00:00:00 | |
| MIELECB | 2026-09-06 00:42:41 | 49.56662 | 22.58196 | 114° | 29km/h | 26860m | 6.3m/s | 0°C | 0% | 0hPa | 0V | 00:00:00 | 00:00:00 | 00:00:00 | |
| AKAW682 | 2026-09-06 00:42:40 | 49.56664 | 22.58184 | 92° | 40km/h | 26853m | 4.9m/s | 0°C | 0% | 0hPa | 0V | 00:00:00 | 00:00:00 | 00:00:00 | |
| MIELECB | 2026-09-06 00:42:37 | 49.56673 | 22.58160 | 195° | 18km/h | 26824m | 4.3m/s | 0°C | 0% | 0hPa | 0V | 00:00:00 | 00:00:00 | 00:00:00 | |
| SQ9PSP-11 | 2026-09-06 00:42:32 | 49.56680 | 22.58126 | 58° | 27km/h | 26799m | 5.4m/s | 0°C | 0% | 0hPa | 0V | 00:00:00 | 00:00:00 | 00:00:00 | |
| MIELECB | 2026-09-06 00:42:30 | 49.56678 | 22.58116 | 175° | 15km/h | 26787m | 1.4m/s | 0°C | 0% | 0hPa | 0V | 00:00:00 | 00:00:00 | 00:00:00 | |
| GYPAP8-17 | 2026-09-06 00:42:26 | 49.56697 | 22.58085 | 84° | 26km/h | 26775m | 4.9m/s | 0°C | 0% | 0hPa | 0V | 00:00:00 | 00:00:00 | 00:00:00 | |
| MIELECB | 2026-09-06 00:42:24 | 49.56693 | 22.58079 | 292° | 22km/h | 26762m | 4.5m/s | 0°C | 0% | 0hPa | 0V | 00:00:00 | 00:00:00 | 00:00:00 | |
| AKAW68 | 2026-09-06 00:42:23 | 49.56692 | 22.58083 | 250° | 13km/h | 26761m | 0.3m/s | 0°C | 0% | 0hPa | 0V | 00:00:00 | 00:00:00 | 00:00:00 | |
| AKAW682 | 2026-09-06 00:42:20 | 49.56705 | 22.58063 | 121° | 55km/h | 26745m | 1.7m/s | 0°C | 0% | 0hPa | 0V | 00:00:00 | 00:00:00 | 00:00:00 | |
| MIELECB | 2026-09-06 00:42:19 | 49.56710 | 22.58047 | 106° | 33km/h | 26744m | 2.9m/s | 0°C | 0% | 0hPa | 0V | 00:00:00 | 00:00:00 | 00:00:00 | |
| SQ9PSP-11 | 2026-09-06 00:42:16 | 49.56714 | 22.58045 | 250° | 33km/h | 26719m | 6.5m/s | 0°C | 0% | 0hPa | 0V | 00:00:00 | 00:00:00 | 00:00:00 | |
| MIELECB | 2026-09-06 00:42:12 | 49.56732 | 22.58029 | 96° | 44km/h | 26696m | 3.6m/s | 0°C | 0% | 0hPa | 0V | 00:00:00 | 00:00:00 | 00:00:00 | |
| MIELECB | 2026-09-06 00:42:05 | 49.56765 | 22.57989 | 108° | 35km/h | 26655m | 5.2m/s | 0°C | 0% | 0hPa | 0V | 00:00:00 | 00:00:00 | 00:00:00 | |
| MIELECB | 2026-09-06 00:42:00 | 49.56789 | 22.57980 | 153° | 47km/h | 26626m | 7.7m/s | 0°C | 0% | 0hPa | 0V | 00:00:00 | 00:00:00 | 00:00:00 | |
| MIELECB | 2026-09-06 00:41:54 | 49.56818 | 22.57942 | 157° | 26km/h | 26586m | 4.3m/s | 0°C | 0% | 0hPa | 0V | 00:00:00 | 00:00:00 | 00:00:00 | |
| MIELECB | 2026-09-06 00:41:48 | 49.56866 | 22.57895 | 149° | 31km/h | 26554m | 3.7m/s | 0°C | 0% | 0hPa | 0V | 00:00:00 | 00:00:00 | 00:00:00 | |
| SQ9PSP-11 | 2026-09-06 00:41:44 | 49.56896 | 22.57859 | 161° | 40km/h | 26530m | 5.8m/s | 0°C | 0% | 0hPa | 0V | 00:00:00 | 00:00:00 | 00:00:00 | |
| MIELECB | 2026-09-06 00:41:43 | 49.56904 | 22.57857 | 184° | 24km/h | 26524m | 5.8m/s | 0°C | 0% | 0hPa | 0V | 00:00:00 | 00:00:00 | 00:00:00 | |
| AKAW682 | 2026-09-06 00:41:39 | 49.56924 | 22.57825 | 130° | 51km/h | 26502m | 6.6m/s | 0°C | 0% | 0hPa | 0V | 00:00:00 | 00:00:00 | 00:00:00 | |
| MIELECB | 2026-09-06 00:41:38 | 49.56935 | 22.57812 | 154° | 47km/h | 26495m | 2.0m/s | 0°C | 0% | 0hPa | 0V | 00:00:00 | 00:00:00 | 00:00:00 | |
| MIELECB | 2026-09-06 00:41:31 | 49.56982 | 22.57764 | 130° | 57km/h | 26468m | 2.1m/s | 0°C | 0% | 0hPa | 0V | 00:00:00 | 00:00:00 | 00:00:00 | |
| MIELECB | 2026-09-06 00:41:25 | 49.57017 | 22.57722 | 123° | 46km/h | 26430m | 8.6m/s | 0°C | 0% | 0hPa | 0V | 00:00:00 | 00:00:00 | 00:00:00 | |
| MIELECB | 2026-09-06 00:41:20 | 49.57048 | 22.57669 | 188° | 18km/h | 26399m | 2.9m/s | 0°C | 0% | 0hPa | 0V | 00:00:00 | 00:00:00 | 00:00:00 | |
| AKAW682 | 2026-09-06 00:41:16 | 49.57073 | 22.57628 | 122° | 44km/h | 26383m | 4.2m/s | 0°C | 0% | 0hPa | 0V | 00:00:00 | 00:00:00 | 00:00:00 | |
| MIELECB | 2026-09-06 00:41:14 | 49.57083 | 22.57612 | 168° | 13km/h | 26368m | 6.1m/s | 0°C | 0% | 0hPa | 0V | 00:00:00 | 00:00:00 | 00:00:00 | |
| SQ9PSP-11 | 2026-09-06 00:41:13 | 49.57086 | 22.57611 | 179° | 18km/h | 26362m | 4.8m/s | 0°C | 0% | 0hPa | 0V | 00:00:00 | 00:00:00 | 00:00:00 | |
| MIELECB | 2026-09-06 00:41:09 | 49.57103 | 22.57572 | 96° | 31km/h | 26347m | 4.1m/s | 0°C | 0% | 0hPa | 0V | 00:00:00 | 00:00:00 | 00:00:00 | |
| MIELECB | 2026-09-06 00:41:03 | 49.57123 | 22.57538 | 101° | 29km/h | 26311m | 4.2m/s | 0°C | 0% | 0hPa | 0V | 00:00:00 | 00:00:00 | 00:00:00 | |
| GYPAP8-17 | 2026-09-06 00:41:02 | 49.57125 | 22.57528 | 102° | 16km/h | 26307m | 5.8m/s | 0°C | 0% | 0hPa | 0V | 00:00:00 | 00:00:00 | 00:00:00 | |
| SQ9PSP-11 | 2026-09-06 00:40:57 | 49.57138 | 22.57503 | 117° | 29km/h | 26283m | 3.4m/s | 0°C | 0% | 0hPa | 0V | 00:00:00 | 00:00:00 | 00:00:00 | |
| AKAW682 | 2026-09-06 00:40:53 | 49.57140 | 22.57484 | 117° | 13km/h | 26266m | 6.5m/s | 0°C | 0% | 0hPa | 0V | 00:00:00 | 00:00:00 | 00:00:00 | |
| MIELECB | 2026-09-06 00:40:50 | 49.57151 | 22.57457 | 135° | 11km/h | 26247m | 8.3m/s | 0°C | 0% | 0hPa | 0V | 00:00:00 | 00:00:00 | 00:00:00 | |
| MIELECB | 2026-09-06 00:40:44 | 49.57154 | 22.57429 | 128° | 29km/h | 26202m | 6.0m/s | 0°C | 0% | 0hPa | 0V | 00:00:00 | 00:00:00 | 00:00:00 | |
| SQ9PSP-11 | 2026-09-06 00:40:41 | 49.57160 | 22.57424 | 315° | 11km/h | 26186m | 2.9m/s | 0°C | 0% | 0hPa | 0V | 00:00:00 | 00:00:00 | 00:00:00 | |
| MIELECB | 2026-09-06 00:40:39 | 49.57155 | 22.57418 | 73° | 18km/h | 26179m | 7.4m/s | 0°C | 0% | 0hPa | 0V | 00:00:00 | 00:00:00 | 00:00:00 | |
| MIELECB | 2026-09-06 00:40:34 | 49.57175 | 22.57403 | 269° | 9km/h | 26148m | 2.6m/s | 0°C | 0% | 0hPa | 0V | 00:00:00 | 00:00:00 | 00:00:00 | |
| AKAW682 | 2026-09-06 00:40:33 | 49.57173 | 22.57403 | 72° | 4km/h | 26144m | 7.0m/s | 0°C | 0% | 0hPa | 0V | 00:00:00 | 00:00:00 | 00:00:00 | |
| MIELECB | 2026-09-06 00:40:29 | 49.57192 | 22.57385 | 193° | 20km/h | 26115m | 8.6m/s | 0°C | 0% | 0hPa | 0V | 00:00:00 | 00:00:00 | 00:00:00 | |
| SQ9PSP-11 | 2026-09-06 00:40:26 | 49.57201 | 22.57395 | 140° | 13km/h | 26100m | 5.2m/s | 0°C | 0% | 0hPa | 0V | 00:00:00 | 00:00:00 | 00:00:00 | |
| MIELECB | 2026-09-06 00:40:23 | 49.57218 | 22.57369 | 136° | 38km/h | 26084m | 3.0m/s | 0°C | 0% | 0hPa | 0V | 00:00:00 | 00:00:00 | 00:00:00 | |
| MIELECB | 2026-09-06 00:40:17 | 49.57245 | 22.57342 | 131° | 38km/h | 26051m | 4.8m/s | 0°C | 0% | 0hPa | 0V | 00:00:00 | 00:00:00 | 00:00:00 | |
| MIELECB | 2026-09-06 00:40:11 | 49.57270 | 22.57320 | 144° | 35km/h | 26020m | 8.1m/s | 0°C | 0% | 0hPa | 0V | 00:00:00 | 00:00:00 | 00:00:00 | |
| SQ9PSP-11 | 2026-09-06 00:40:09 | 49.57283 | 22.57305 | 153° | 24km/h | 26011m | 5.5m/s | 0°C | 0% | 0hPa | 0V | 00:00:00 | 00:00:00 | 00:00:00 | |
| MIELECB | 2026-09-06 00:40:06 | 49.57292 | 22.57302 | 106° | 7km/h | 25994m | 4.3m/s | 0°C | 0% | 0hPa | 0V | 00:00:00 | 00:00:00 | 00:00:00 | |
| MIELECB | 2026-09-06 00:39:55 | 49.57341 | 22.57222 | 165° | 29km/h | 25928m | 10.1m/s | 0°C | 0% | 0hPa | 0V | 00:00:00 | 00:00:00 | 00:00:00 | |
| SQ9PSP-11 | 2026-09-06 00:39:51 | 49.57352 | 22.57198 | 138° | 38km/h | 25906m | 7.9m/s | 0°C | 0% | 0hPa | 0V | 00:00:00 | 00:00:00 | 00:00:00 | |
| AKAW682 | 2026-09-06 00:39:50 | 49.57362 | 22.57183 | 140° | 58km/h | 25899m | 5.7m/s | 0°C | 0% | 0hPa | 0V | 00:00:00 | 00:00:00 | 00:00:00 | |
| MIELECB | 2026-09-06 00:39:49 | 49.57372 | 22.57169 | 143° | 44km/h | 25893m | 7.4m/s | 0°C | 0% | 0hPa | 0V | 00:00:00 | 00:00:00 | 00:00:00 | |
| GYPAP8-17 | 2026-09-06 00:39:45 | 49.57387 | 22.57145 | 87° | 31km/h | 25871m | 6.5m/s | 0°C | 0% | 0hPa | 0V | 00:00:00 | 00:00:00 | 00:00:00 | |
| MIELECB | 2026-09-06 00:39:42 | 49.57405 | 22.57097 | 144° | 44km/h | 25856m | 5.8m/s | 0°C | 0% | 0hPa | 0V | 00:00:00 | 00:00:00 | 00:00:00 | |
| SQ9PSP-11 | 2026-09-06 00:39:36 | 49.57433 | 22.57027 | 125° | 58km/h | 25828m | 3.2m/s | 0°C | 0% | 0hPa | 0V | 00:00:00 | 00:00:00 | 00:00:00 | |
| MIELECB | 2026-09-06 00:39:35 | 49.57442 | 22.57012 | 137° | 42km/h | 25823m | 9.8m/s | 0°C | 0% | 0hPa | 0V | 00:00:00 | 00:00:00 | 00:00:00 | |
| AKAW682 | 2026-09-06 00:39:29 | 49.57463 | 22.56933 | 117° | 58km/h | 25785m | 3.7m/s | 0°C | 0% | 0hPa | 0V | 00:00:00 | 00:00:00 | 00:00:00 | |
| MIELECB | 2026-09-06 00:39:23 | 49.57471 | 22.56868 | 102° | 46km/h | 25746m | 6.5m/s | 0°C | 0% | 0hPa | 0V | 00:00:00 | 00:00:00 | 00:00:00 | |
| SQ9PSP-11 | 2026-09-06 00:39:20 | 49.57491 | 22.56808 | 123° | 42km/h | 25738m | 6.4m/s | 0°C | 0% | 0hPa | 0V | 00:00:00 | 00:00:00 | 00:00:00 | |
| MIELECB | 2026-09-06 00:39:18 | 49.57495 | 22.56777 | 53° | 26km/h | 25720m | 3.7m/s | 0°C | 0% | 0hPa | 0V | 00:00:00 | 00:00:00 | 00:00:00 | |
| MIELECB | 2026-09-06 00:39:12 | 49.57512 | 22.56691 | 138° | 27km/h | 25700m | 8.2m/s | 0°C | 0% | 0hPa | 0V | 00:00:00 | 00:00:00 | 00:00:00 | |
| AKAW682 | 2026-09-06 00:39:08 | 49.57509 | 22.56653 | 94° | 53km/h | 25677m | 7.4m/s | 0°C | 0% | 0hPa | 0V | 00:00:00 | 00:00:00 | 00:00:00 | |
| MIELECB | 2026-09-06 00:39:06 | 49.57515 | 22.56618 | 120° | 33km/h | 25663m | 9.4m/s | 0°C | 0% | 0hPa | 0V | 00:00:00 | 00:00:00 | 00:00:00 | |
| SQ9PSP-11 | 2026-09-06 00:39:04 | 49.57517 | 22.56600 | 48° | 16km/h | 25646m | 3.2m/s | 0°C | 0% | 0hPa | 0V | 00:00:00 | 00:00:00 | 00:00:00 | |
| MIELECB | 2026-09-06 00:39:00 | 49.57509 | 22.56548 | 103° | 60km/h | 25626m | 2.9m/s | 0°C | 0% | 0hPa | 0V | 00:00:00 | 00:00:00 | 00:00:00 | |
| MIELECB | 2026-09-06 00:38:55 | 49.57501 | 22.56511 | 46° | 27km/h | 25600m | 3.8m/s | 0°C | 0% | 0hPa | 0V | 00:00:00 | 00:00:00 | 00:00:00 | |
| MIELECB | 2026-09-06 00:38:49 | 49.57492 | 22.56440 | 21° | 37km/h | 25562m | 5.9m/s | 0°C | 0% | 0hPa | 0V | 00:00:00 | 00:00:00 | 00:00:00 | |
| SQ9PSP-11 | 2026-09-06 00:38:48 | 49.57485 | 22.56433 | 36° | 35km/h | 25556m | 4.1m/s | 0°C | 0% | 0hPa | 0V | 00:00:00 | 00:00:00 | 00:00:00 | |
| AKAW682 | 2026-09-06 00:38:47 | 49.57479 | 22.56426 | 60° | 33km/h | 25552m | 5.8m/s | 0°C | 0% | 0hPa | 0V | 00:00:00 | 00:00:00 | 00:00:00 | |
| MIELECB | 2026-09-06 00:38:43 | 49.57475 | 22.56390 | 29° | 35km/h | 25529m | 4.7m/s | 0°C | 0% | 0hPa | 0V | 00:00:00 | 00:00:00 | 00:00:00 | |
| GYPAP8-17 | 2026-09-06 00:38:40 | 49.57458 | 22.56356 | 81° | 46km/h | 25515m | 7.1m/s | 0°C | 0% | 0hPa | 0V | 00:00:00 | 00:00:00 | 00:00:00 | |
| MIELECB | 2026-09-06 00:38:37 | 49.57453 | 22.56336 | 352° | 26km/h | 25493m | 7.6m/s | 0°C | 0% | 0hPa | 0V | 00:00:00 | 00:00:00 | 00:00:00 | |
| MIELECB | 2026-09-06 00:38:32 | 49.57423 | 22.56295 | 68° | 33km/h | 25472m | 1.8m/s | 0°C | 0% | 0hPa | 0V | 00:00:00 | 00:00:00 | 00:00:00 | |
| MIELECB | 2026-09-06 00:38:27 | 49.57392 | 22.56281 | 61° | 26km/h | 25455m | 7.3m/s | 0°C | 0% | 0hPa | 0V | 00:00:00 | 00:00:00 | 00:00:00 | |
| AKAW682 | 2026-09-06 00:38:26 | 49.57390 | 22.56270 | 89° | 35km/h | 25449m | 4.3m/s | 0°C | 0% | 0hPa | 0V | 00:00:00 | 00:00:00 | 00:00:00 | |
| MIELECB | 2026-09-06 00:38:15 | 49.57342 | 22.56231 | 332° | 29km/h | 25376m | 4.7m/s | 0°C | 0% | 0hPa | 0V | 00:00:00 | 00:00:00 | 00:00:00 | |
| MIELECB | 2026-09-06 00:38:09 | 49.57318 | 22.56223 | 350° | 29km/h | 25341m | 4.3m/s | 0°C | 0% | 0hPa | 0V | 00:00:00 | 00:00:00 | 00:00:00 | |
| AKAW682 | 2026-09-06 00:38:06 | 49.57305 | 22.56219 | 87° | 22km/h | 25324m | 5.0m/s | 0°C | 0% | 0hPa | 0V | 00:00:00 | 00:00:00 | 00:00:00 | |
| MIELECB | 2026-09-06 00:38:04 | 49.57298 | 22.56203 | 33° | 26km/h | 25314m | 6.3m/s | 0°C | 0% | 0hPa | 0V | 00:00:00 | 00:00:00 | 00:00:00 | |
| SQ9PSP-11 | 2026-09-06 00:38:00 | 49.57271 | 22.56197 | 42° | 9km/h | 25291m | 6.6m/s | 0°C | 0% | 0hPa | 0V | 00:00:00 | 00:00:00 | 00:00:00 | |
| MIELECB | 2026-09-06 00:37:58 | 49.57270 | 22.56191 | 50° | 5km/h | 25281m | 5.9m/s | 0°C | 0% | 0hPa | 0V | 00:00:00 | 00:00:00 | 00:00:00 | |
| MIELECB | 2026-09-06 00:37:53 | 49.57245 | 22.56170 | 60° | 18km/h | 25246m | 5.2m/s | 0°C | 0% | 0hPa | 0V | 00:00:00 | 00:00:00 | 00:00:00 | |
| AKAW682 | 2026-09-06 00:37:46 | 49.57230 | 22.56149 | 85° | 27km/h | 25206m | 3.3m/s | 0°C | 0% | 0hPa | 0V | 00:00:00 | 00:00:00 | 00:00:00 | |
| SQ9PSP-11 | 2026-09-06 00:37:45 | 49.57229 | 22.56142 | 54° | 13km/h | 25201m | 6.9m/s | 0°C | 0% | 0hPa | 0V | 00:00:00 | 00:00:00 | 00:00:00 | |
| MIELECB | 2026-09-06 00:37:39 | 49.57214 | 22.56135 | 94° | 60km/h | 25181m | 1.3m/s | 0°C | 0% | 0hPa | 0V | 00:00:00 | 00:00:00 | 00:00:00 | |
| MIELECB | 2026-09-06 00:37:33 | 49.57215 | 22.56111 | 84° | 15km/h | 25153m | 6.8m/s | 0°C | 0% | 0hPa | 0V | 00:00:00 | 00:00:00 | 00:00:00 | |
| SQ9PSP-11 | 2026-09-06 00:37:28 | 49.57200 | 22.56081 | 222° | 9km/h | 25117m | 5.6m/s | 0°C | 0% | 0hPa | 0V | 00:00:00 | 00:00:00 | 00:00:00 | |
| MIELECB | 2026-09-06 00:37:27 | 49.57203 | 22.56084 | 193° | 20km/h | 25112m | 4.9m/s | 0°C | 0% | 0hPa | 0V | 00:00:00 | 00:00:00 | 00:00:00 | |
| AKAW682 | 2026-09-06 00:37:25 | 49.57206 | 22.56072 | 79° | 31km/h | 25097m | 6.1m/s | 0°C | 0% | 0hPa | 0V | 00:00:00 | 00:00:00 | 00:00:00 | |
| MIELECB | 2026-09-06 00:37:21 | 49.57190 | 22.56058 | 118° | 4km/h | 25079m | 2.6m/s | 0°C | 0% | 0hPa | 0V | 00:00:00 | 00:00:00 | 00:00:00 | |
| MIELECB | 2026-09-06 00:37:15 | 49.57195 | 22.56024 | 357° | 11km/h | 25047m | 2.6m/s | 0°C | 0% | 0hPa | 0V | 00:00:00 | 00:00:00 | 00:00:00 | |
| SQ9PSP-11 | 2026-09-06 00:37:13 | 49.57194 | 22.56016 | 96° | 20km/h | 25037m | 6.6m/s | 0°C | 0% | 0hPa | 0V | 00:00:00 | 00:00:00 | 00:00:00 | |
| GYPAP8-17 | 2026-09-06 00:37:11 | 49.57202 | 22.55992 | 131° | 37km/h | 25026m | 2.5m/s | 0°C | 0% | 0hPa | 0V | 00:00:00 | 00:00:00 | 00:00:00 | |
| MIELECB | 2026-09-06 00:37:09 | 49.57210 | 22.55980 | 0° | 0km/h | 25018m | 8.1m/s | 0°C | 0% | 0hPa | 0V | 00:00:00 | 00:00:00 | 00:00:00 | |
| AKAW682 | 2026-09-06 00:37:05 | 49.57197 | 22.55951 | 120° | 37km/h | 24996m | 1.8m/s | 0°C | 0% | 0hPa | 0V | 00:00:00 | 00:00:00 | 00:00:00 | |
| MIELECB | 2026-09-06 00:37:04 | 49.57204 | 22.55941 | 153° | 38km/h | 24995m | 4.2m/s | 0°C | 0% | 0hPa | 0V | 00:00:00 | 00:00:00 | 00:00:00 | |
| MIELECB | 2026-09-06 00:36:57 | 49.57205 | 22.55892 | 167° | 24km/h | 24965m | 5.7m/s | 0°C | 0% | 0hPa | 0V | 00:00:00 | 00:00:00 | 00:00:00 | |
| MIELECB | 2026-09-06 00:36:50 | 49.57198 | 22.55855 | 171° | 20km/h | 24927m | 4.3m/s | 0°C | 0% | 0hPa | 0V | 00:00:00 | 00:00:00 | 00:00:00 | |
| AKAW682 | 2026-09-06 00:36:45 | 49.57177 | 22.55816 | 103° | 46km/h | 24901m | 7.0m/s | 0°C | 0% | 0hPa | 0V | 00:00:00 | 00:00:00 | 00:00:00 | |
| MIELECB | 2026-09-06 00:36:44 | 49.57182 | 22.55803 | 135° | 31km/h | 24895m | 6.8m/s | 0°C | 0% | 0hPa | 0V | 00:00:00 | 00:00:00 | 00:00:00 | |
| SQ9PSP-11 | 2026-09-06 00:36:41 | 49.57176 | 22.55798 | 11° | 38km/h | 24874m | 3.6m/s | 0°C | 0% | 0hPa | 0V | 00:00:00 | 00:00:00 | 00:00:00 | |
| MIELECB | 2026-09-06 00:36:37 | 49.57165 | 22.55758 | 115° | 9km/h | 24853m | 5.8m/s | 0°C | 0% | 0hPa | 0V | 00:00:00 | 00:00:00 | 00:00:00 | |
| MIELECB | 2026-09-06 00:36:31 | 49.57136 | 22.55714 | 117° | 27km/h | 24811m | 5.7m/s | 0°C | 0% | 0hPa | 0V | 00:00:00 | 00:00:00 | 00:00:00 | |
| SQ9PSP-11 | 2026-09-06 00:36:25 | 49.57106 | 22.55686 | 76° | 35km/h | 24779m | 4.7m/s | 0°C | 0% | 0hPa | 0V | 00:00:00 | 00:00:00 | 00:00:00 | |
| AKAW682 | 2026-09-06 00:36:24 | 49.57105 | 22.55675 | 105° | 16km/h | 24776m | 4.5m/s | 0°C | 0% | 0hPa | 0V | 00:00:00 | 00:00:00 | 00:00:00 | |
| MIELECB | 2026-09-06 00:36:17 | 49.57081 | 22.55645 | 110° | 13km/h | 24742m | 4.1m/s | 0°C | 0% | 0hPa | 0V | 00:00:00 | 00:00:00 | 00:00:00 | |
| SQ9PSP-11 | 2026-09-06 00:36:10 | 49.57060 | 22.55608 | 93° | 13km/h | 24698m | 6.7m/s | 0°C | 0% | 0hPa | 0V | 00:00:00 | 00:00:00 | 00:00:00 | |
| MIELECB | 2026-09-06 00:36:04 | 49.57035 | 22.55586 | 115° | 33km/h | 24656m | 3.5m/s | 0°C | 0% | 0hPa | 0V | 00:00:00 | 00:00:00 | 00:00:00 | |
| AKAW682 | 2026-09-06 00:36:00 | 49.57031 | 22.55578 | 349° | 37km/h | 24634m | 1.7m/s | 0°C | 0% | 0hPa | 0V | 00:00:00 | 00:00:00 | 00:00:00 | |
| MIELECB | 2026-09-06 00:35:57 | 49.57018 | 22.55569 | 119° | 22km/h | 24622m | 6.5m/s | 0°C | 0% | 0hPa | 0V | 00:00:00 | 00:00:00 | 00:00:00 | |
| SQ9PSP-11 | 2026-09-06 00:35:54 | 49.57021 | 22.55557 | 345° | 9km/h | 24605m | 5.9m/s | 0°C | 0% | 0hPa | 0V | 00:00:00 | 00:00:00 | 00:00:00 | |
| MIELECB | 2026-09-06 00:35:51 | 49.57016 | 22.55557 | 126° | 13km/h | 24588m | 5.6m/s | 0°C | 0% | 0hPa | 0V | 00:00:00 | 00:00:00 | 00:00:00 | |
| MIELECB | 2026-09-06 00:35:45 | 49.57025 | 22.55552 | 135° | 20km/h | 24552m | 4.8m/s | 0°C | 0% | 0hPa | 0V | 00:00:00 | 00:00:00 | 00:00:00 | |
| MIELECB | 2026-09-06 00:35:40 | 49.57016 | 22.55541 | 352° | 4km/h | 24526m | 3.5m/s | 0°C | 0% | 0hPa | 0V | 00:00:00 | 00:00:00 | 00:00:00 | |
| SQ9PSP-11 | 2026-09-06 00:35:38 | 49.57021 | 22.55533 | 138° | 33km/h | 24516m | 5.1m/s | 0°C | 0% | 0hPa | 0V | 00:00:00 | 00:00:00 | 00:00:00 | |
| MIELECB | 2026-09-06 00:35:34 | 49.57018 | 22.55522 | 331° | 24km/h | 24494m | 1.3m/s | 0°C | 0% | 0hPa | 0V | 00:00:00 | 00:00:00 | 00:00:00 | |
| MIELECB | 2026-09-06 00:35:29 | 49.57020 | 22.55513 | 77° | 4km/h | 24472m | 7.1m/s | 0°C | 0% | 0hPa | 0V | 00:00:00 | 00:00:00 | 00:00:00 | |
| MIELECB | 2026-09-06 00:35:23 | 49.57021 | 22.55519 | 138° | 5km/h | 24438m | 5.5m/s | 0°C | 0% | 0hPa | 0V | 00:00:00 | 00:00:00 | 00:00:00 | |
| SQ9PSP-11 | 2026-09-06 00:35:21 | 49.57017 | 22.55520 | 331° | 20km/h | 24426m | 4.7m/s | 0°C | 0% | 0hPa | 0V | 00:00:00 | 00:00:00 | 00:00:00 | |
| AKAW682 | 2026-09-06 00:35:19 | 49.57013 | 22.55524 | 160° | 4km/h | 24414m | 6.9m/s | 0°C | 0% | 0hPa | 0V | 00:00:00 | 00:00:00 | 00:00:00 | |
| MIELECB | 2026-09-06 00:35:17 | 49.57018 | 22.55523 | 178° | 11km/h | 24403m | 4.6m/s | 0°C | 0% | 0hPa | 0V | 00:00:00 | 00:00:00 | 00:00:00 | |
| MIELECB | 2026-09-06 00:35:10 | 49.57018 | 22.55518 | 100° | 7km/h | 24368m | 6.1m/s | 0°C | 0% | 0hPa | 0V | 00:00:00 | 00:00:00 | 00:00:00 | |
| SQ9PSP-11 | 2026-09-06 00:35:05 | 49.57019 | 22.55517 | 131° | 27km/h | 24337m | 4.5m/s | 0°C | 0% | 0hPa | 0V | 00:00:00 | 00:00:00 | 00:00:00 | |
| MIELECB | 2026-09-06 00:35:04 | 49.57021 | 22.55509 | 101° | 18km/h | 24333m | 4.2m/s | 0°C | 0% | 0hPa | 0V | 00:00:00 | 00:00:00 | 00:00:00 | |
| AKAW682 | 2026-09-06 00:34:58 | 49.57022 | 22.55492 | 117° | 27km/h | 24300m | 2.3m/s | 0°C | 0% | 0hPa | 0V | 00:00:00 | 00:00:00 | 00:00:00 | |
| MIELECB | 2026-09-06 00:34:57 | 49.57023 | 22.55482 | 92° | 26km/h | 24297m | 5.7m/s | 0°C | 0% | 0hPa | 0V | 00:00:00 | 00:00:00 | 00:00:00 | |
| SQ9PSP-11 | 2026-09-06 00:34:50 | 49.57030 | 22.55439 | 60° | 16km/h | 24252m | 7.5m/s | 0°C | 0% | 0hPa | 0V | 00:00:00 | 00:00:00 | 00:00:00 | |
| MIELECB | 2026-09-06 00:34:44 | 49.57032 | 22.55410 | 157° | 31km/h | 24222m | 4.7m/s | 0°C | 0% | 0hPa | 0V | 00:00:00 | 00:00:00 | 00:00:00 | |
| MIELECB | 2026-09-06 00:34:39 | 49.57034 | 22.55375 | 101° | 26km/h | 24197m | 3.8m/s | 0°C | 0% | 0hPa | 0V | 00:00:00 | 00:00:00 | 00:00:00 | |
| AKAW682 | 2026-09-06 00:34:37 | 49.57038 | 22.55364 | 187° | 13km/h | 24185m | 5.9m/s | 0°C | 0% | 0hPa | 0V | 00:00:00 | 00:00:00 | 00:00:00 | |
| MIELECB | 2026-09-06 00:34:33 | 49.57050 | 22.55334 | 77° | 37km/h | 24165m | 3.7m/s | 0°C | 0% | 0hPa | 0V | 00:00:00 | 00:00:00 | 00:00:00 | |
| MIELECB | 2026-09-06 00:34:27 | 49.57047 | 22.55299 | 93° | 38km/h | 24129m | 2.2m/s | 0°C | 0% | 0hPa | 0V | 00:00:00 | 00:00:00 | 00:00:00 | |
| MIELECB | 2026-09-06 00:34:22 | 49.57030 | 22.55281 | 213° | 18km/h | 24105m | 5.5m/s | 0°C | 0% | 0hPa | 0V | 00:00:00 | 00:00:00 | 00:00:00 | |
| SQ9PSP-11 | 2026-09-06 00:34:18 | 49.57027 | 22.55249 | 7° | 37km/h | 24086m | 5.9m/s | 0°C | 0% | 0hPa | 0V | 00:00:00 | 00:00:00 | 00:00:00 | |
| AKAW682 | 2026-09-06 00:34:16 | 49.57016 | 22.55258 | 270° | 18km/h | 24078m | 3.7m/s | 0°C | 0% | 0hPa | 0V | 00:00:00 | 00:00:00 | 00:00:00 | |
| MIELECB | 2026-09-06 00:34:10 | 49.57010 | 22.55239 | 310° | 31km/h | 24048m | 3.0m/s | 0°C | 0% | 0hPa | 0V | 00:00:00 | 00:00:00 | 00:00:00 | |
| GYPAP8-17 | 2026-09-06 00:34:05 | 49.57008 | 22.55231 | 49° | 22km/h | 24024m | 2.6m/s | 0°C | 0% | 0hPa | 0V | 00:00:00 | 00:00:00 | 00:00:00 | |
| SQ9PSP-11 | 2026-09-06 00:34:03 | 49.56999 | 22.55232 | 299° | 29km/h | 24014m | 4.2m/s | 0°C | 0% | 0hPa | 0V | 00:00:00 | 00:00:00 | 00:00:00 | |
| MIELECB | 2026-09-06 00:33:59 | 49.56996 | 22.55246 | 96° | 13km/h | 23991m | 5.4m/s | 0°C | 0% | 0hPa | 0V | 00:00:00 | 00:00:00 | 00:00:00 | |
| AKAW682 | 2026-09-06 00:33:58 | 49.56989 | 22.55244 | 313° | 18km/h | 23972m | 5.0m/s | 0°C | 0% | 0hPa | 0V | 00:00:00 | 00:00:00 | 00:00:00 | |
| MIELECB | 2026-09-06 00:33:52 | 49.56989 | 22.55251 | 202° | 7km/h | 23948m | 5.2m/s | 0°C | 0% | 0hPa | 0V | 00:00:00 | 00:00:00 | 00:00:00 | |
| SQ9PSP-11 | 2026-09-06 00:33:48 | 49.56988 | 22.55270 | 302° | 4km/h | 23926m | 5.8m/s | 0°C | 0% | 0hPa | 0V | 00:00:00 | 00:00:00 | 00:00:00 | |
| MIELECB | 2026-09-06 00:33:46 | 49.56992 | 22.55264 | 134° | 16km/h | 23915m | 2.7m/s | 0°C | 0% | 0hPa | 0V | 00:00:00 | 00:00:00 | 00:00:00 | |
| MIELECB | 2026-09-06 00:33:39 | 49.56989 | 22.55275 | 121° | 20km/h | 23882m | 3.0m/s | 0°C | 0% | 0hPa | 0V | 00:00:00 | 00:00:00 | 00:00:00 | |
| AKAW682 | 2026-09-06 00:33:35 | 49.56990 | 22.55287 | 269° | 18km/h | 23865m | 4.4m/s | 0°C | 0% | 0hPa | 0V | 00:00:00 | 00:00:00 | 00:00:00 | |
| MIELECB | 2026-09-06 00:33:33 | 49.56993 | 22.55290 | 115° | 15km/h | 23853m | 6.1m/s | 0°C | 0% | 0hPa | 0V | 00:00:00 | 00:00:00 | 00:00:00 | |
| SQ9PSP-11 | 2026-09-06 00:33:32 | 49.56993 | 22.55285 | 89° | 13km/h | 23847m | 6.1m/s | 0°C | 0% | 0hPa | 0V | 00:00:00 | 00:00:00 | 00:00:00 | |
| MIELECB | 2026-09-06 00:33:27 | 49.56992 | 22.55284 | 173° | 13km/h | 23819m | 4.7m/s | 0°C | 0% | 0hPa | 0V | 00:00:00 | 00:00:00 | 00:00:00 | |
| MIELECB | 2026-09-06 00:33:20 | 49.56996 | 22.55277 | 158° | 20km/h | 23782m | 4.5m/s | 0°C | 0% | 0hPa | 0V | 00:00:00 | 00:00:00 | 00:00:00 | |
| AKAW682 | 2026-09-06 00:33:15 | 49.56986 | 22.55276 | 83° | 26km/h | 23754m | 7.0m/s | 0°C | 0% | 0hPa | 0V | 00:00:00 | 00:00:00 | 00:00:00 | |
| MIELECB | 2026-09-06 00:33:09 | 49.56995 | 22.55271 | 61° | 26km/h | 23723m | 8.0m/s | 0°C | 0% | 0hPa | 0V | 00:00:00 | 00:00:00 | 00:00:00 | |
| MIELECB | 2026-09-06 00:33:03 | 49.57001 | 22.55256 | 28° | 18km/h | 23698m | 3.4m/s | 0°C | 0% | 0hPa | 0V | 00:00:00 | 00:00:00 | 00:00:00 | |
| SQ9PSP-11 | 2026-09-06 00:32:57 | 49.57019 | 22.55223 | 325° | 26km/h | 23659m | 5.5m/s | 0°C | 0% | 0hPa | 0V | 00:00:00 | 00:00:00 | 00:00:00 | |
| GYPAP8-17 | 2026-09-06 00:32:56 | 49.57011 | 22.55225 | 22° | 29km/h | 23655m | 2.2m/s | 0°C | 0% | 0hPa | 0V | 00:00:00 | 00:00:00 | 00:00:00 | |
| AKAW682 | 2026-09-06 00:32:55 | 49.57006 | 22.55203 | 122° | 44km/h | 23645m | 4.7m/s | 0°C | 0% | 0hPa | 0V | 00:00:00 | 00:00:00 | 00:00:00 | |
| MIELECB | 2026-09-06 00:32:47 | 49.57024 | 22.55171 | 147° | 44km/h | 23613m | 1.4m/s | 0°C | 0% | 0hPa | 0V | 00:00:00 | 00:00:00 | 00:00:00 | |
| MIELECB | 2026-09-06 00:32:41 | 49.57022 | 22.55157 | 129° | 49km/h | 23578m | 7.4m/s | 0°C | 0% | 0hPa | 0V | 00:00:00 | 00:00:00 | 00:00:00 | |
| GYPAP8-17 | 2026-09-06 00:32:35 | 49.57030 | 22.55145 | 93° | 47km/h | 23543m | 3.0m/s | 0°C | 0% | 0hPa | 0V | 00:00:00 | 00:00:00 | 00:00:00 | |
| AKAW682 | 2026-09-06 00:32:32 | 49.57043 | 22.55129 | 248° | 29km/h | 23526m | 7.6m/s | 0°C | 0% | 0hPa | 0V | 00:00:00 | 00:00:00 | 00:00:00 | |
| MIELECB | 2026-09-06 00:32:28 | 49.57047 | 22.55138 | 103° | 29km/h | 23507m | 7.9m/s | 0°C | 0% | 0hPa | 0V | 00:00:00 | 00:00:00 | 00:00:00 | |
| SQ9PSP-11 | 2026-09-06 00:32:25 | 49.57052 | 22.55116 | 191° | 4km/h | 23490m | 6.4m/s | 0°C | 0% | 0hPa | 0V | 00:00:00 | 00:00:00 | 00:00:00 | |
| MIELECB | 2026-09-06 00:32:17 | 49.57067 | 22.55117 | 135° | 13km/h | 23447m | 6.6m/s | 0°C | 0% | 0hPa | 0V | 00:00:00 | 00:00:00 | 00:00:00 | |
| AKAW682 | 2026-09-06 00:32:11 | 49.57072 | 22.55120 | 158° | 7km/h | 23416m | 6.0m/s | 0°C | 0% | 0hPa | 0V | 00:00:00 | 00:00:00 | 00:00:00 | |
| SQ9PSP-11 | 2026-09-06 00:32:08 | 49.57080 | 22.55099 | 129° | 15km/h | 23405m | 2.8m/s | 0°C | 0% | 0hPa | 0V | 00:00:00 | 00:00:00 | 00:00:00 | |
| MIELECB | 2026-09-06 00:32:06 | 49.57081 | 22.55104 | 273° | 33km/h | 23392m | 4.3m/s | 0°C | 0% | 0hPa | 0V | 00:00:00 | 00:00:00 | 00:00:00 | |
| MIELECB | 2026-09-06 00:32:00 | 49.57094 | 22.55101 | 0° | 0km/h | 23366m | 6.3m/s | 0°C | 0% | 0hPa | 0V | 00:00:00 | 00:00:00 | 00:00:00 | |
| MIELECB | 2026-09-06 00:31:53 | 49.57108 | 22.55120 | 218° | 4km/h | 23328m | 4.5m/s | 0°C | 0% | 0hPa | 0V | 00:00:00 | 00:00:00 | 00:00:00 | |
| SQ9PSP-11 | 2026-09-06 00:31:52 | 49.57110 | 22.55121 | 185° | 9km/h | 23323m | 4.0m/s | 0°C | 0% | 0hPa | 0V | 00:00:00 | 00:00:00 | 00:00:00 | |
| GYPAP8-17 | 2026-09-06 00:31:51 | 49.57114 | 22.55120 | 163° | 27km/h | 23318m | 5.7m/s | 0°C | 0% | 0hPa | 0V | 00:00:00 | 00:00:00 | 00:00:00 | |
| MIELECB | 2026-09-06 00:31:47 | 49.57132 | 22.55132 | 265° | 29km/h | 23297m | 6.1m/s | 0°C | 0% | 0hPa | 0V | 00:00:00 | 00:00:00 | 00:00:00 | |
| MIELECB | 2026-09-06 00:31:42 | 49.57154 | 22.55131 | 153° | 20km/h | 23275m | 1.8m/s | 0°C | 0% | 0hPa | 0V | 00:00:00 | 00:00:00 | 00:00:00 | |
| SQ9PSP-11 | 2026-09-06 00:31:37 | 49.57167 | 22.55153 | 159° | 29km/h | 23248m | 8.2m/s | 0°C | 0% | 0hPa | 0V | 00:00:00 | 00:00:00 | 00:00:00 | |
| MIELECB | 2026-09-06 00:31:36 | 49.57174 | 22.55144 | 135° | 40km/h | 23242m | 4.0m/s | 0°C | 0% | 0hPa | 0V | 00:00:00 | 00:00:00 | 00:00:00 | |
| AKAW682 | 2026-09-06 00:31:31 | 49.57193 | 22.55137 | 191° | 16km/h | 23219m | 4.4m/s | 0°C | 0% | 0hPa | 0V | 00:00:00 | 00:00:00 | 00:00:00 | |
| MIELECB | 2026-09-06 00:31:29 | 49.57204 | 22.55125 | 129° | 37km/h | 23208m | 3.3m/s | 0°C | 0% | 0hPa | 0V | 00:00:00 | 00:00:00 | 00:00:00 | |
| MIELECB | 2026-09-06 00:31:23 | 49.57226 | 22.55096 | 124° | 31km/h | 23179m | 4.5m/s | 0°C | 0% | 0hPa | 0V | 00:00:00 | 00:00:00 | 00:00:00 | |
| SQ9PSP-11 | 2026-09-06 00:31:22 | 49.57230 | 22.55086 | 130° | 33km/h | 23175m | 3.7m/s | 0°C | 0% | 0hPa | 0V | 00:00:00 | 00:00:00 | 00:00:00 | |
| MIELECB | 2026-09-06 00:31:17 | 49.57244 | 22.55060 | 117° | 33km/h | 23150m | 7.3m/s | 0°C | 0% | 0hPa | 0V | 00:00:00 | 00:00:00 | 00:00:00 | |
| MIELECB | 2026-09-06 00:31:12 | 49.57257 | 22.55029 | 120° | 11km/h | 23125m | 3.4m/s | 0°C | 0% | 0hPa | 0V | 00:00:00 | 00:00:00 | 00:00:00 | |
| AKAW682 | 2026-09-06 00:31:10 | 49.57264 | 22.55013 | 128° | 38km/h | 23114m | 4.3m/s | 0°C | 0% | 0hPa | 0V | 00:00:00 | 00:00:00 | 00:00:00 | |
| SQ9PSP-11 | 2026-09-06 00:31:07 | 49.57277 | 22.54991 | 69° | 4km/h | 23100m | 6.9m/s | 0°C | 0% | 0hPa | 0V | 00:00:00 | 00:00:00 | 00:00:00 | |
| MIELECB | 2026-09-06 00:31:01 | 49.57292 | 22.54960 | 183° | 18km/h | 23071m | 6.2m/s | 0°C | 0% | 0hPa | 0V | 00:00:00 | 00:00:00 | 00:00:00 | |
| MIELECB | 2026-09-06 00:30:56 | 49.57306 | 22.54934 | 133° | 27km/h | 23048m | 2.8m/s | 0°C | 0% | 0hPa | 0V | 00:00:00 | 00:00:00 | 00:00:00 | |
| MIELECB | 2026-09-06 00:30:49 | 49.57326 | 22.54911 | 139° | 26km/h | 23011m | 5.1m/s | 0°C | 0% | 0hPa | 0V | 00:00:00 | 00:00:00 | 00:00:00 | |
| AKAW682 | 2026-09-06 00:30:48 | 49.57330 | 22.54906 | 169° | 18km/h | 23005m | 6.2m/s | 0°C | 0% | 0hPa | 0V | 00:00:00 | 00:00:00 | 00:00:00 | |
| MIELECB | 2026-09-06 00:30:44 | 49.57346 | 22.54902 | 124° | 15km/h | 22984m | 4.8m/s | 0°C | 0% | 0hPa | 0V | 00:00:00 | 00:00:00 | 00:00:00 | |
| GYPAP8-17 | 2026-09-06 00:30:41 | 49.57350 | 22.54893 | 149° | 15km/h | 22969m | 3.6m/s | 0°C | 0% | 0hPa | 0V | 00:00:00 | 00:00:00 | 00:00:00 | |
| MIELECB | 2026-09-06 00:30:38 | 49.57367 | 22.54873 | 142° | 27km/h | 22953m | 0.8m/s | 0°C | 0% | 0hPa | 0V | 00:00:00 | 00:00:00 | 00:00:00 | |
| MIELECB | 2026-09-06 00:30:31 | 49.57388 | 22.54836 | 147° | 40km/h | 22917m | 1.8m/s | 0°C | 0% | 0hPa | 0V | 00:00:00 | 00:00:00 | 00:00:00 | |
| AKAW682 | 2026-09-06 00:30:27 | 49.57395 | 22.54826 | 78° | 16km/h | 22897m | 3.7m/s | 0°C | 0% | 0hPa | 0V | 00:00:00 | 00:00:00 | 00:00:00 | |
| SQ9PSP-11 | 2026-09-06 00:30:26 | 49.57396 | 22.54818 | 114° | 29km/h | 22891m | 7.8m/s | 0°C | 0% | 0hPa | 0V | 00:00:00 | 00:00:00 | 00:00:00 | |
| GYPAP8-17 | 2026-09-06 00:30:20 | 49.57417 | 22.54783 | 83° | 16km/h | 22857m | 5.7m/s | 0°C | 0% | 0hPa | 0V | 00:00:00 | 00:00:00 | 00:00:00 | |
| MIELECB | 2026-09-06 00:30:14 | 49.57434 | 22.54746 | 122° | 18km/h | 22827m | 6.1m/s | 0°C | 0% | 0hPa | 0V | 00:00:00 | 00:00:00 | 00:00:00 | |
| SQ9PSP-11 | 2026-09-06 00:30:10 | 49.57438 | 22.54709 | 67° | 15km/h | 22805m | 6.2m/s | 0°C | 0% | 0hPa | 0V | 00:00:00 | 00:00:00 | 00:00:00 | |
| MIELECB | 2026-09-06 00:30:08 | 49.57438 | 22.54698 | 111° | 22km/h | 22796m | 5.6m/s | 0°C | 0% | 0hPa | 0V | 00:00:00 | 00:00:00 | 00:00:00 | |
| AKAW682 | 2026-09-06 00:30:06 | 49.57445 | 22.54675 | 120° | 40km/h | 22783m | 4.4m/s | 0°C | 0% | 0hPa | 0V | 00:00:00 | 00:00:00 | 00:00:00 | |
| MIELECB | 2026-09-06 00:29:56 | 49.57454 | 22.54597 | 74° | 11km/h | 22728m | 4.6m/s | 0°C | 0% | 0hPa | 0V | 00:00:00 | 00:00:00 | 00:00:00 | |
| SQ9PSP-11 | 2026-09-06 00:29:54 | 49.57455 | 22.54580 | 99° | 33km/h | 22716m | 4.7m/s | 0°C | 0% | 0hPa | 0V | 00:00:00 | 00:00:00 | 00:00:00 | |
| MIELECB | 2026-09-06 00:29:49 | 49.57455 | 22.54527 | 113° | 27km/h | 22691m | 6.1m/s | 0°C | 0% | 0hPa | 0V | 00:00:00 | 00:00:00 | 00:00:00 | |
| AKAW682 | 2026-09-06 00:29:43 | 49.57450 | 22.54475 | 116° | 35km/h | 22659m | 8.0m/s | 0°C | 0% | 0hPa | 0V | 00:00:00 | 00:00:00 | 00:00:00 | |
| MIELECB | 2026-09-06 00:29:38 | 49.57449 | 22.54438 | 44° | 24km/h | 22634m | 1.8m/s | 0°C | 0% | 0hPa | 0V | 00:00:00 | 00:00:00 | 00:00:00 | |
| SQ9PSP-11 | 2026-09-06 00:29:36 | 49.57447 | 22.54419 | 120° | 35km/h | 22622m | 7.7m/s | 0°C | 0% | 0hPa | 0V | 00:00:00 | 00:00:00 | 00:00:00 | |
| MIELECB | 2026-09-06 00:29:31 | 49.57443 | 22.54382 | 34° | 31km/h | 22597m | 2.9m/s | 0°C | 0% | 0hPa | 0V | 00:00:00 | 00:00:00 | 00:00:00 | |
| MIELECB | 2026-09-06 00:29:25 | 49.57447 | 22.54347 | 45° | 26km/h | 22566m | 5.3m/s | 0°C | 0% | 0hPa | 0V | 00:00:00 | 00:00:00 | 00:00:00 | |
| AKAW682 | 2026-09-06 00:29:23 | 49.57439 | 22.54326 | 79° | 35km/h | 22555m | 3.6m/s | 0°C | 0% | 0hPa | 0V | 00:00:00 | 00:00:00 | 00:00:00 | |
| MIELECB | 2026-09-06 00:29:16 | 49.57451 | 22.54302 | 90° | 38km/h | 22517m | 4.4m/s | 0°C | 0% | 0hPa | 0V | 00:00:00 | 00:00:00 | 00:00:00 | |
| MIELECB | 2026-09-06 00:29:10 | 49.57462 | 22.54271 | 96° | 38km/h | 22480m | 4.3m/s | 0°C | 0% | 0hPa | 0V | 00:00:00 | 00:00:00 | 00:00:00 | |
| SQ9PSP-11 | 2026-09-06 00:29:06 | 49.57458 | 22.54256 | 230° | 11km/h | 22465m | 2.5m/s | 0°C | 0% | 0hPa | 0V | 00:00:00 | 00:00:00 | 00:00:00 | |
| AKAW682 | 2026-09-06 00:29:03 | 49.57476 | 22.54245 | 131° | 40km/h | 22449m | 3.7m/s | 0°C | 0% | 0hPa | 0V | 00:00:00 | 00:00:00 | 00:00:00 | |
| MIELECB | 2026-09-06 00:29:01 | 49.57482 | 22.54225 | 85° | 15km/h | 22438m | 6.7m/s | 0°C | 0% | 0hPa | 0V | 00:00:00 | 00:00:00 | 00:00:00 | |
| MIELECB | 2026-09-06 00:28:56 | 49.57506 | 22.54213 | 155° | 35km/h | 22412m | 4.8m/s | 0°C | 0% | 0hPa | 0V | 00:00:00 | 00:00:00 | 00:00:00 | |
| GYPAP8-17 | 2026-09-06 00:28:52 | 49.57521 | 22.54187 | 133° | 27km/h | 22389m | 4.9m/s | 0°C | 0% | 0hPa | 0V | 00:00:00 | 00:00:00 | 00:00:00 | |
| MIELECB | 2026-09-06 00:28:50 | 49.57533 | 22.54175 | 162° | 26km/h | 22381m | 5.3m/s | 0°C | 0% | 0hPa | 0V | 00:00:00 | 00:00:00 | 00:00:00 | |
| MIELECB | 2026-09-06 00:28:44 | 49.57569 | 22.54132 | 128° | 35km/h | 22351m | 2.6m/s | 0°C | 0% | 0hPa | 0V | 00:00:00 | 00:00:00 | 00:00:00 | |
| AKAW682 | 2026-09-06 00:28:41 | 49.57580 | 22.54120 | 185° | 22km/h | 22334m | 1.4m/s | 0°C | 0% | 0hPa | 0V | 00:00:00 | 00:00:00 | 00:00:00 | |
| MIELECB | 2026-09-06 00:28:38 | 49.57607 | 22.54095 | 127° | 62km/h | 22317m | 3.8m/s | 0°C | 0% | 0hPa | 0V | 00:00:00 | 00:00:00 | 00:00:00 | |
| SQ9PSP-11 | 2026-09-06 00:28:31 | 49.57659 | 22.54031 | 129° | 49km/h | 22283m | 5.8m/s | 0°C | 0% | 0hPa | 0V | 00:00:00 | 00:00:00 | 00:00:00 | |
| MIELECB | 2026-09-06 00:28:28 | 49.57668 | 22.53989 | 117° | 33km/h | 22269m | 3.5m/s | 0°C | 0% | 0hPa | 0V | 00:00:00 | 00:00:00 | 00:00:00 | |
| MIELECB | 2026-09-06 00:28:22 | 49.57709 | 22.53930 | 90° | 38km/h | 22236m | 5.2m/s | 0°C | 0% | 0hPa | 0V | 00:00:00 | 00:00:00 | 00:00:00 | |
| AKAW682 | 2026-09-06 00:28:21 | 49.57710 | 22.53914 | 103° | 46km/h | 22231m | 5.0m/s | 0°C | 0% | 0hPa | 0V | 00:00:00 | 00:00:00 | 00:00:00 | |
| MIELECB | 2026-09-06 00:28:16 | 49.57738 | 22.53861 | 122° | 24km/h | 22207m | 3.5m/s | 0°C | 0% | 0hPa | 0V | 00:00:00 | 00:00:00 | 00:00:00 | |
| SQ9PSP-11 | 2026-09-06 00:28:11 | 49.57766 | 22.53799 | 114° | 24km/h | 22183m | 7.0m/s | 0°C | 0% | 0hPa | 0V | 00:00:00 | 00:00:00 | 00:00:00 | |
| MIELECB | 2026-09-06 00:28:09 | 49.57764 | 22.53786 | 74° | 16km/h | 22172m | 1.0m/s | 0°C | 0% | 0hPa | 0V | 00:00:00 | 00:00:00 | 00:00:00 | |
| MIELECB | 2026-09-06 00:28:02 | 49.57792 | 22.53715 | 20° | 16km/h | 22135m | 3.0m/s | 0°C | 0% | 0hPa | 0V | 00:00:00 | 00:00:00 | 00:00:00 | |
| AKAW682 | 2026-09-06 00:28:00 | 49.57791 | 22.53704 | 119° | 29km/h | 22128m | 6.5m/s | 0°C | 0% | 0hPa | 0V | 00:00:00 | 00:00:00 | 00:00:00 | |
| SQ9PSP-11 | 2026-09-06 00:27:54 | 49.57810 | 22.53635 | 84° | 11km/h | 22098m | 4.2m/s | 0°C | 0% | 0hPa | 0V | 00:00:00 | 00:00:00 | 00:00:00 | |
| MIELECB | 2026-09-06 00:27:52 | 49.57815 | 22.53618 | 119° | 37km/h | 22087m | 5.8m/s | 0°C | 0% | 0hPa | 0V | 00:00:00 | 00:00:00 | 00:00:00 | |
| MIELECB | 2026-09-06 00:27:45 | 49.57829 | 22.53545 | 119° | 35km/h | 22052m | 3.5m/s | 0°C | 0% | 0hPa | 0V | 00:00:00 | 00:00:00 | 00:00:00 | |
| AKAW682 | 2026-09-06 00:27:39 | 49.57832 | 22.53485 | 127° | 26km/h | 22020m | 4.4m/s | 0°C | 0% | 0hPa | 0V | 00:00:00 | 00:00:00 | 00:00:00 | |
| SQ9PSP-11 | 2026-09-06 00:27:38 | 49.57834 | 22.53476 | 108° | 24km/h | 22015m | 6.0m/s | 0°C | 0% | 0hPa | 0V | 00:00:00 | 00:00:00 | 00:00:00 | |
| MIELECB | 2026-09-06 00:27:29 | 49.57835 | 22.53391 | 109° | 44km/h | 21968m | 6.2m/s | 0°C | 0% | 0hPa | 0V | 00:00:00 | 00:00:00 | 00:00:00 | |
| SQ9PSP-11 | 2026-09-06 00:27:22 | 49.57833 | 22.53321 | 111° | 47km/h | 21933m | 5.7m/s | 0°C | 0% | 0hPa | 0V | 00:00:00 | 00:00:00 | 00:00:00 | |
| GYPAP8-17 | 2026-09-06 00:27:18 | 49.57822 | 22.53267 | 15° | 18km/h | 21914m | 3.0m/s | 0°C | 0% | 0hPa | 0V | 00:00:00 | 00:00:00 | 00:00:00 | |
| MIELECB | 2026-09-06 00:27:12 | 49.57813 | 22.53199 | 38° | 35km/h | 21885m | 4.9m/s | 0°C | 0% | 0hPa | 0V | 00:00:00 | 00:00:00 | 00:00:00 | |
| SQ9PSP-11 | 2026-09-06 00:27:06 | 49.57805 | 22.53143 | 67° | 26km/h | 21857m | 5.6m/s | 0°C | 0% | 0hPa | 0V | 00:00:00 | 00:00:00 | 00:00:00 | |
| MIELECB | 2026-09-06 00:27:01 | 49.57801 | 22.53103 | 74° | 24km/h | 21831m | 6.8m/s | 0°C | 0% | 0hPa | 0V | 00:00:00 | 00:00:00 | 00:00:00 | |
| AKAW682 | 2026-09-06 00:26:58 | 49.57794 | 22.53072 | 91° | 31km/h | 21816m | 7.3m/s | 0°C | 0% | 0hPa | 0V | 00:00:00 | 00:00:00 | 00:00:00 | |
| MIELECB | 2026-09-06 00:26:54 | 49.57796 | 22.53033 | 55° | 24km/h | 21795m | 5.0m/s | 0°C | 0% | 0hPa | 0V | 00:00:00 | 00:00:00 | 00:00:00 | |
| SQ9PSP-11 | 2026-09-06 00:26:48 | 49.57783 | 22.52969 | 64° | 20km/h | 21762m | 2.9m/s | 0°C | 0% | 0hPa | 0V | 00:00:00 | 00:00:00 | 00:00:00 | |
| MIELECB | 2026-09-06 00:26:42 | 49.57781 | 22.52921 | 35° | 18km/h | 21736m | 6.1m/s | 0°C | 0% | 0hPa | 0V | 00:00:00 | 00:00:00 | 00:00:00 | |
| AKAW682 | 2026-09-06 00:26:38 | 49.57778 | 22.52887 | 98° | 46km/h | 21715m | 4.5m/s | 0°C | 0% | 0hPa | 0V | 00:00:00 | 00:00:00 | 00:00:00 | |
| MIELECB | 2026-09-06 00:26:36 | 49.57775 | 22.52855 | 64° | 37km/h | 21704m | 5.7m/s | 0°C | 0% | 0hPa | 0V | 00:00:00 | 00:00:00 | 00:00:00 | |
| SQ9PSP-11 | 2026-09-06 00:26:30 | 49.57764 | 22.52792 | 72° | 40km/h | 21673m | 4.1m/s | 0°C | 0% | 0hPa | 0V | 00:00:00 | 00:00:00 | 00:00:00 | |
| MIELECB | 2026-09-06 00:26:22 | 49.57754 | 22.52704 | 102° | 49km/h | 21633m | 5.7m/s | 0°C | 0% | 0hPa | 0V | 00:00:00 | 00:00:00 | 00:00:00 | |
| SQ9PSP-11 | 2026-09-06 00:26:16 | 49.57748 | 22.52618 | 97° | 42km/h | 21598m | 5.0m/s | 0°C | 0% | 0hPa | 0V | 00:00:00 | 00:00:00 | 00:00:00 | |
| AKAW682 | 2026-09-06 00:26:14 | 49.57749 | 22.52603 | 96° | 37km/h | 21592m | 6.0m/s | 0°C | 0% | 0hPa | 0V | 00:00:00 | 00:00:00 | 00:00:00 | |
| MIELECB | 2026-09-06 00:26:11 | 49.57746 | 22.52564 | 78° | 37km/h | 21577m | 6.3m/s | 0°C | 0% | 0hPa | 0V | 00:00:00 | 00:00:00 | 00:00:00 | |
| MIELECB | 2026-09-06 00:26:04 | 49.57741 | 22.52486 | 73° | 57km/h | 21541m | 3.9m/s | 0°C | 0% | 0hPa | 0V | 00:00:00 | 00:00:00 | 00:00:00 | |
| SQ9PSP-11 | 2026-09-06 00:25:59 | 49.57731 | 22.52448 | 116° | 24km/h | 21522m | 2.6m/s | 0°C | 0% | 0hPa | 0V | 00:00:00 | 00:00:00 | 00:00:00 | |
| MIELECB | 2026-09-06 00:25:57 | 49.57731 | 22.52416 | 75° | 66km/h | 21509m | 6.7m/s | 0°C | 0% | 0hPa | 0V | 00:00:00 | 00:00:00 | 00:00:00 | |
| AKAW682 | 2026-09-06 00:25:52 | 49.57710 | 22.52366 | 131° | 20km/h | 21485m | 4.0m/s | 0°C | 0% | 0hPa | 0V | 00:00:00 | 00:00:00 | 00:00:00 | |
| MIELECB | 2026-09-06 00:25:51 | 49.57713 | 22.52357 | 104° | 37km/h | 21481m | 5.4m/s | 0°C | 0% | 0hPa | 0V | 00:00:00 | 00:00:00 | 00:00:00 | |
| MIELECB | 2026-09-06 00:25:45 | 49.57684 | 22.52302 | 81° | 24km/h | 21451m | 7.6m/s | 0°C | 0% | 0hPa | 0V | 00:00:00 | 00:00:00 | 00:00:00 | |
| SQ9PSP-11 | 2026-09-06 00:25:42 | 49.57681 | 22.52260 | 66° | 31km/h | 21437m | 6.0m/s | 0°C | 0% | 0hPa | 0V | 00:00:00 | 00:00:00 | 00:00:00 | |
| MIELECB | 2026-09-06 00:25:37 | 49.57655 | 22.52222 | 92° | 33km/h | 21409m | 5.5m/s | 0°C | 0% | 0hPa | 0V | 00:00:00 | 00:00:00 | 00:00:00 | |
| GYPAP8-17 | 2026-09-06 00:25:32 | 49.57623 | 22.52132 | 51° | 13km/h | 21365m | 4.9m/s | 0°C | 0% | 0hPa | 0V | 00:00:00 | 00:00:00 | 00:00:00 | |
| SQ9PSP-11 | 2026-09-06 00:25:27 | 49.57621 | 22.52122 | 91° | 20km/h | 21354m | 5.3m/s | 0°C | 0% | 0hPa | 0V | 00:00:00 | 00:00:00 | 00:00:00 | |
| MIELECB | 2026-09-06 00:25:16 | 49.57591 | 22.52049 | 41° | 31km/h | 21304m | 5.8m/s | 0°C | 0% | 0hPa | 0V | 00:00:00 | 00:00:00 | 00:00:00 | |
| SQ9PSP-11 | 2026-09-06 00:25:11 | 49.57582 | 22.52022 | 329° | 4km/h | 21279m | 2.6m/s | 0°C | 0% | 0hPa | 0V | 00:00:00 | 00:00:00 | 00:00:00 | |
| AKAW682 | 2026-09-06 00:25:10 | 49.57581 | 22.52021 | 51° | 11km/h | 21274m | 6.4m/s | 0°C | 0% | 0hPa | 0V | 00:00:00 | 00:00:00 | 00:00:00 | |
| MIELECB | 2026-09-06 00:25:07 | 49.57571 | 22.51995 | 47° | 26km/h | 21258m | 5.9m/s | 0°C | 0% | 0hPa | 0V | 00:00:00 | 00:00:00 | 00:00:00 | |
| MIELECB | 2026-09-06 00:24:59 | 49.57555 | 22.51969 | 27° | 13km/h | 21216m | 4.0m/s | 0°C | 0% | 0hPa | 0V | 00:00:00 | 00:00:00 | 00:00:00 | |
| SQ9PSP-11 | 2026-09-06 00:24:56 | 49.57555 | 22.51956 | 136° | 11km/h | 21201m | 4.1m/s | 0°C | 0% | 0hPa | 0V | 00:00:00 | 00:00:00 | 00:00:00 | |
| MIELECB | 2026-09-06 00:24:53 | 49.57553 | 22.51955 | 30° | 15km/h | 21187m | 5.3m/s | 0°C | 0% | 0hPa | 0V | 00:00:00 | 00:00:00 | 00:00:00 | |
| AKAW682 | 2026-09-06 00:24:50 | 49.57545 | 22.51937 | 84° | 11km/h | 21174m | 5.6m/s | 0°C | 0% | 0hPa | 0V | 00:00:00 | 00:00:00 | 00:00:00 | |
| MIELECB | 2026-09-06 00:24:46 | 49.57547 | 22.51937 | 75° | 16km/h | 21153m | 7.9m/s | 0°C | 0% | 0hPa | 0V | 00:00:00 | 00:00:00 | 00:00:00 | |
| MIELECB | 2026-09-06 00:24:39 | 49.57545 | 22.51919 | 93° | 20km/h | 21119m | 7.2m/s | 0°C | 0% | 0hPa | 0V | 00:00:00 | 00:00:00 | 00:00:00 | |
| SQ9PSP-11 | 2026-09-06 00:24:38 | 49.57544 | 22.51909 | 75° | 29km/h | 21113m | 3.8m/s | 0°C | 0% | 0hPa | 0V | 00:00:00 | 00:00:00 | 00:00:00 | |
| MIELECB | 2026-09-06 00:24:31 | 49.57547 | 22.51891 | 105° | 7km/h | 21080m | 6.3m/s | 0°C | 0% | 0hPa | 0V | 00:00:00 | 00:00:00 | 00:00:00 | |
| AKAW682 | 2026-09-06 00:24:28 | 49.57539 | 22.51881 | 50° | 24km/h | 21065m | 6.2m/s | 0°C | 0% | 0hPa | 0V | 00:00:00 | 00:00:00 | 00:00:00 | |
| SQ9PSP-11 | 2026-09-06 00:24:23 | 49.57545 | 22.51873 | 348° | 7km/h | 21041m | 2.0m/s | 0°C | 0% | 0hPa | 0V | 00:00:00 | 00:00:00 | 00:00:00 | |
| MIELECB | 2026-09-06 00:24:22 | 49.57543 | 22.51871 | 41° | 16km/h | 21036m | 8.1m/s | 0°C | 0% | 0hPa | 0V | 00:00:00 | 00:00:00 | 00:00:00 | |
| MIELECB | 2026-09-06 00:24:14 | 49.57543 | 22.51840 | 83° | 33km/h | 20997m | 7.4m/s | 0°C | 0% | 0hPa | 0V | 00:00:00 | 00:00:00 | 00:00:00 | |
| GYPAP8-17 | 2026-09-06 00:24:09 | 49.57551 | 22.51801 | 159° | 4km/h | 20972m | 4.9m/s | 0°C | 0% | 0hPa | 0V | 00:00:00 | 00:00:00 | 00:00:00 | |
| AKAW682 | 2026-09-06 00:24:07 | 49.57552 | 22.51792 | 99° | 22km/h | 20962m | 5.6m/s | 0°C | 0% | 0hPa | 0V | 00:00:00 | 00:00:00 | 00:00:00 | |
| MIELECB | 2026-09-06 00:24:06 | 49.57553 | 22.51783 | 109° | 24km/h | 20957m | 4.8m/s | 0°C | 0% | 0hPa | 0V | 00:00:00 | 00:00:00 | 00:00:00 | |
| MIELECB | 2026-09-06 00:24:00 | 49.57559 | 22.51733 | 111° | 46km/h | 20930m | 2.3m/s | 0°C | 0% | 0hPa | 0V | 00:00:00 | 00:00:00 | 00:00:00 | |
| MIELECB | 2026-09-06 00:23:55 | 49.57571 | 22.51707 | 56° | 31km/h | 20907m | 7.8m/s | 0°C | 0% | 0hPa | 0V | 00:00:00 | 00:00:00 | 00:00:00 | |
| SQ9PSP-11 | 2026-09-06 00:23:51 | 49.57586 | 22.51650 | 192° | 22km/h | 20888m | 5.4m/s | 0°C | 0% | 0hPa | 0V | 00:00:00 | 00:00:00 | 00:00:00 | |
| MIELECB | 2026-09-06 00:23:49 | 49.57582 | 22.51652 | 30° | 31km/h | 20879m | 4.7m/s | 0°C | 0% | 0hPa | 0V | 00:00:00 | 00:00:00 | 00:00:00 | |
| AKAW682 | 2026-09-06 00:23:46 | 49.57579 | 22.51597 | 123° | 57km/h | 20864m | 6.1m/s | 0°C | 0% | 0hPa | 0V | 00:00:00 | 00:00:00 | 00:00:00 | |
| MIELECB | 2026-09-06 00:23:42 | 49.57590 | 22.51565 | 47° | 38km/h | 20845m | 6.5m/s | 0°C | 0% | 0hPa | 0V | 00:00:00 | 00:00:00 | 00:00:00 | |
| SQ9PSP-11 | 2026-09-06 00:23:36 | 49.57592 | 22.51503 | 116° | 29km/h | 20819m | 3.8m/s | 0°C | 0% | 0hPa | 0V | 00:00:00 | 00:00:00 | 00:00:00 | |
| MIELECB | 2026-09-06 00:23:35 | 49.57592 | 22.51491 | 84° | 35km/h | 20814m | 6.8m/s | 0°C | 0% | 0hPa | 0V | 00:00:00 | 00:00:00 | 00:00:00 | |
| MIELECB | 2026-09-06 00:23:29 | 49.57584 | 22.51440 | 108° | 37km/h | 20785m | 5.9m/s | 0°C | 0% | 0hPa | 0V | 00:00:00 | 00:00:00 | 00:00:00 | |
| SQ9PSP-11 | 2026-09-06 00:23:21 | 49.57578 | 22.51356 | 69° | 35km/h | 20747m | 4.7m/s | 0°C | 0% | 0hPa | 0V | 00:00:00 | 00:00:00 | 00:00:00 | |
| MIELECB | 2026-09-06 00:23:16 | 49.57585 | 22.51301 | 96° | 33km/h | 20723m | 6.6m/s | 0°C | 0% | 0hPa | 0V | 00:00:00 | 00:00:00 | 00:00:00 | |
| MIELECB | 2026-09-06 00:23:09 | 49.57574 | 22.51224 | 82° | 37km/h | 20688m | 4.9m/s | 0°C | 0% | 0hPa | 0V | 00:00:00 | 00:00:00 | 00:00:00 | |
| SQ9PSP-11 | 2026-09-06 00:23:05 | 49.57568 | 22.51189 | 86° | 24km/h | 20669m | 3.0m/s | 0°C | 0% | 0hPa | 0V | 00:00:00 | 00:00:00 | 00:00:00 | |
| MIELECB | 2026-09-06 00:23:04 | 49.57568 | 22.51178 | 83° | 37km/h | 20664m | 7.4m/s | 0°C | 0% | 0hPa | 0V | 00:00:00 | 00:00:00 | 00:00:00 | |
| AKAW682 | 2026-09-06 00:23:03 | 49.57566 | 22.51162 | 78° | 49km/h | 20658m | 4.6m/s | 0°C | 0% | 0hPa | 0V | 00:00:00 | 00:00:00 | 00:00:00 | |
| SQ9PSP-11 | 2026-09-06 00:22:49 | 49.57546 | 22.50999 | 78° | 18km/h | 20588m | 6.2m/s | 0°C | 0% | 0hPa | 0V | 00:00:00 | 00:00:00 | 00:00:00 | |
| MIELECB | 2026-09-06 00:22:47 | 49.57546 | 22.50982 | 90° | 31km/h | 20578m | 5.8m/s | 0°C | 0% | 0hPa | 0V | 00:00:00 | 00:00:00 | 00:00:00 | |
| MIELECB | 2026-09-06 00:22:41 | 49.57538 | 22.50917 | 59° | 22km/h | 20548m | 5.2m/s | 0°C | 0% | 0hPa | 0V | 00:00:00 | 00:00:00 | 00:00:00 | |
| AKAW682 | 2026-09-06 00:22:40 | 49.57535 | 22.50907 | 66° | 35km/h | 20543m | 6.3m/s | 0°C | 0% | 0hPa | 0V | 00:00:00 | 00:00:00 | 00:00:00 | |
| SQ9PSP-11 | 2026-09-06 00:22:34 | 49.57524 | 22.50840 | 70° | 33km/h | 20512m | 4.6m/s | 0°C | 0% | 0hPa | 0V | 00:00:00 | 00:00:00 | 00:00:00 | |
| AKAW68 | 2026-09-06 00:22:33 | 49.57522 | 22.50829 | 75° | 27km/h | 20508m | 3.8m/s | 0°C | 0% | 0hPa | 0V | 00:00:00 | 00:00:00 | 00:00:00 | |
| MIELECB | 2026-09-06 00:22:29 | 49.57519 | 22.50795 | 78° | 31km/h | 20487m | 7.1m/s | 0°C | 0% | 0hPa | 0V | 00:00:00 | 00:00:00 | 00:00:00 | |
| MIELECB | 2026-09-06 00:22:22 | 49.57512 | 22.50735 | 72° | 40km/h | 20452m | 4.9m/s | 0°C | 0% | 0hPa | 0V | 00:00:00 | 00:00:00 | 00:00:00 | |
| AKAW682 | 2026-09-06 00:22:20 | 49.57507 | 22.50709 | 82° | 26km/h | 20444m | 6.3m/s | 0°C | 0% | 0hPa | 0V | 00:00:00 | 00:00:00 | 00:00:00 | |
| SQ9PSP-11 | 2026-09-06 00:22:18 | 49.57510 | 22.50696 | 119° | 16km/h | 20433m | 3.5m/s | 0°C | 0% | 0hPa | 0V | 00:00:00 | 00:00:00 | 00:00:00 | |
| MIELECB | 2026-09-06 00:22:17 | 49.57511 | 22.50689 | 93° | 20km/h | 20429m | 5.9m/s | 0°C | 0% | 0hPa | 0V | 00:00:00 | 00:00:00 | 00:00:00 | |
| AKAW68 | 2026-09-06 00:22:12 | 49.57498 | 22.50636 | 84° | 24km/h | 20403m | 3.9m/s | 0°C | 0% | 0hPa | 0V | 00:00:00 | 00:00:00 | 00:00:00 | |
| MIELECB | 2026-09-06 00:22:11 | 49.57497 | 22.50625 | 90° | 29km/h | 20398m | 6.0m/s | 0°C | 0% | 0hPa | 0V | 00:00:00 | 00:00:00 | 00:00:00 | |
| MIELECB | 2026-09-06 00:22:04 | 49.57478 | 22.50566 | 60° | 46km/h | 20362m | 2.4m/s | 0°C | 0% | 0hPa | 0V | 00:00:00 | 00:00:00 | 00:00:00 | |
| AKAW682 | 2026-09-06 00:22:00 | 49.57481 | 22.50532 | 294° | 4km/h | 20341m | 4.0m/s | 0°C | 0% | 0hPa | 0V | 00:00:00 | 00:00:00 | 00:00:00 | |
| MIELECB | 2026-09-06 00:21:58 | 49.57474 | 22.50524 | 60° | 42km/h | 20327m | 6.8m/s | 0°C | 0% | 0hPa | 0V | 00:00:00 | 00:00:00 | 00:00:00 | |
| MIELECB | 2026-09-06 00:21:50 | 49.57488 | 22.50454 | 91° | 42km/h | 20284m | 4.3m/s | 0°C | 0% | 0hPa | 0V | 00:00:00 | 00:00:00 | 00:00:00 | |
| SQ9PSP-11 | 2026-09-06 00:21:47 | 49.57497 | 22.50433 | 192° | 7km/h | 20266m | 4.4m/s | 0°C | 0% | 0hPa | 0V | 00:00:00 | 00:00:00 | 00:00:00 | |
| AKAW68 | 2026-09-06 00:21:46 | 49.57498 | 22.50432 | 48° | 5km/h | 20260m | 6.9m/s | 0°C | 0% | 0hPa | 0V | 00:00:00 | 00:00:00 | 00:00:00 | |
| MIELECB | 2026-09-06 00:21:45 | 49.57495 | 22.50428 | 51° | 24km/h | 20254m | 6.1m/s | 0°C | 0% | 0hPa | 0V | 00:00:00 | 00:00:00 | 00:00:00 | |
| MIELECB | 2026-09-06 00:21:40 | 49.57507 | 22.50379 | 121° | 27km/h | 20226m | 7.5m/s | 0°C | 0% | 0hPa | 0V | 00:00:00 | 00:00:00 | 00:00:00 | |
| AKAW682 | 2026-09-06 00:21:36 | 49.57511 | 22.50343 | 136° | 22km/h | 20199m | 7.2m/s | 0°C | 0% | 0hPa | 0V | 00:00:00 | 00:00:00 | 00:00:00 | |
| MIELECB | 2026-09-06 00:21:34 | 49.57519 | 22.50331 | 126° | 22km/h | 20188m | 5.8m/s | 0°C | 0% | 0hPa | 0V | 00:00:00 | 00:00:00 | 00:00:00 | |
| SQ9PSP-11 | 2026-09-06 00:21:32 | 49.57522 | 22.50312 | 97° | 35km/h | 20177m | 4.8m/s | 0°C | 0% | 0hPa | 0V | 00:00:00 | 00:00:00 | 00:00:00 | |
| MIELECB | 2026-09-06 00:21:28 | 49.57537 | 22.50265 | 117° | 24km/h | 20156m | 6.5m/s | 0°C | 0% | 0hPa | 0V | 00:00:00 | 00:00:00 | 00:00:00 | |
| AKAW68 | 2026-09-06 00:21:19 | 49.57557 | 22.50157 | 121° | 24km/h | 20111m | 5.6m/s | 0°C | 0% | 0hPa | 0V | 00:00:00 | 00:00:00 | 00:00:00 | |
| SQ9PSP-11 | 2026-09-06 00:21:16 | 49.57569 | 22.50111 | 95° | 55km/h | 20098m | 6.9m/s | 0°C | 0% | 0hPa | 0V | 00:00:00 | 00:00:00 | 00:00:00 | |
| AKAW682 | 2026-09-06 00:21:14 | 49.57567 | 22.50074 | 89° | 38km/h | 20089m | 2.2m/s | 0°C | 0% | 0hPa | 0V | 00:00:00 | 00:00:00 | 00:00:00 | |
| SQ9PSP-11 | 2026-09-06 00:21:01 | 49.57601 | 22.49903 | 110° | 31km/h | 20029m | 6.1m/s | 0°C | 0% | 0hPa | 0V | 00:00:00 | 00:00:00 | 00:00:00 | |
| GYPAP8-17 | 2026-09-06 00:20:55 | 49.57612 | 22.49833 | 129° | 31km/h | 20000m | 5.8m/s | 0°C | 0% | 0hPa | 0V | 00:00:00 | 00:00:00 | 00:00:00 | |
| AKAW682 | 2026-09-06 00:20:54 | 49.57617 | 22.49824 | 127° | 27km/h | 19996m | 3.2m/s | 0°C | 0% | 0hPa | 0V | 00:00:00 | 00:00:00 | 00:00:00 | |
| MIELECB | 2026-09-06 00:20:46 | 49.57635 | 22.49743 | 94° | 31km/h | 19959m | 7.1m/s | 0°C | 0% | 0hPa | 0V | 00:00:00 | 00:00:00 | 00:00:00 | |
| SQ9PSP-11 | 2026-09-06 00:20:45 | 49.57634 | 22.49730 | 72° | 40km/h | 19953m | 3.9m/s | 0°C | 0% | 0hPa | 0V | 00:00:00 | 00:00:00 | 00:00:00 | |
| MIELECB | 2026-09-06 00:20:33 | 49.57656 | 22.49620 | 113° | 35km/h | 19899m | 5.2m/s | 0°C | 0% | 0hPa | 0V | 00:00:00 | 00:00:00 | 00:00:00 | |
| SQ9PSP-11 | 2026-09-06 00:20:28 | 49.57654 | 22.49579 | 105° | 16km/h | 19878m | 3.6m/s | 0°C | 0% | 0hPa | 0V | 00:00:00 | 00:00:00 | 00:00:00 | |
| AKAW682 | 2026-09-06 00:20:22 | 49.57664 | 22.49514 | 105° | 29km/h | 19849m | 6.3m/s | 0°C | 0% | 0hPa | 0V | 00:00:00 | 00:00:00 | 00:00:00 | |
| MIELECB | 2026-09-06 00:20:15 | 49.57675 | 22.49451 | 90° | 47km/h | 19816m | 4.7m/s | 0°C | 0% | 0hPa | 0V | 00:00:00 | 00:00:00 | 00:00:00 | |
| SQ9PSP-11 | 2026-09-06 00:20:13 | 49.57675 | 22.49419 | 94° | 29km/h | 19810m | 5.8m/s | 0°C | 0% | 0hPa | 0V | 00:00:00 | 00:00:00 | 00:00:00 | |
| AKAW682 | 2026-09-06 00:20:01 | 49.57713 | 22.49300 | 105° | 31km/h | 19753m | 4.9m/s | 0°C | 0% | 0hPa | 0V | 00:00:00 | 00:00:00 | 00:00:00 | |
| MIELECB | 2026-09-06 00:20:00 | 49.57714 | 22.49288 | 87° | 29km/h | 19748m | 5.8m/s | 0°C | 0% | 0hPa | 0V | 00:00:00 | 00:00:00 | 00:00:00 | |
| SQ9PSP-11 | 2026-09-06 00:19:57 | 49.57719 | 22.49252 | 122° | 42km/h | 19733m | 6.0m/s | 0°C | 0% | 0hPa | 0V | 00:00:00 | 00:00:00 | 00:00:00 | |
| GYPAP8-17 | 2026-09-06 00:19:48 | 49.57739 | 22.49140 | 130° | 18km/h | 19692m | 4.1m/s | 0°C | 0% | 0hPa | 0V | 00:00:00 | 00:00:00 | 00:00:00 | |
| MIELECB | 2026-09-06 00:19:46 | 49.57745 | 22.49123 | 111° | 37km/h | 19684m | 6.9m/s | 0°C | 0% | 0hPa | 0V | 00:00:00 | 00:00:00 | 00:00:00 | |
| SQ9PSP-11 | 2026-09-06 00:19:42 | 49.57753 | 22.49058 | 98° | 24km/h | 19663m | 4.8m/s | 0°C | 0% | 0hPa | 0V | 00:00:00 | 00:00:00 | 00:00:00 | |
| AKAW682 | 2026-09-06 00:19:33 | 49.57764 | 22.48930 | 104° | 53km/h | 19620m | 4.6m/s | 0°C | 0% | 0hPa | 0V | 00:00:00 | 00:00:00 | 00:00:00 | |
| SQ9PSP-11 | 2026-09-06 00:19:27 | 49.57780 | 22.48844 | 99° | 55km/h | 19591m | 4.9m/s | 0°C | 0% | 0hPa | 0V | 00:00:00 | 00:00:00 | 00:00:00 | |
| AKAW682 | 2026-09-06 00:19:12 | 49.57812 | 22.48622 | 98° | 33km/h | 19520m | 4.1m/s | 0°C | 0% | 0hPa | 0V | 00:00:00 | 00:00:00 | 00:00:00 | |
| SQ9PSP-11 | 2026-09-06 00:19:10 | 49.57815 | 22.48593 | 102° | 44km/h | 19510m | 4.9m/s | 0°C | 0% | 0hPa | 0V | 00:00:00 | 00:00:00 | 00:00:00 | |
| SQ9PSP-11 | 2026-09-06 00:18:54 | 49.57851 | 22.48342 | 105° | 44km/h | 19431m | 5.2m/s | 0°C | 0% | 0hPa | 0V | 00:00:00 | 00:00:00 | 00:00:00 | |
| AKAW682 | 2026-09-06 00:18:50 | 49.57854 | 22.48278 | 88° | 40km/h | 19411m | 3.3m/s | 0°C | 0% | 0hPa | 0V | 00:00:00 | 00:00:00 | 00:00:00 | |
| GYPAP8-17 | 2026-09-06 00:18:41 | 49.57859 | 22.48133 | 100° | 53km/h | 19367m | 3.6m/s | 0°C | 0% | 0hPa | 0V | 00:00:00 | 00:00:00 | 00:00:00 | |
| SQ9PSP-11 | 2026-09-06 00:18:37 | 49.57872 | 22.48069 | 86° | 40km/h | 19342m | 5.1m/s | 0°C | 0% | 0hPa | 0V | 00:00:00 | 00:00:00 | 00:00:00 | |
| AKAW682 | 2026-09-06 00:18:27 | 49.57882 | 22.47944 | 86° | 33km/h | 19298m | 4.0m/s | 0°C | 0% | 0hPa | 0V | 00:00:00 | 00:00:00 | 00:00:00 | |
| AKAW68 | 2026-09-06 00:18:21 | 49.57898 | 22.47864 | 103° | 27km/h | 19269m | 4.3m/s | 0°C | 0% | 0hPa | 0V | 00:00:00 | 00:00:00 | 00:00:00 | |
| SQ9PSP-11 | 2026-09-06 00:18:20 | 49.57898 | 22.47851 | 85° | 42km/h | 19264m | 7.4m/s | 0°C | 0% | 0hPa | 0V | 00:00:00 | 00:00:00 | 00:00:00 | |
| GYPAP8-17 | 2026-09-06 00:18:10 | 49.57911 | 22.47711 | 94° | 47km/h | 19214m | 5.4m/s | 0°C | 0% | 0hPa | 0V | 00:00:00 | 00:00:00 | 00:00:00 | |
| AKAW682 | 2026-09-06 00:18:07 | 49.57928 | 22.47669 | 153° | 27km/h | 19201m | 7.6m/s | 0°C | 0% | 0hPa | 0V | 00:00:00 | 00:00:00 | 00:00:00 | |
| SQ9PSP-11 | 2026-09-06 00:18:06 | 49.57932 | 22.47658 | 74° | 29km/h | 19192m | 4.4m/s | 0°C | 0% | 0hPa | 0V | 00:00:00 | 00:00:00 | 00:00:00 | |
| AKAW68 | 2026-09-06 00:17:59 | 49.57945 | 22.47575 | 335° | 5km/h | 19162m | 2.6m/s | 0°C | 0% | 0hPa | 0V | 00:00:00 | 00:00:00 | 00:00:00 | |
| SQ9PSP-11 | 2026-09-06 00:17:50 | 49.57953 | 22.47463 | 76° | 49km/h | 19116m | 4.4m/s | 0°C | 0% | 0hPa | 0V | 00:00:00 | 00:00:00 | 00:00:00 | |
| GYPAP8-17 | 2026-09-06 00:17:48 | 49.57956 | 22.47424 | 117° | 49km/h | 19106m | 5.8m/s | 0°C | 0% | 0hPa | 0V | 00:00:00 | 00:00:00 | 00:00:00 | |
| AKAW682 | 2026-09-06 00:17:44 | 49.57970 | 22.47389 | 84° | 33km/h | 19085m | 6.4m/s | 0°C | 0% | 0hPa | 0V | 00:00:00 | 00:00:00 | 00:00:00 | |
| AKAW68 | 2026-09-06 00:17:38 | 49.57976 | 22.47315 | 125° | 33km/h | 19057m | 5.1m/s | 0°C | 0% | 0hPa | 0V | 00:00:00 | 00:00:00 | 00:00:00 | |
| SQ9PSP-11 | 2026-09-06 00:17:35 | 49.57980 | 22.47272 | 72° | 29km/h | 19044m | 3.5m/s | 0°C | 0% | 0hPa | 0V | 00:00:00 | 00:00:00 | 00:00:00 | |
| AKAW682 | 2026-09-06 00:17:23 | 49.58007 | 22.47152 | 97° | 51km/h | 18983m | 3.7m/s | 0°C | 0% | 0hPa | 0V | 00:00:00 | 00:00:00 | 00:00:00 | |
| AKAW68 | 2026-09-06 00:17:18 | 49.58008 | 22.47118 | 132° | 33km/h | 18958m | 7.0m/s | 0°C | 0% | 0hPa | 0V | 00:00:00 | 00:00:00 | 00:00:00 | |
| SQ9PSP-11 | 2026-09-06 00:17:02 | 49.58048 | 22.46977 | 73° | 47km/h | 18867m | 7.5m/s | 0°C | 0% | 0hPa | 0V | 00:00:00 | 00:00:00 | 00:00:00 | |
| AKAW682 | 2026-09-06 00:16:59 | 49.58046 | 22.46946 | 150° | 22km/h | 18849m | 8.2m/s | 0°C | 0% | 0hPa | 0V | 00:00:00 | 00:00:00 | 00:00:00 | |
| AKAW68 | 2026-09-06 00:16:57 | 49.58060 | 22.46938 | 153° | 33km/h | 18837m | 4.5m/s | 0°C | 0% | 0hPa | 0V | 00:00:00 | 00:00:00 | 00:00:00 | |
| SQ9PSP-11 | 2026-09-06 00:16:47 | 49.58102 | 22.46868 | 178° | 27km/h | 18775m | 7.9m/s | 0°C | 0% | 0hPa | 0V | 00:00:00 | 00:00:00 | 00:00:00 | |
| AKAW68 | 2026-09-06 00:16:37 | 49.58136 | 22.46770 | 130° | 47km/h | 18695m | 8.2m/s | 0°C | 0% | 0hPa | 0V | 00:00:00 | 00:00:00 | 00:00:00 | |
| SQ9PSP-11 | 2026-09-06 00:16:31 | 49.58170 | 22.46697 | 85° | 55km/h | 18655m | 4.7m/s | 0°C | 0% | 0hPa | 0V | 00:00:00 | 00:00:00 | 00:00:00 | |
| AKAW68 | 2026-09-06 00:16:16 | 49.58264 | 22.46487 | 117° | 49km/h | 18572m | 4.8m/s | 0°C | 0% | 0hPa | 0V | 00:00:00 | 00:00:00 | 00:00:00 | |
| SQ9PSP-11 | 2026-09-06 00:15:59 | 49.58399 | 22.46175 | 121° | 55km/h | 18482m | 4.3m/s | 0°C | 0% | 0hPa | 0V | 00:00:00 | 00:00:00 | 00:00:00 | |
| AKAW68 | 2026-09-06 00:15:55 | 49.58438 | 22.46099 | 122° | 71km/h | 18464m | 4.3m/s | 0°C | 0% | 0hPa | 0V | 00:00:00 | 00:00:00 | 00:00:00 | |
| AKAW682 | 2026-09-06 00:15:54 | 49.58446 | 22.46074 | 112° | 71km/h | 18459m | 7.0m/s | 0°C | 0% | 0hPa | 0V | 00:00:00 | 00:00:00 | 00:00:00 | |
| SQ9PSP-11 | 2026-09-06 00:15:43 | 49.58523 | 22.45849 | 123° | 58km/h | 18404m | 5.1m/s | 0°C | 0% | 0hPa | 0V | 00:00:00 | 00:00:00 | 00:00:00 | |
| AKAW68 | 2026-09-06 00:15:34 | 49.58594 | 22.45671 | 139° | 66km/h | 18357m | 6.9m/s | 0°C | 0% | 0hPa | 0V | 00:00:00 | 00:00:00 | 00:00:00 | |
| SQ9PSP-11 | 2026-09-06 00:15:27 | 49.58643 | 22.45550 | 151° | 75km/h | 18318m | 7.2m/s | 0°C | 0% | 0hPa | 0V | 00:00:00 | 00:00:00 | 00:00:00 | |
| AKAW682 | 2026-09-06 00:15:26 | 49.58658 | 22.45538 | 156° | 62km/h | 18313m | 2.5m/s | 0°C | 0% | 0hPa | 0V | 00:00:00 | 00:00:00 | 00:00:00 | |
| AKAW68 | 2026-09-06 00:15:13 | 49.58743 | 22.45332 | 120° | 75km/h | 18243m | 5.6m/s | 0°C | 0% | 0hPa | 0V | 00:00:00 | 00:00:00 | 00:00:00 | |
| SQ9PSP-11 | 2026-09-06 00:15:12 | 49.58753 | 22.45307 | 126° | 71km/h | 18237m | 5.5m/s | 0°C | 0% | 0hPa | 0V | 00:00:00 | 00:00:00 | 00:00:00 | |
| SQ9PSP-11 | 2026-09-06 00:14:56 | 49.58869 | 22.44976 | 138° | 58km/h | 18147m | 3.0m/s | 0°C | 0% | 0hPa | 0V | 00:00:00 | 00:00:00 | 00:00:00 | |
| AKAW68 | 2026-09-06 00:14:52 | 49.58896 | 22.44868 | 102° | 77km/h | 18121m | 4.5m/s | 0°C | 0% | 0hPa | 0V | 00:00:00 | 00:00:00 | 00:00:00 | |
| SQ9PSP-11 | 2026-09-06 00:14:41 | 49.58963 | 22.44585 | 103° | 78km/h | 18058m | 6.3m/s | 0°C | 0% | 0hPa | 0V | 00:00:00 | 00:00:00 | 00:00:00 | |
| AKAW68 | 2026-09-06 00:14:32 | 49.58996 | 22.44325 | 94° | 60km/h | 18008m | 5.0m/s | 0°C | 0% | 0hPa | 0V | 00:00:00 | 00:00:00 | 00:00:00 | |
| AKAW682 | 2026-09-06 00:14:28 | 49.59019 | 22.44219 | 104° | 82km/h | 17988m | 5.3m/s | 0°C | 0% | 0hPa | 0V | 00:00:00 | 00:00:00 | 00:00:00 | |
| SQ9PSP-11 | 2026-09-06 00:14:25 | 49.59027 | 22.44124 | 102° | 78km/h | 17974m | 5.8m/s | 0°C | 0% | 0hPa | 0V | 00:00:00 | 00:00:00 | 00:00:00 | |
| MIELECB | 2026-09-06 00:14:19 | 49.59053 | 22.43956 | 104° | 86km/h | 17944m | 5.4m/s | 0°C | 0% | 0hPa | 0V | 00:00:00 | 00:00:00 | 00:00:00 | |
| MIELECB | 2026-09-06 00:14:11 | 49.59093 | 22.43737 | 103° | 71km/h | 17908m | 5.8m/s | 0°C | 0% | 0hPa | 0V | 00:00:00 | 00:00:00 | 00:00:00 | |
| SQ9PSP-11 | 2026-09-06 00:14:09 | 49.59099 | 22.43680 | 102° | 75km/h | 17898m | 5.1m/s | 0°C | 0% | 0hPa | 0V | 00:00:00 | 00:00:00 | 00:00:00 | |
| AKAW682 | 2026-09-06 00:14:06 | 49.59113 | 22.43604 | 104° | 58km/h | 17886m | 5.9m/s | 0°C | 0% | 0hPa | 0V | 00:00:00 | 00:00:00 | 00:00:00 | |
| MIELECB | 2026-09-06 00:14:05 | 49.59115 | 22.43581 | 94° | 62km/h | 17880m | 4.5m/s | 0°C | 0% | 0hPa | 0V | 00:00:00 | 00:00:00 | 00:00:00 | |
| MIELECB | 2026-09-06 00:13:59 | 49.59144 | 22.43418 | 99° | 60km/h | 17855m | 3.1m/s | 0°C | 0% | 0hPa | 0V | 00:00:00 | 00:00:00 | 00:00:00 | |
| GYPAP8-17 | 2026-09-06 00:13:58 | 49.59146 | 22.43393 | 95° | 69km/h | 17851m | 4.8m/s | 0°C | 0% | 0hPa | 0V | 00:00:00 | 00:00:00 | 00:00:00 | |
| MIELECB | 2026-09-06 00:13:54 | 49.59158 | 22.43273 | 104° | 71km/h | 17835m | 4.1m/s | 0°C | 0% | 0hPa | 0V | 00:00:00 | 00:00:00 | 00:00:00 | |
| AKAW68 | 2026-09-06 00:13:51 | 49.59170 | 22.43187 | 102° | 86km/h | 17824m | 4.9m/s | 0°C | 0% | 0hPa | 0V | 00:00:00 | 00:00:00 | 00:00:00 | |
| MIELECB | 2026-09-06 00:13:47 | 49.59184 | 22.43073 | 109° | 68km/h | 17809m | 3.2m/s | 0°C | 0% | 0hPa | 0V | 00:00:00 | 00:00:00 | 00:00:00 | |
| AKAW682 | 2026-09-06 00:13:41 | 49.59208 | 22.42857 | 97° | 88km/h | 17781m | 5.0m/s | 0°C | 0% | 0hPa | 0V | 00:00:00 | 00:00:00 | 00:00:00 | |
| SQ9PSP-11 | 2026-09-06 00:13:39 | 49.59212 | 22.42823 | 102° | 93km/h | 17777m | 3.3m/s | 0°C | 0% | 0hPa | 0V | 00:00:00 | 00:00:00 | 00:00:00 | |
| MIELECB | 2026-09-06 00:13:35 | 49.59223 | 22.42702 | 95° | 73km/h | 17762m | 4.7m/s | 0°C | 0% | 0hPa | 0V | 00:00:00 | 00:00:00 | 00:00:00 | |
| MIELECB | 2026-09-06 00:13:29 | 49.59237 | 22.42514 | 100° | 86km/h | 17740m | 5.7m/s | 0°C | 0% | 0hPa | 0V | 00:00:00 | 00:00:00 | 00:00:00 | |
| SQ9PSP-11 | 2026-09-06 00:13:24 | 49.59244 | 22.42365 | 89° | 75km/h | 17723m | 2.1m/s | 0°C | 0% | 0hPa | 0V | 00:00:00 | 00:00:00 | 00:00:00 | |
| AKAW682 | 2026-09-06 00:13:18 | 49.59249 | 22.42175 | 84° | 68km/h | 17700m | 3.2m/s | 0°C | 0% | 0hPa | 0V | 00:00:00 | 00:00:00 | 00:00:00 | |
| MIELECB | 2026-09-06 00:13:13 | 49.59252 | 22.42014 | 95° | 77km/h | 17681m | 4.2m/s | 0°C | 0% | 0hPa | 0V | 00:00:00 | 00:00:00 | 00:00:00 | |
| SQ9PSP-11 | 2026-09-06 00:13:08 | 49.59249 | 22.41857 | 86° | 82km/h | 17661m | 2.8m/s | 0°C | 0% | 0hPa | 0V | 00:00:00 | 00:00:00 | 00:00:00 | |
| MIELECB | 2026-09-06 00:13:07 | 49.59248 | 22.41824 | 89° | 86km/h | 17657m | 4.0m/s | 0°C | 0% | 0hPa | 0V | 00:00:00 | 00:00:00 | 00:00:00 | |
| MIELECB | 2026-09-06 00:13:01 | 49.59245 | 22.41632 | 85° | 86km/h | 17634m | 4.8m/s | 0°C | 0% | 0hPa | 0V | 00:00:00 | 00:00:00 | 00:00:00 | |
| AKAW682 | 2026-09-06 00:12:56 | 49.59240 | 22.41472 | 89° | 78km/h | 17616m | 3.7m/s | 0°C | 0% | 0hPa | 0V | 00:00:00 | 00:00:00 | 00:00:00 | |
| MIELECB | 2026-09-06 00:12:55 | 49.59239 | 22.41440 | 92° | 86km/h | 17612m | 4.0m/s | 0°C | 0% | 0hPa | 0V | 00:00:00 | 00:00:00 | 00:00:00 | |
| SQ9PSP-11 | 2026-09-06 00:12:52 | 49.59241 | 22.41344 | 89° | 75km/h | 17600m | 2.7m/s | 0°C | 0% | 0hPa | 0V | 00:00:00 | 00:00:00 | 00:00:00 | |
| MIELECB | 2026-09-06 00:12:50 | 49.59238 | 22.41283 | 84° | 82km/h | 17592m | 3.5m/s | 0°C | 0% | 0hPa | 0V | 00:00:00 | 00:00:00 | 00:00:00 | |
| MIELECB | 2026-09-06 00:12:44 | 49.59229 | 22.41104 | 86° | 84km/h | 17569m | 2.7m/s | 0°C | 0% | 0hPa | 0V | 00:00:00 | 00:00:00 | 00:00:00 | |
| MIELECB | 2026-09-06 00:12:38 | 49.59220 | 22.40919 | 89° | 82km/h | 17547m | 3.2m/s | 0°C | 0% | 0hPa | 0V | 00:00:00 | 00:00:00 | 00:00:00 | |
| SQ9PSP-11 | 2026-09-06 00:12:37 | 49.59219 | 22.40890 | 88° | 69km/h | 17542m | 6.6m/s | 0°C | 0% | 0hPa | 0V | 00:00:00 | 00:00:00 | 00:00:00 | |
| GYPAP8-17 | 2026-09-06 00:12:36 | 49.59219 | 22.40864 | 92° | 60km/h | 17537m | 3.7m/s | 0°C | 0% | 0hPa | 0V | 00:00:00 | 00:00:00 | 00:00:00 | |
| AKAW682 | 2026-09-06 00:12:34 | 49.59223 | 22.40813 | 101° | 77km/h | 17528m | 4.7m/s | 0°C | 0% | 0hPa | 0V | 00:00:00 | 00:00:00 | 00:00:00 | |
| MIELECB | 2026-09-06 00:12:32 | 49.59228 | 22.40751 | 92° | 80km/h | 17520m | 5.1m/s | 0°C | 0% | 0hPa | 0V | 00:00:00 | 00:00:00 | 00:00:00 | |
| AKAW68 | 2026-09-06 00:12:27 | 49.59230 | 22.40616 | 103° | 68km/h | 17498m | 2.8m/s | 0°C | 0% | 0hPa | 0V | 00:00:00 | 00:00:00 | 00:00:00 | |
| MIELECB | 2026-09-06 00:12:22 | 49.59230 | 22.40486 | 102° | 75km/h | 17477m | 4.6m/s | 0°C | 0% | 0hPa | 0V | 00:00:00 | 00:00:00 | 00:00:00 | |
| MIELECB | 2026-09-06 00:12:16 | 49.59238 | 22.40340 | 101° | 77km/h | 17451m | 3.9m/s | 0°C | 0% | 0hPa | 0V | 00:00:00 | 00:00:00 | 00:00:00 | |
| AKAW682 | 2026-09-06 00:12:13 | 49.59251 | 22.40263 | 102° | 57km/h | 17438m | 5.4m/s | 0°C | 0% | 0hPa | 0V | 00:00:00 | 00:00:00 | 00:00:00 | |
| MIELECB | 2026-09-06 00:12:10 | 49.59259 | 22.40196 | 106° | 68km/h | 17425m | 4.1m/s | 0°C | 0% | 0hPa | 0V | 00:00:00 | 00:00:00 | 00:00:00 | |
| AKAW68 | 2026-09-06 00:12:07 | 49.59271 | 22.40118 | 103° | 71km/h | 17412m | 3.8m/s | 0°C | 0% | 0hPa | 0V | 00:00:00 | 00:00:00 | 00:00:00 | |
| SQ9PSP-11 | 2026-09-06 00:12:06 | 49.59275 | 22.40090 | 104° | 75km/h | 17407m | 5.6m/s | 0°C | 0% | 0hPa | 0V | 00:00:00 | 00:00:00 | 00:00:00 | |
| MIELECB | 2026-09-06 00:12:04 | 49.59284 | 22.40038 | 106° | 62km/h | 17397m | 5.0m/s | 0°C | 0% | 0hPa | 0V | 00:00:00 | 00:00:00 | 00:00:00 | |
| MIELECB | 2026-09-06 00:11:58 | 49.59309 | 22.39891 | 109° | 68km/h | 17371m | 4.4m/s | 0°C | 0% | 0hPa | 0V | 00:00:00 | 00:00:00 | 00:00:00 | |
| MIELECB | 2026-09-06 00:11:52 | 49.59330 | 22.39746 | 101° | 75km/h | 17346m | 3.3m/s | 0°C | 0% | 0hPa | 0V | 00:00:00 | 00:00:00 | 00:00:00 | |
| SQ9PSP-11 | 2026-09-06 00:11:50 | 49.59337 | 22.39699 | 116° | 49km/h | 17337m | 4.8m/s | 0°C | 0% | 0hPa | 0V | 00:00:00 | 00:00:00 | 00:00:00 | |
| MIELECB | 2026-09-06 00:11:47 | 49.59358 | 22.39638 | 108° | 75km/h | 17324m | 3.8m/s | 0°C | 0% | 0hPa | 0V | 00:00:00 | 00:00:00 | 00:00:00 | |
| AKAW68 | 2026-09-06 00:11:44 | 49.59365 | 22.39558 | 97° | 58km/h | 17310m | 4.5m/s | 0°C | 0% | 0hPa | 0V | 00:00:00 | 00:00:00 | 00:00:00 | |
| MIELECB | 2026-09-06 00:11:34 | 49.59408 | 22.39305 | 122° | 60km/h | 17261m | 5.7m/s | 0°C | 0% | 0hPa | 0V | 00:00:00 | 00:00:00 | 00:00:00 | |
| MIELECB | 2026-09-06 00:11:28 | 49.59430 | 22.39149 | 97° | 57km/h | 17230m | 5.0m/s | 0°C | 0% | 0hPa | 0V | 00:00:00 | 00:00:00 | 00:00:00 | |
| GYPAP8-17 | 2026-09-06 00:11:25 | 49.59443 | 22.39077 | 106° | 71km/h | 17215m | 3.8m/s | 0°C | 0% | 0hPa | 0V | 00:00:00 | 00:00:00 | 00:00:00 | |
| AKAW682 | 2026-09-06 00:11:24 | 49.59447 | 22.39051 | 102° | 68km/h | 17210m | 5.7m/s | 0°C | 0% | 0hPa | 0V | 00:00:00 | 00:00:00 | 00:00:00 | |
| MIELECB | 2026-09-06 00:11:22 | 49.59451 | 22.39002 | 96° | 62km/h | 17200m | 3.7m/s | 0°C | 0% | 0hPa | 0V | 00:00:00 | 00:00:00 | 00:00:00 | |
| SQ9PSP-11 | 2026-09-06 00:11:19 | 49.59462 | 22.38926 | 109° | 69km/h | 17185m | 4.1m/s | 0°C | 0% | 0hPa | 0V | 00:00:00 | 00:00:00 | 00:00:00 | |
| MIELECB | 2026-09-06 00:11:16 | 49.59470 | 22.38857 | 93° | 62km/h | 17170m | 3.2m/s | 0°C | 0% | 0hPa | 0V | 00:00:00 | 00:00:00 | 00:00:00 | |
| MIELECB | 2026-09-06 00:11:11 | 49.59486 | 22.38732 | 98° | 53km/h | 17143m | 4.0m/s | 0°C | 0% | 0hPa | 0V | 00:00:00 | 00:00:00 | 00:00:00 | |
| MIELECB | 2026-09-06 00:11:06 | 49.59493 | 22.38610 | 102° | 55km/h | 17116m | 5.6m/s | 0°C | 0% | 0hPa | 0V | 00:00:00 | 00:00:00 | 00:00:00 | |
| SQ9PSP-11 | 2026-09-06 00:11:03 | 49.59498 | 22.38539 | 91° | 71km/h | 17101m | 4.9m/s | 0°C | 0% | 0hPa | 0V | 00:00:00 | 00:00:00 | 00:00:00 | |
| AKAW682 | 2026-09-06 00:11:01 | 49.59499 | 22.38488 | 97° | 60km/h | 17092m | 7.8m/s | 0°C | 0% | 0hPa | 0V | 00:00:00 | 00:00:00 | 00:00:00 | |
| MIELECB | 2026-09-06 00:11:00 | 49.59501 | 22.38466 | 105° | 53km/h | 17086m | 5.3m/s | 0°C | 0% | 0hPa | 0V | 00:00:00 | 00:00:00 | 00:00:00 | |
| MIELECB | 2026-09-06 00:10:55 | 49.59513 | 22.38341 | 98° | 60km/h | 17059m | 6.3m/s | 0°C | 0% | 0hPa | 0V | 00:00:00 | 00:00:00 | 00:00:00 | |
| MIELECB | 2026-09-06 00:10:49 | 49.59530 | 22.38193 | 102° | 64km/h | 17029m | 5.8m/s | 0°C | 0% | 0hPa | 0V | 00:00:00 | 00:00:00 | 00:00:00 | |
| SQ9PSP-11 | 2026-09-06 00:10:48 | 49.59533 | 22.38170 | 105° | 60km/h | 17023m | 5.5m/s | 0°C | 0% | 0hPa | 0V | 00:00:00 | 00:00:00 | 00:00:00 | |
| MIELECB | 2026-09-06 00:10:44 | 49.59547 | 22.38068 | 105° | 62km/h | 17002m | 7.1m/s | 0°C | 0% | 0hPa | 0V | 00:00:00 | 00:00:00 | 00:00:00 | |
| MIELECB | 2026-09-06 00:10:38 | 49.59563 | 22.37913 | 98° | 64km/h | 16967m | 7.2m/s | 0°C | 0% | 0hPa | 0V | 00:00:00 | 00:00:00 | 00:00:00 | |
| SQ9PSP-11 | 2026-09-06 00:10:32 | 49.59579 | 22.37764 | 95° | 66km/h | 16934m | 6.7m/s | 0°C | 0% | 0hPa | 0V | 00:00:00 | 00:00:00 | 00:00:00 | |
| MIELECB | 2026-09-06 00:10:26 | 49.59582 | 22.37612 | 105° | 57km/h | 16901m | 3.6m/s | 0°C | 0% | 0hPa | 0V | 00:00:00 | 00:00:00 | 00:00:00 | |
| GYPAP8-17 | 2026-09-06 00:10:23 | 49.59586 | 22.37532 | 85° | 80km/h | 16885m | 4.4m/s | 0°C | 0% | 0hPa | 0V | 00:00:00 | 00:00:00 | 00:00:00 | |
| MIELECB | 2026-09-06 00:10:19 | 49.59582 | 22.37437 | 96° | 60km/h | 16863m | 5.5m/s | 0°C | 0% | 0hPa | 0V | 00:00:00 | 00:00:00 | 00:00:00 | |
| SQ9PSP-11 | 2026-09-06 00:10:16 | 49.59586 | 22.37355 | 93° | 68km/h | 16848m | 6.5m/s | 0°C | 0% | 0hPa | 0V | 00:00:00 | 00:00:00 | 00:00:00 | |
| MIELECB | 2026-09-06 00:10:14 | 49.59586 | 22.37307 | 89° | 60km/h | 16838m | 4.5m/s | 0°C | 0% | 0hPa | 0V | 00:00:00 | 00:00:00 | 00:00:00 | |
| MIELECB | 2026-09-06 00:10:08 | 49.59590 | 22.37154 | 91° | 68km/h | 16808m | 5.3m/s | 0°C | 0% | 0hPa | 0V | 00:00:00 | 00:00:00 | 00:00:00 | |
| MIELECB | 2026-09-06 00:10:03 | 49.59588 | 22.37037 | 93° | 62km/h | 16783m | 5.9m/s | 0°C | 0% | 0hPa | 0V | 00:00:00 | 00:00:00 | 00:00:00 | |
| SQ9PSP-11 | 2026-09-06 00:10:01 | 49.59588 | 22.36981 | 90° | 77km/h | 16773m | 4.1m/s | 0°C | 0% | 0hPa | 0V | 00:00:00 | 00:00:00 | 00:00:00 | |
| MIELECB | 2026-09-06 00:09:58 | 49.59590 | 22.36909 | 99° | 53km/h | 16758m | 4.1m/s | 0°C | 0% | 0hPa | 0V | 00:00:00 | 00:00:00 | 00:00:00 | |
| MIELECB | 2026-09-06 00:09:52 | 49.59587 | 22.36765 | 90° | 71km/h | 16728m | 6.4m/s | 0°C | 0% | 0hPa | 0V | 00:00:00 | 00:00:00 | 00:00:00 | |
| SQ9PSP-11 | 2026-09-06 00:09:46 | 49.59580 | 22.36624 | 81° | 71km/h | 16697m | 6.7m/s | 0°C | 0% | 0hPa | 0V | 00:00:00 | 00:00:00 | 00:00:00 | |
| MIELECB | 2026-09-06 00:09:40 | 49.59580 | 22.36480 | 86° | 73km/h | 16667m | 4.4m/s | 0°C | 0% | 0hPa | 0V | 00:00:00 | 00:00:00 | 00:00:00 | |
| MIELECB | 2026-09-06 00:09:35 | 49.59580 | 22.36373 | 103° | 66km/h | 16643m | 5.0m/s | 0°C | 0% | 0hPa | 0V | 00:00:00 | 00:00:00 | 00:00:00 | |
| SQ9PSP-11 | 2026-09-06 00:09:30 | 49.59566 | 22.36250 | 88° | 55km/h | 16621m | 5.6m/s | 0°C | 0% | 0hPa | 0V | 00:00:00 | 00:00:00 | 00:00:00 | |
| MIELECB | 2026-09-06 00:09:29 | 49.59568 | 22.36227 | 107° | 62km/h | 16615m | 5.4m/s | 0°C | 0% | 0hPa | 0V | 00:00:00 | 00:00:00 | 00:00:00 | |
| MIELECB | 2026-09-06 00:09:23 | 49.59559 | 22.36090 | 83° | 69km/h | 16588m | 4.1m/s | 0°C | 0% | 0hPa | 0V | 00:00:00 | 00:00:00 | 00:00:00 | |
| GYPAP8-17 | 2026-09-06 00:09:20 | 49.59562 | 22.36022 | 101° | 46km/h | 16573m | 4.2m/s | 0°C | 0% | 0hPa | 0V | 00:00:00 | 00:00:00 | 00:00:00 | |
| MIELECB | 2026-09-06 00:09:16 | 49.59557 | 22.35931 | 83° | 80km/h | 16556m | 0.7m/s | 0°C | 0% | 0hPa | 0V | 00:00:00 | 00:00:00 | 00:00:00 | |
| SQ9PSP-11 | 2026-09-06 00:09:15 | 49.59555 | 22.35903 | 84° | 69km/h | 16555m | 2.6m/s | 0°C | 0% | 0hPa | 0V | 00:00:00 | 00:00:00 | 00:00:00 | |
| MIELECB | 2026-09-06 00:09:10 | 49.59556 | 22.35803 | 86° | 75km/h | 16531m | 7.6m/s | 0°C | 0% | 0hPa | 0V | 00:00:00 | 00:00:00 | 00:00:00 | |
| MIELECB | 2026-09-06 00:09:04 | 49.59558 | 22.35663 | 100° | 62km/h | 16499m | 6.1m/s | 0°C | 0% | 0hPa | 0V | 00:00:00 | 00:00:00 | 00:00:00 | |
| SQ9PSP-11 | 2026-09-06 00:08:59 | 49.59556 | 22.35547 | 94° | 58km/h | 16478m | 5.6m/s | 0°C | 0% | 0hPa | 0V | 00:00:00 | 00:00:00 | 00:00:00 | |
| MIELECB | 2026-09-06 00:08:58 | 49.59556 | 22.35523 | 93° | 69km/h | 16472m | 6.5m/s | 0°C | 0% | 0hPa | 0V | 00:00:00 | 00:00:00 | 00:00:00 | |
| AKAW68 | 2026-09-06 00:08:48 | 49.59570 | 22.35288 | 86° | 58km/h | 16422m | 4.1m/s | 0°C | 0% | 0hPa | 0V | 00:00:00 | 00:00:00 | 00:00:00 | |
| MIELECB | 2026-09-06 00:08:44 | 49.59577 | 22.35191 | 110° | 57km/h | 16404m | 4.6m/s | 0°C | 0% | 0hPa | 0V | 00:00:00 | 00:00:00 | 00:00:00 | |
| SQ9PSP-11 | 2026-09-06 00:08:43 | 49.59582 | 22.35170 | 109° | 58km/h | 16399m | 4.6m/s | 0°C | 0% | 0hPa | 0V | 00:00:00 | 00:00:00 | 00:00:00 | |
| SQ9PSP-11 | 2026-09-06 00:08:28 | 49.59616 | 22.34807 | 109° | 69km/h | 16335m | 3.6m/s | 0°C | 0% | 0hPa | 0V | 00:00:00 | 00:00:00 | 00:00:00 | |
| AKAW68 | 2026-09-06 00:08:27 | 49.59622 | 22.34780 | 106° | 77km/h | 16330m | 5.0m/s | 0°C | 0% | 0hPa | 0V | 00:00:00 | 00:00:00 | 00:00:00 | |
| GYPAP8-17 | 2026-09-06 00:08:15 | 49.59645 | 22.34486 | 90° | 57km/h | 16280m | 5.3m/s | 0°C | 0% | 0hPa | 0V | 00:00:00 | 00:00:00 | 00:00:00 | |
| SQ9PSP-11 | 2026-09-06 00:08:13 | 49.59650 | 22.34446 | 110° | 57km/h | 16270m | 3.1m/s | 0°C | 0% | 0hPa | 0V | 00:00:00 | 00:00:00 | 00:00:00 | |
| AKAW68 | 2026-09-06 00:08:06 | 49.59671 | 22.34276 | 95° | 53km/h | 16241m | 5.1m/s | 0°C | 0% | 0hPa | 0V | 00:00:00 | 00:00:00 | 00:00:00 | |
| SQ9PSP-11 | 2026-09-06 00:07:57 | 49.59693 | 22.34040 | 106° | 68km/h | 16201m | 6.2m/s | 0°C | 0% | 0hPa | 0V | 00:00:00 | 00:00:00 | 00:00:00 | |
| SQ9PSP-11 | 2026-09-06 00:07:42 | 49.59730 | 22.33660 | 97° | 73km/h | 16135m | 5.4m/s | 0°C | 0% | 0hPa | 0V | 00:00:00 | 00:00:00 | 00:00:00 | |
| AKAW68 | 2026-09-06 00:07:37 | 49.59740 | 22.33540 | 91° | 66km/h | 16113m | 4.6m/s | 0°C | 0% | 0hPa | 0V | 00:00:00 | 00:00:00 | 00:00:00 | |
| SQ9PSP-11 | 2026-09-06 00:07:26 | 49.59764 | 22.33242 | 101° | 77km/h | 16064m | 6.2m/s | 0°C | 0% | 0hPa | 0V | 00:00:00 | 00:00:00 | 00:00:00 | |
| SQ9PSP-11 | 2026-09-06 00:07:10 | 49.59808 | 22.32798 | 99° | 78km/h | 15989m | 6.0m/s | 0°C | 0% | 0hPa | 0V | 00:00:00 | 00:00:00 | 00:00:00 | |
| GYPAP8-17 | 2026-09-06 00:07:09 | 49.59810 | 22.32768 | 98° | 75km/h | 15983m | 5.0m/s | 0°C | 0% | 0hPa | 0V | 00:00:00 | 00:00:00 | 00:00:00 | |
| SQ9PSP-11 | 2026-09-06 00:06:54 | 49.59841 | 22.32361 | 88° | 71km/h | 15915m | 6.5m/s | 0°C | 0% | 0hPa | 0V | 00:00:00 | 00:00:00 | 00:00:00 | |
| SQ9PSP-11 | 2026-09-06 00:06:39 | 49.59862 | 22.31971 | 102° | 71km/h | 15844m | 6.3m/s | 0°C | 0% | 0hPa | 0V | 00:00:00 | 00:00:00 | 00:00:00 | |
| SQ9PSP-11 | 2026-09-06 00:06:24 | 49.59881 | 22.31580 | 94° | 77km/h | 15769m | 4.5m/s | 0°C | 0% | 0hPa | 0V | 00:00:00 | 00:00:00 | 00:00:00 | |
| SQ9PSP-11 | 2026-09-06 00:06:10 | 49.59891 | 22.31192 | 92° | 57km/h | 15696m | 4.1m/s | 0°C | 0% | 0hPa | 0V | 00:00:00 | 00:00:00 | 00:00:00 | |
| GYPAP8-17 | 2026-09-06 00:06:07 | 49.59893 | 22.31111 | 102° | 77km/h | 15682m | 6.4m/s | 0°C | 0% | 0hPa | 0V | 00:00:00 | 00:00:00 | 00:00:00 | |
| SQ9PSP-11 | 2026-09-06 00:05:53 | 49.59932 | 22.30795 | 114° | 66km/h | 15618m | 3.8m/s | 0°C | 0% | 0hPa | 0V | 00:00:00 | 00:00:00 | 00:00:00 | |
| SQ9PSP-11 | 2026-09-06 00:05:38 | 49.59995 | 22.30431 | 122° | 53km/h | 15545m | 4.9m/s | 0°C | 0% | 0hPa | 0V | 00:00:00 | 00:00:00 | 00:00:00 | |
| MIELECB | 2026-09-06 00:05:33 | 49.60025 | 22.30311 | 108° | 80km/h | 15518m | 3.1m/s | 0°C | 0% | 0hPa | 0V | 00:00:00 | 00:00:00 | 00:00:00 | |
| MIELECB | 2026-09-06 00:05:27 | 49.60062 | 22.30188 | 110° | 89km/h | 15488m | 6.2m/s | 0°C | 0% | 0hPa | 0V | 00:00:00 | 00:00:00 | 00:00:00 | |
| SQ9PSP-11 | 2026-09-06 00:05:24 | 49.60083 | 22.30078 | 126° | 55km/h | 15468m | 6.5m/s | 0°C | 0% | 0hPa | 0V | 00:00:00 | 00:00:00 | 00:00:00 | |
| MIELECB | 2026-09-06 00:05:22 | 49.60115 | 22.30014 | 117° | 73km/h | 15455m | 5.9m/s | 0°C | 0% | 0hPa | 0V | 00:00:00 | 00:00:00 | 00:00:00 | |
| MIELECB | 2026-09-06 00:05:14 | 49.60151 | 22.29857 | 126° | 97km/h | 15415m | 4.3m/s | 0°C | 0% | 0hPa | 0V | 00:00:00 | 00:00:00 | 00:00:00 | |
| MIELECB | 2026-09-06 00:05:08 | 49.60195 | 22.29669 | 113° | 82km/h | 15377m | 7.1m/s | 0°C | 0% | 0hPa | 0V | 00:00:00 | 00:00:00 | 00:00:00 | |
| GYPAP8-17 | 2026-09-06 00:05:03 | 49.60229 | 22.29560 | 115° | 66km/h | 15356m | 4.9m/s | 0°C | 0% | 0hPa | 0V | 00:00:00 | 00:00:00 | 00:00:00 | |
| MIELECB | 2026-09-06 00:05:00 | 49.60266 | 22.29446 | 128° | 86km/h | 15335m | 6.0m/s | 0°C | 0% | 0hPa | 0V | 00:00:00 | 00:00:00 | 00:00:00 | |
| MIELECB | 2026-09-06 00:04:54 | 49.60305 | 22.29309 | 111° | 86km/h | 15314m | 3.1m/s | 0°C | 0% | 0hPa | 0V | 00:00:00 | 00:00:00 | 00:00:00 | |
| SQ9PSP-11 | 2026-09-06 00:04:51 | 49.60339 | 22.29234 | 134° | 77km/h | 15298m | 3.6m/s | 0°C | 0% | 0hPa | 0V | 00:00:00 | 00:00:00 | 00:00:00 | |
| MIELECB | 2026-09-06 00:04:49 | 49.60367 | 22.29151 | 110° | 88km/h | 15284m | 5.8m/s | 0°C | 0% | 0hPa | 0V | 00:00:00 | 00:00:00 | 00:00:00 | |
| MIELECB | 2026-09-06 00:04:42 | 49.60423 | 22.28973 | 117° | 86km/h | 15254m | 6.8m/s | 0°C | 0% | 0hPa | 0V | 00:00:00 | 00:00:00 | 00:00:00 | |
| SQ9EZE-12 | 2026-09-06 00:04:40 | 49.60445 | 22.28913 | 125° | 91km/h | 15244m | 6.7m/s | 0°C | 0% | 0hPa | 0V | 00:00:00 | 00:00:00 | 00:00:00 | |
| AKAW68 | 2026-09-06 00:04:37 | 49.60485 | 22.28830 | 121° | 88km/h | 15229m | 6.1m/s | 0°C | 0% | 0hPa | 0V | 00:00:00 | 00:00:00 | 00:00:00 | |
| SQ9PSP-11 | 2026-09-06 00:04:36 | 49.60505 | 22.28765 | 116° | 95km/h | 15220m | 3.2m/s | 0°C | 0% | 0hPa | 0V | 00:00:00 | 00:00:00 | 00:00:00 | |
| MIELECB | 2026-09-06 00:04:30 | 49.60582 | 22.28586 | 118° | 99km/h | 15192m | 3.8m/s | 0°C | 0% | 0hPa | 0V | 00:00:00 | 00:00:00 | 00:00:00 | |
| MIELECB | 2026-09-06 00:04:21 | 49.60690 | 22.28342 | 125° | 102km/h | 15151m | 4.0m/s | 0°C | 0% | 0hPa | 0V | 00:00:00 | 00:00:00 | 00:00:00 | |
| SQ9PSP-11 | 2026-09-06 00:04:20 | 49.60704 | 22.28309 | 123° | 99km/h | 15146m | 6.0m/s | 0°C | 0% | 0hPa | 0V | 00:00:00 | 00:00:00 | 00:00:00 | |
| MIELECB | 2026-09-06 00:04:16 | 49.60780 | 22.28144 | 125° | 108km/h | 15124m | 5.7m/s | 0°C | 0% | 0hPa | 0V | 00:00:00 | 00:00:00 | 00:00:00 | |
| SQ9EZE-12 | 2026-09-06 00:04:12 | 49.60815 | 22.28042 | 121° | 93km/h | 15108m | 6.1m/s | 0°C | 0% | 0hPa | 0V | 00:00:00 | 00:00:00 | 00:00:00 | |
| AKAW68 | 2026-09-06 00:04:09 | 49.60858 | 22.27949 | 125° | 104km/h | 15094m | 5.7m/s | 0°C | 0% | 0hPa | 0V | 00:00:00 | 00:00:00 | 00:00:00 | |
| SQ9PSP-11 | 2026-09-06 00:04:05 | 49.60926 | 22.27766 | 121° | 102km/h | 15071m | 5.6m/s | 0°C | 0% | 0hPa | 0V | 00:00:00 | 00:00:00 | 00:00:00 | |
| MIELECB | 2026-09-06 00:03:59 | 49.60997 | 22.27597 | 124° | 111km/h | 15047m | 5.5m/s | 0°C | 0% | 0hPa | 0V | 00:00:00 | 00:00:00 | 00:00:00 | |
| MIELECB | 2026-09-06 00:03:54 | 49.61077 | 22.27392 | 118° | 102km/h | 15018m | 6.0m/s | 0°C | 0% | 0hPa | 0V | 00:00:00 | 00:00:00 | 00:00:00 | |
| SQ9PSP-11 | 2026-09-06 00:03:49 | 49.61129 | 22.27250 | 125° | 106km/h | 15000m | 3.4m/s | 0°C | 0% | 0hPa | 0V | 00:00:00 | 00:00:00 | 00:00:00 | |
| MIELECB | 2026-09-06 00:03:47 | 49.61154 | 22.27179 | 115° | 104km/h | 14990m | 4.8m/s | 0°C | 0% | 0hPa | 0V | 00:00:00 | 00:00:00 | 00:00:00 | |
| AKAW68 | 2026-09-06 00:03:45 | 49.61178 | 22.27104 | 121° | 111km/h | 14981m | 5.2m/s | 0°C | 0% | 0hPa | 0V | 00:00:00 | 00:00:00 | 00:00:00 | |
| MIELECB | 2026-09-06 00:03:36 | 49.61297 | 22.26764 | 118° | 113km/h | 14940m | 4.7m/s | 0°C | 0% | 0hPa | 0V | 00:00:00 | 00:00:00 | 00:00:00 | |
| SQ9PSP-11 | 2026-09-06 00:03:34 | 49.61325 | 22.26688 | 122° | 113km/h | 14930m | 3.8m/s | 0°C | 0% | 0hPa | 0V | 00:00:00 | 00:00:00 | 00:00:00 | |
| AKAW68 | 2026-09-06 00:03:23 | 49.61497 | 22.26159 | 118° | 110km/h | 14864m | 6.0m/s | 0°C | 0% | 0hPa | 0V | 00:00:00 | 00:00:00 | 00:00:00 | |
| MIELECB | 2026-09-06 00:03:19 | 49.61564 | 22.25975 | 116° | 113km/h | 14840m | 6.0m/s | 0°C | 0% | 0hPa | 0V | 00:00:00 | 00:00:00 | 00:00:00 | |
| MIELECB | 2026-09-06 00:03:14 | 49.61662 | 22.25664 | 114° | 110km/h | 14804m | 5.9m/s | 0°C | 0% | 0hPa | 0V | 00:00:00 | 00:00:00 | 00:00:00 | |
| SQ9PSP-11 | 2026-09-06 00:03:13 | 49.61690 | 22.25551 | 118° | 110km/h | 14790m | 6.2m/s | 0°C | 0% | 0hPa | 0V | 00:00:00 | 00:00:00 | 00:00:00 | |
| GYPAP8-17 | 2026-09-06 00:03:07 | 49.61784 | 22.25291 | 121° | 108km/h | 14757m | 4.7m/s | 0°C | 0% | 0hPa | 0V | 00:00:00 | 00:00:00 | 00:00:00 | |
| SQ9PSP-11 | 2026-09-06 00:02:57 | 49.61896 | 22.24965 | 120° | 104km/h | 14720m | 5.0m/s | 0°C | 0% | 0hPa | 0V | 00:00:00 | 00:00:00 | 00:00:00 | |
| AKAW68 | 2026-09-06 00:02:49 | 49.62041 | 22.24596 | 121° | 108km/h | 14679m | 4.4m/s | 0°C | 0% | 0hPa | 0V | 00:00:00 | 00:00:00 | 00:00:00 | |
| SQ9PSP-11 | 2026-09-06 00:02:38 | 49.62111 | 22.24414 | 121° | 106km/h | 14658m | 3.1m/s | 0°C | 0% | 0hPa | 0V | 00:00:00 | 00:00:00 | 00:00:00 | |
| MIELECB | 2026-09-06 00:02:12 | 49.62420 | 22.23545 | 118° | 124km/h | 14568m | 4.2m/s | 0°C | 0% | 0hPa | 0V | 00:00:00 | 00:00:00 | 00:00:00 | |
| AKAW682 | 2026-09-06 00:02:06 | 49.62489 | 22.23344 | 115° | 124km/h | 14548m | 4.0m/s | 0°C | 0% | 0hPa | 0V | 00:00:00 | 00:00:00 | 00:00:00 | |
| MIELECB | 2026-09-06 00:02:01 | 49.62557 | 22.23146 | 118° | 115km/h | 14526m | 4.7m/s | 0°C | 0% | 0hPa | 0V | 00:00:00 | 00:00:00 | 00:00:00 | |
| GYPAP8-17 | 2026-09-06 00:01:58 | 49.62634 | 22.22915 | 116° | 119km/h | 14504m | 3.1m/s | 0°C | 0% | 0hPa | 0V | 00:00:00 | 00:00:00 | 00:00:00 | |
| MIELECB | 2026-09-06 00:01:57 | 49.62648 | 22.22874 | 120° | 117km/h | 14500m | 6.0m/s | 0°C | 0% | 0hPa | 0V | 00:00:00 | 00:00:00 | 00:00:00 | |
| SQ9PSP-11 | 2026-09-06 00:01:51 | 49.62739 | 22.22611 | 123° | 113km/h | 14469m | 3.3m/s | 0°C | 0% | 0hPa | 0V | 00:00:00 | 00:00:00 | 00:00:00 | |
| MIELECB | 2026-09-06 00:01:45 | 49.62827 | 22.22360 | 117° | 108km/h | 14443m | 6.7m/s | 0°C | 0% | 0hPa | 0V | 00:00:00 | 00:00:00 | 00:00:00 | |
| MIELECB | 2026-09-06 00:01:37 | 49.62889 | 22.22180 | 118° | 97km/h | 14423m | 4.9m/s | 0°C | 0% | 0hPa | 0V | 00:00:00 | 00:00:00 | 00:00:00 | |
| SQ9PSP-11 | 2026-09-06 00:01:34 | 49.62929 | 22.22032 | 122° | 102km/h | 14407m | 5.2m/s | 0°C | 0% | 0hPa | 0V | 00:00:00 | 00:00:00 | 00:00:00 | |
| MIELECB | 2026-09-06 00:01:30 | 49.62976 | 22.21895 | 109° | 91km/h | 14390m | 2.7m/s | 0°C | 0% | 0hPa | 0V | 00:00:00 | 00:00:00 | 00:00:00 | |
| MIELECB | 2026-09-06 00:01:25 | 49.63038 | 22.21725 | 116° | 120km/h | 14371m | 3.5m/s | 0°C | 0% | 0hPa | 0V | 00:00:00 | 00:00:00 | 00:00:00 | |
| SQ9PSP-11 | 2026-09-06 00:01:19 | 49.63101 | 22.21536 | 116° | 115km/h | 14345m | 8.2m/s | 0°C | 0% | 0hPa | 0V | 00:00:00 | 00:00:00 | 00:00:00 | |
| AKAW68 | 2026-09-06 00:01:17 | 49.63132 | 22.21415 | 116° | 88km/h | 14333m | 6.1m/s | 0°C | 0% | 0hPa | 0V | 00:00:00 | 00:00:00 | 00:00:00 | |
| MIELECB | 2026-09-06 00:01:10 | 49.63189 | 22.21268 | 113° | 128km/h | 14310m | 5.0m/s | 0°C | 0% | 0hPa | 0V | 00:00:00 | 00:00:00 | 00:00:00 | |
| MIELECB | 2026-09-06 00:01:00 | 49.63314 | 22.20902 | 121° | 108km/h | 14268m | 5.2m/s | 0°C | 0% | 0hPa | 0V | 00:00:00 | 00:00:00 | 00:00:00 | |
| AKAW68 | 2026-09-06 00:00:51 | 49.63408 | 22.20613 | 115° | 111km/h | 14233m | 3.6m/s | 0°C | 0% | 0hPa | 0V | 00:00:00 | 00:00:00 | 00:00:00 | |
| SQ9PSP-11 | 2026-09-06 00:00:47 | 49.63469 | 22.20425 | 115° | 110km/h | 14214m | 2.6m/s | 0°C | 0% | 0hPa | 0V | 00:00:00 | 00:00:00 | 00:00:00 | |
| MIELECB | 2026-09-06 00:00:44 | 49.63539 | 22.20196 | 117° | 111km/h | 14191m | 4.3m/s | 0°C | 0% | 0hPa | 0V | 00:00:00 | 00:00:00 | 00:00:00 | |
| MIELECB | 2026-09-06 00:00:36 | 49.63602 | 22.20002 | 113° | 117km/h | 14172m | 3.7m/s | 0°C | 0% | 0hPa | 0V | 00:00:00 | 00:00:00 | 00:00:00 | |
| SQ9PSP-11 | 2026-09-06 00:00:30 | 49.63669 | 22.19808 | 118° | 120km/h | 14153m | 2.4m/s | 0°C | 0% | 0hPa | 0V | 00:00:00 | 00:00:00 | 00:00:00 | |
| MIELECB | 2026-09-06 00:00:29 | 49.63669 | 22.19808 | 118° | 120km/h | 14153m | 2.4m/s | 0°C | 0% | 0hPa | 0V | 00:00:00 | 00:00:00 | 00:00:00 | |
| MIELECB | 2026-09-06 00:00:24 | 49.63731 | 22.19605 | 118° | 124km/h | 14135m | 2.7m/s | 0°C | 0% | 0hPa | 0V | 00:00:00 | 00:00:00 | 00:00:00 | |
| MIELECB | 2026-09-06 00:00:20 | 49.63807 | 22.19367 | 109° | 120km/h | 14113m | 2.1m/s | 0°C | 0% | 0hPa | 0V | 00:00:00 | 00:00:00 | 00:00:00 | |
| MIELECB | 2026-09-06 00:00:13 | 49.63871 | 22.19169 | 113° | 108km/h | 14095m | 3.5m/s | 0°C | 0% | 0hPa | 0V | 00:00:00 | 00:00:00 | 00:00:00 | |
| MIELECB | 2026-09-06 00:00:10 | 49.63941 | 22.18924 | 115° | 120km/h | 14068m | 5.4m/s | 0°C | 0% | 0hPa | 0V | 00:00:00 | 00:00:00 | 00:00:00 | |
| AKAW68 | 2026-09-06 00:00:09 | 49.63954 | 22.18879 | 113° | 133km/h | 14063m | 4.9m/s | 0°C | 0% | 0hPa | 0V | 00:00:00 | 00:00:00 | 00:00:00 | |
| MIELECB | 2026-09-06 00:00:00 | 49.64018 | 22.18628 | 105° | 126km/h | 14041m | 4.6m/s | 0°C | 0% | 0hPa | 0V | 00:00:00 | 00:00:00 | 00:00:00 | |
| AKAW682 | 2026-09-05 23:59:59 | 49.64026 | 22.18580 | 108° | 128km/h | 14036m | 5.4m/s | 0°C | 0% | 0hPa | 0V | 00:00:00 | 00:00:00 | 00:00:00 | |
| SQ9PSP-11 | 2026-09-05 23:59:57 | 49.64047 | 22.18495 | 113° | 106km/h | 14027m | 3.1m/s | 0°C | 0% | 0hPa | 0V | 00:00:00 | 00:00:00 | 00:00:00 | |
| MIELECB | 2026-09-05 23:59:54 | 49.64069 | 22.18374 | 103° | 115km/h | 14014m | 3.4m/s | 0°C | 0% | 0hPa | 0V | 00:00:00 | 00:00:00 | 00:00:00 | |
| MIELECB | 2026-09-05 23:59:46 | 49.64133 | 22.18032 | 107° | 106km/h | 13983m | 3.2m/s | 0°C | 0% | 0hPa | 0V | 00:00:00 | 00:00:00 | 00:00:00 | |
| GYPAP8-17 | 2026-09-05 23:59:43 | 49.64155 | 22.17901 | 104° | 119km/h | 13972m | 3.7m/s | 0°C | 0% | 0hPa | 0V | 00:00:00 | 00:00:00 | 00:00:00 | |
| SQ9PSP-11 | 2026-09-05 23:59:42 | 49.64162 | 22.17858 | 105° | 111km/h | 13968m | 5.0m/s | 0°C | 0% | 0hPa | 0V | 00:00:00 | 00:00:00 | 00:00:00 | |
| AKAW68 | 2026-09-05 23:59:41 | 49.64169 | 22.17817 | 105° | 108km/h | 13964m | 1.7m/s | 0°C | 0% | 0hPa | 0V | 00:00:00 | 00:00:00 | 00:00:00 | |
| MIELECB | 2026-09-05 23:59:39 | 49.64182 | 22.17733 | 102° | 117km/h | 13956m | 4.0m/s | 0°C | 0% | 0hPa | 0V | 00:00:00 | 00:00:00 | 00:00:00 | |
| AKAW682 | 2026-09-05 23:59:32 | 49.64233 | 22.17435 | 106° | 108km/h | 13931m | 5.7m/s | 0°C | 0% | 0hPa | 0V | 00:00:00 | 00:00:00 | 00:00:00 | |
| SQ9PSP-11 | 2026-09-05 23:59:27 | 49.64278 | 22.17224 | 109° | 115km/h | 13909m | 5.3m/s | 0°C | 0% | 0hPa | 0V | 00:00:00 | 00:00:00 | 00:00:00 | |
| GYPAP8-17 | 2026-09-05 23:59:22 | 49.64322 | 22.17019 | 111° | 111km/h | 13891m | 5.0m/s | 0°C | 0% | 0hPa | 0V | 00:00:00 | 00:00:00 | 00:00:00 | |
| MIELECB | 2026-09-05 23:59:19 | 49.64350 | 22.16892 | 109° | 117km/h | 13878m | 3.0m/s | 0°C | 0% | 0hPa | 0V | 00:00:00 | 00:00:00 | 00:00:00 | |
| AKAW68 | 2026-09-05 23:59:18 | 49.64360 | 22.16850 | 111° | 111km/h | 13874m | 5.5m/s | 0°C | 0% | 0hPa | 0V | 00:00:00 | 00:00:00 | 00:00:00 | |
| SQ9PSP-11 | 2026-09-05 23:59:11 | 49.64430 | 22.16565 | 114° | 99km/h | 13849m | 3.6m/s | 0°C | 0% | 0hPa | 0V | 00:00:00 | 00:00:00 | 00:00:00 | |
| AKAW682 | 2026-09-05 23:59:06 | 49.64480 | 22.16360 | 110° | 110km/h | 13828m | 4.6m/s | 0°C | 0% | 0hPa | 0V | 00:00:00 | 00:00:00 | 00:00:00 | |
| AKAW68 | 2026-09-05 23:58:57 | 49.64571 | 22.16000 | 111° | 111km/h | 13792m | 5.0m/s | 0°C | 0% | 0hPa | 0V | 00:00:00 | 00:00:00 | 00:00:00 | |
| SQ9PSP-11 | 2026-09-05 23:58:56 | 49.64580 | 22.15961 | 114° | 100km/h | 13788m | 3.6m/s | 0°C | 0% | 0hPa | 0V | 00:00:00 | 00:00:00 | 00:00:00 | |
| MIELECB | 2026-09-05 23:58:46 | 49.64685 | 22.15574 | 120° | 113km/h | 13746m | 4.9m/s | 0°C | 0% | 0hPa | 0V | 00:00:00 | 00:00:00 | 00:00:00 | |
| SQ9PSP-11 | 2026-09-05 23:58:40 | 49.64751 | 22.15339 | 124° | 106km/h | 13721m | 6.0m/s | 0°C | 0% | 0hPa | 0V | 00:00:00 | 00:00:00 | 00:00:00 | |
| AKAW68 | 2026-09-05 23:58:37 | 49.64794 | 22.15227 | 112° | 119km/h | 13711m | 3.8m/s | 0°C | 0% | 0hPa | 0V | 00:00:00 | 00:00:00 | 00:00:00 | |
| MIELECB | 2026-09-05 23:58:32 | 49.64846 | 22.15025 | 119° | 113km/h | 13689m | 5.2m/s | 0°C | 0% | 0hPa | 0V | 00:00:00 | 00:00:00 | 00:00:00 | |
| SQ9PSP-11 | 2026-09-05 23:58:25 | 49.64945 | 22.14734 | 121° | 120km/h | 13661m | 4.3m/s | 0°C | 0% | 0hPa | 0V | 00:00:00 | 00:00:00 | 00:00:00 | |
| GYPAP8-17 | 2026-09-05 23:58:20 | 49.65008 | 22.14516 | 117° | 128km/h | 13643m | 4.7m/s | 0°C | 0% | 0hPa | 0V | 00:00:00 | 00:00:00 | 00:00:00 | |
| AKAW68 | 2026-09-05 23:58:16 | 49.65063 | 22.14352 | 115° | 128km/h | 13627m | 3.9m/s | 0°C | 0% | 0hPa | 0V | 00:00:00 | 00:00:00 | 00:00:00 | |
| SQ9PSP-11 | 2026-09-05 23:58:10 | 49.65139 | 22.14079 | 118° | 120km/h | 13601m | 5.2m/s | 0°C | 0% | 0hPa | 0V | 00:00:00 | 00:00:00 | 00:00:00 | |
| GYPAP8-17 | 2026-09-05 23:58:00 | 49.65256 | 22.13644 | 117° | 124km/h | 13560m | 3.6m/s | 0°C | 0% | 0hPa | 0V | 00:00:00 | 00:00:00 | 00:00:00 | |
| SQ9PSP-11 | 2026-09-05 23:57:54 | 49.65322 | 22.13384 | 115° | 128km/h | 13534m | 4.2m/s | 0°C | 0% | 0hPa | 0V | 00:00:00 | 00:00:00 | 00:00:00 | |
| AKAW682 | 2026-09-05 23:57:46 | 49.65415 | 22.13028 | 112° | 126km/h | 13499m | 6.1m/s | 0°C | 0% | 0hPa | 0V | 00:00:00 | 00:00:00 | 00:00:00 | |
| SQ9PSP-11 | 2026-09-05 23:57:39 | 49.65491 | 22.12703 | 111° | 131km/h | 13468m | 4.5m/s | 0°C | 0% | 0hPa | 0V | 00:00:00 | 00:00:00 | 00:00:00 | |
| AKAW682 | 2026-09-05 23:57:24 | 49.65665 | 22.11999 | 111° | 133km/h | 13404m | 5.6m/s | 0°C | 0% | 0hPa | 0V | 00:00:00 | 00:00:00 | 00:00:00 | |
| SQ9PSP-11 | 2026-09-05 23:57:23 | 49.65676 | 22.11951 | 109° | 130km/h | 13399m | 4.7m/s | 0°C | 0% | 0hPa | 0V | 00:00:00 | 00:00:00 | 00:00:00 | |
| AKAW68 | 2026-09-05 23:57:17 | 49.65738 | 22.11662 | 111° | 130km/h | 13373m | 4.1m/s | 0°C | 0% | 0hPa | 0V | 00:00:00 | 00:00:00 | 00:00:00 | |
| SQ9PSP-11 | 2026-09-05 23:57:07 | 49.65834 | 22.11183 | 106° | 128km/h | 13330m | 5.3m/s | 0°C | 0% | 0hPa | 0V | 00:00:00 | 00:00:00 | 00:00:00 | |
| GYPAP8-17 | 2026-09-05 23:56:59 | 49.65909 | 22.10793 | 110° | 135km/h | 13291m | 4.4m/s | 0°C | 0% | 0hPa | 0V | 00:00:00 | 00:00:00 | 00:00:00 | |
| SQ9PSP-11 | 2026-09-05 23:56:51 | 49.65978 | 22.10401 | 104° | 133km/h | 13257m | 3.6m/s | 0°C | 0% | 0hPa | 0V | 00:00:00 | 00:00:00 | 00:00:00 | |
| MIELECB | 2026-09-05 23:56:41 | 49.66081 | 22.09917 | 110° | 131km/h | 13212m | 5.6m/s | 0°C | 0% | 0hPa | 0V | 00:00:00 | 00:00:00 | 00:00:00 | |
| GYPAP8-17 | 2026-09-05 23:56:38 | 49.66112 | 22.09769 | 110° | 130km/h | 13199m | 4.1m/s | 0°C | 0% | 0hPa | 0V | 00:00:00 | 00:00:00 | 00:00:00 | |
| SQ9PSP-11 | 2026-09-05 23:56:36 | 49.66132 | 22.09678 | 106° | 122km/h | 13191m | 5.1m/s | 0°C | 0% | 0hPa | 0V | 00:00:00 | 00:00:00 | 00:00:00 | |
| MIELECB | 2026-09-05 23:56:34 | 49.66151 | 22.09582 | 110° | 135km/h | 13183m | 7.4m/s | 0°C | 0% | 0hPa | 0V | 00:00:00 | 00:00:00 | 00:00:00 | |
| AKAW682 | 2026-09-05 23:56:32 | 49.66176 | 22.09482 | 112° | 139km/h | 13173m | 5.3m/s | 0°C | 0% | 0hPa | 0V | 00:00:00 | 00:00:00 | 00:00:00 | |
| MIELECB | 2026-09-05 23:56:28 | 49.66215 | 22.09292 | 112° | 128km/h | 13154m | 6.2m/s | 0°C | 0% | 0hPa | 0V | 00:00:00 | 00:00:00 | 00:00:00 | |
| MIELECB | 2026-09-05 23:56:23 | 49.66269 | 22.09037 | 111° | 137km/h | 13133m | 5.9m/s | 0°C | 0% | 0hPa | 0V | 00:00:00 | 00:00:00 | 00:00:00 | |
| SQ9PSP-11 | 2026-09-05 23:56:21 | 49.66295 | 22.08943 | 114° | 124km/h | 13123m | 5.7m/s | 0°C | 0% | 0hPa | 0V | 00:00:00 | 00:00:00 | 00:00:00 | |
| MIELECB | 2026-09-05 23:56:15 | 49.66363 | 22.08661 | 109° | 131km/h | 13097m | 5.9m/s | 0°C | 0% | 0hPa | 0V | 00:00:00 | 00:00:00 | 00:00:00 | |
| MIELECB | 2026-09-05 23:56:09 | 49.66430 | 22.08373 | 107° | 133km/h | 13072m | 4.1m/s | 0°C | 0% | 0hPa | 0V | 00:00:00 | 00:00:00 | 00:00:00 | |
| AKAW682 | 2026-09-05 23:56:07 | 49.66451 | 22.08276 | 112° | 131km/h | 13063m | 3.8m/s | 0°C | 0% | 0hPa | 0V | 00:00:00 | 00:00:00 | 00:00:00 | |
| SQ9PSP-11 | 2026-09-05 23:56:06 | 49.66463 | 22.08228 | 113° | 131km/h | 13058m | 5.2m/s | 0°C | 0% | 0hPa | 0V | 00:00:00 | 00:00:00 | 00:00:00 | |
| AKAW68 | 2026-09-05 23:56:01 | 49.66525 | 22.07982 | 110° | 133km/h | 13035m | 6.2m/s | 0°C | 0% | 0hPa | 0V | 00:00:00 | 00:00:00 | 00:00:00 | |
| MIELECB | 2026-09-05 23:55:54 | 49.66608 | 22.07635 | 112° | 142km/h | 13005m | 6.6m/s | 0°C | 0% | 0hPa | 0V | 00:00:00 | 00:00:00 | 00:00:00 | |
| SQ9PSP-11 | 2026-09-05 23:55:50 | 49.66656 | 22.07440 | 110° | 139km/h | 12986m | 3.9m/s | 0°C | 0% | 0hPa | 0V | 00:00:00 | 00:00:00 | 00:00:00 | |
| MIELECB | 2026-09-05 23:55:48 | 49.66682 | 22.07338 | 114° | 139km/h | 12977m | 3.9m/s | 0°C | 0% | 0hPa | 0V | 00:00:00 | 00:00:00 | 00:00:00 | |
| MIELECB | 2026-09-05 23:55:42 | 49.66760 | 22.07045 | 114° | 137km/h | 12948m | 6.1m/s | 0°C | 0% | 0hPa | 0V | 00:00:00 | 00:00:00 | 00:00:00 | |
| AKAW68 | 2026-09-05 23:55:40 | 49.66785 | 22.06942 | 110° | 142km/h | 12939m | 3.9m/s | 0°C | 0% | 0hPa | 0V | 00:00:00 | 00:00:00 | 00:00:00 | |
| MIELECB | 2026-09-05 23:55:36 | 49.66842 | 22.06739 | 115° | 139km/h | 12922m | 3.7m/s | 0°C | 0% | 0hPa | 0V | 00:00:00 | 00:00:00 | 00:00:00 | |
| SQ9PSP-11 | 2026-09-05 23:55:34 | 49.66870 | 22.06643 | 116° | 133km/h | 12913m | 3.5m/s | 0°C | 0% | 0hPa | 0V | 00:00:00 | 00:00:00 | 00:00:00 | |
| MIELECB | 2026-09-05 23:55:24 | 49.67010 | 22.06145 | 112° | 153km/h | 12869m | 3.7m/s | 0°C | 0% | 0hPa | 0V | 00:00:00 | 00:00:00 | 00:00:00 | |
| SQ9PSP-11 | 2026-09-05 23:55:20 | 49.67092 | 22.05903 | 111° | 137km/h | 12848m | 5.1m/s | 0°C | 0% | 0hPa | 0V | 00:00:00 | 00:00:00 | 00:00:00 | |
| AKAW68 | 2026-09-05 23:55:19 | 49.67092 | 22.05903 | 111° | 137km/h | 12848m | 5.1m/s | 0°C | 0% | 0hPa | 0V | 00:00:00 | 00:00:00 | 00:00:00 | |
| GYPAP8-17 | 2026-09-05 23:55:16 | 49.67136 | 22.05731 | 116° | 168km/h | 12833m | 1.7m/s | 0°C | 0% | 0hPa | 0V | 00:00:00 | 00:00:00 | 00:00:00 | |
| AKAW682 | 2026-09-05 23:55:14 | 49.67170 | 22.05622 | 120° | 141km/h | 12821m | 9.1m/s | 0°C | 0% | 0hPa | 0V | 00:00:00 | 00:00:00 | 00:00:00 | |
| MIELECB | 2026-09-05 23:55:07 | 49.67269 | 22.05241 | 115° | 146km/h | 12782m | 4.9m/s | 0°C | 0% | 0hPa | 0V | 00:00:00 | 00:00:00 | 00:00:00 | |
| SQ9PSP-11 | 2026-09-05 23:55:03 | 49.67328 | 22.05032 | 117° | 162km/h | 12760m | 3.2m/s | 0°C | 0% | 0hPa | 0V | 00:00:00 | 00:00:00 | 00:00:00 | |
| MIELECB | 2026-09-05 23:55:01 | 49.67361 | 22.04915 | 110° | 155km/h | 12751m | 4.1m/s | 0°C | 0% | 0hPa | 0V | 00:00:00 | 00:00:00 | 00:00:00 | |
| AKAW68 | 2026-09-05 23:54:54 | 49.67467 | 22.04552 | 115° | 151km/h | 12722m | 5.1m/s | 0°C | 0% | 0hPa | 0V | 00:00:00 | 00:00:00 | 00:00:00 | |
| MIELECB | 2026-09-05 23:54:53 | 49.67482 | 22.04498 | 114° | 148km/h | 12716m | 7.2m/s | 0°C | 0% | 0hPa | 0V | 00:00:00 | 00:00:00 | 00:00:00 | |
| SQ9PSP-11 | 2026-09-05 23:54:48 | 49.67553 | 22.04236 | 115° | 139km/h | 12689m | 3.6m/s | 0°C | 0% | 0hPa | 0V | 00:00:00 | 00:00:00 | 00:00:00 | |
| MIELECB | 2026-09-05 23:54:47 | 49.67567 | 22.04184 | 112° | 153km/h | 12685m | 5.1m/s | 0°C | 0% | 0hPa | 0V | 00:00:00 | 00:00:00 | 00:00:00 | |
| MIELECB | 2026-09-05 23:54:42 | 49.67636 | 22.03903 | 114° | 137km/h | 12661m | 5.1m/s | 0°C | 0% | 0hPa | 0V | 00:00:00 | 00:00:00 | 00:00:00 | |
| MIELECB | 2026-09-05 23:54:36 | 49.67719 | 22.03574 | 114° | 148km/h | 12635m | 2.8m/s | 0°C | 0% | 0hPa | 0V | 00:00:00 | 00:00:00 | 00:00:00 | |
| SQ9PSP-11 | 2026-09-05 23:54:32 | 49.67777 | 22.03366 | 108° | 150km/h | 12616m | 6.4m/s | 0°C | 0% | 0hPa | 0V | 00:00:00 | 00:00:00 | 00:00:00 | |
| MIELECB | 2026-09-05 23:54:31 | 49.67789 | 22.03307 | 109° | 164km/h | 12611m | 4.0m/s | 0°C | 0% | 0hPa | 0V | 00:00:00 | 00:00:00 | 00:00:00 | |
| AKAW68 | 2026-09-05 23:54:28 | 49.67827 | 22.03125 | 110° | 153km/h | 12599m | 4.8m/s | 0°C | 0% | 0hPa | 0V | 00:00:00 | 00:00:00 | 00:00:00 | |
| MIELECB | 2026-09-05 23:54:25 | 49.67864 | 22.02968 | 107° | 142km/h | 12586m | 3.7m/s | 0°C | 0% | 0hPa | 0V | 00:00:00 | 00:00:00 | 00:00:00 | |
| MIELECB | 2026-09-05 23:54:19 | 49.67937 | 22.02620 | 113° | 146km/h | 12560m | 5.0m/s | 0°C | 0% | 0hPa | 0V | 00:00:00 | 00:00:00 | 00:00:00 | |
| SQ9PSP-11 | 2026-09-05 23:54:17 | 49.67965 | 22.02513 | 111° | 150km/h | 12552m | 7.1m/s | 0°C | 0% | 0hPa | 0V | 00:00:00 | 00:00:00 | 00:00:00 | |
| MIELECB | 2026-09-05 23:54:14 | 49.68003 | 22.02342 | 112° | 151km/h | 12539m | 6.1m/s | 0°C | 0% | 0hPa | 0V | 00:00:00 | 00:00:00 | 00:00:00 | |
| AKAW682 | 2026-09-05 23:54:11 | 49.68041 | 22.02177 | 110° | 148km/h | 12526m | 7.2m/s | 0°C | 0% | 0hPa | 0V | 00:00:00 | 00:00:00 | 00:00:00 | |
| AKAW68 | 2026-09-05 23:54:08 | 49.68082 | 22.02013 | 111° | 159km/h | 12511m | 8.6m/s | 0°C | 0% | 0hPa | 0V | 00:00:00 | 00:00:00 | 00:00:00 | |
| MIELECB | 2026-09-05 23:54:03 | 49.68138 | 22.01749 | 108° | 141km/h | 12489m | 2.5m/s | 0°C | 0% | 0hPa | 0V | 00:00:00 | 00:00:00 | 00:00:00 | |
| SQ9PSP-11 | 2026-09-05 23:54:02 | 49.68149 | 22.01695 | 109° | 148km/h | 12485m | 6.3m/s | 0°C | 0% | 0hPa | 0V | 00:00:00 | 00:00:00 | 00:00:00 | |
| MIELECB | 2026-09-05 23:53:57 | 49.68205 | 22.01421 | 111° | 131km/h | 12462m | 3.9m/s | 0°C | 0% | 0hPa | 0V | 00:00:00 | 00:00:00 | 00:00:00 | |
| MIELECB | 2026-09-05 23:53:51 | 49.68284 | 22.01095 | 109° | 148km/h | 12439m | 2.5m/s | 0°C | 0% | 0hPa | 0V | 00:00:00 | 00:00:00 | 00:00:00 | |
| AKAW682 | 2026-09-05 23:53:48 | 49.68320 | 22.00939 | 111° | 135km/h | 12424m | 1.5m/s | 0°C | 0% | 0hPa | 0V | 00:00:00 | 00:00:00 | 00:00:00 | |
| AKAW68 | 2026-09-05 23:53:47 | 49.68333 | 22.00887 | 111° | 148km/h | 12421m | 4.3m/s | 0°C | 0% | 0hPa | 0V | 00:00:00 | 00:00:00 | 00:00:00 | |
| GYPAP8-17 | 2026-09-05 23:53:46 | 49.68345 | 22.00830 | 109° | 159km/h | 12415m | 6.0m/s | 0°C | 0% | 0hPa | 0V | 00:00:00 | 00:00:00 | 00:00:00 | |
| MIELECB | 2026-09-05 23:53:40 | 49.68432 | 22.00509 | 111° | 146km/h | 12389m | 5.8m/s | 0°C | 0% | 0hPa | 0V | 00:00:00 | 00:00:00 | 00:00:00 | |
| MIELECB | 2026-09-05 23:53:35 | 49.68502 | 22.00235 | 118° | 144km/h | 12365m | 1.4m/s | 0°C | 0% | 0hPa | 0V | 00:00:00 | 00:00:00 | 00:00:00 | |
| SQ9PSP-11 | 2026-09-05 23:53:31 | 49.68568 | 22.00021 | 114° | 162km/h | 12349m | 5.2m/s | 0°C | 0% | 0hPa | 0V | 00:00:00 | 00:00:00 | 00:00:00 | |
| MIELECB | 2026-09-05 23:53:29 | 49.68595 | 21.99909 | 112° | 146km/h | 12342m | 3.1m/s | 0°C | 0% | 0hPa | 0V | 00:00:00 | 00:00:00 | 00:00:00 | |
| AKAW682 | 2026-09-05 23:53:27 | 49.68627 | 21.99806 | 120° | 151km/h | 12334m | 4.8m/s | 0°C | 0% | 0hPa | 0V | 00:00:00 | 00:00:00 | 00:00:00 | |
| GYPAP8-17 | 2026-09-05 23:53:26 | 49.68645 | 21.99751 | 118° | 162km/h | 12330m | 3.2m/s | 0°C | 0% | 0hPa | 0V | 00:00:00 | 00:00:00 | 00:00:00 | |
| MIELECB | 2026-09-05 23:53:24 | 49.68680 | 21.99639 | 115° | 151km/h | 12323m | 3.2m/s | 0°C | 0% | 0hPa | 0V | 00:00:00 | 00:00:00 | 00:00:00 | |
| MIELECB | 2026-09-05 23:53:18 | 49.68767 | 21.99324 | 113° | 155km/h | 12297m | 7.9m/s | 0°C | 0% | 0hPa | 0V | 00:00:00 | 00:00:00 | 00:00:00 | |
| SQ9PSP-11 | 2026-09-05 23:53:16 | 49.68800 | 21.99212 | 116° | 157km/h | 12288m | 4.8m/s | 0°C | 0% | 0hPa | 0V | 00:00:00 | 00:00:00 | 00:00:00 | |
| MIELECB | 2026-09-05 23:53:12 | 49.68853 | 21.99002 | 110° | 144km/h | 12272m | 7.0m/s | 0°C | 0% | 0hPa | 0V | 00:00:00 | 00:00:00 | 00:00:00 | |
| MIELECB | 2026-09-05 23:53:07 | 49.68930 | 21.98723 | 116° | 157km/h | 12246m | 3.6m/s | 0°C | 0% | 0hPa | 0V | 00:00:00 | 00:00:00 | 00:00:00 | |
| AKAW682 | 2026-09-05 23:53:05 | 49.68962 | 21.98615 | 115° | 150km/h | 12236m | 4.2m/s | 0°C | 0% | 0hPa | 0V | 00:00:00 | 00:00:00 | 00:00:00 | |
| MIELECB | 2026-09-05 23:53:01 | 49.69019 | 21.98393 | 110° | 155km/h | 12216m | 6.6m/s | 0°C | 0% | 0hPa | 0V | 00:00:00 | 00:00:00 | 00:00:00 | |
| SQ9PSP-11 | 2026-09-05 23:53:00 | 49.69032 | 21.98336 | 112° | 157km/h | 12210m | 4.9m/s | 0°C | 0% | 0hPa | 0V | 00:00:00 | 00:00:00 | 00:00:00 | |
| MIELECB | 2026-09-05 23:52:56 | 49.69097 | 21.98136 | 113° | 144km/h | 12194m | 3.6m/s | 0°C | 0% | 0hPa | 0V | 00:00:00 | 00:00:00 | 00:00:00 | |
| AKAW68 | 2026-09-05 23:52:50 | 49.69194 | 21.97814 | 118° | 142km/h | 12168m | 5.4m/s | 0°C | 0% | 0hPa | 0V | 00:00:00 | 00:00:00 | 00:00:00 | |
| AKAW682 | 2026-09-05 23:52:46 | 49.69276 | 21.97542 | 119° | 146km/h | 12143m | 7.6m/s | 0°C | 0% | 0hPa | 0V | 00:00:00 | 00:00:00 | 00:00:00 | |
| SQ9PSP-11 | 2026-09-05 23:52:44 | 49.69293 | 21.97494 | 119° | 135km/h | 12137m | 4.6m/s | 0°C | 0% | 0hPa | 0V | 00:00:00 | 00:00:00 | 00:00:00 | |
| MIELECB | 2026-09-05 23:52:39 | 49.69380 | 21.97234 | 116° | 153km/h | 12115m | 4.6m/s | 0°C | 0% | 0hPa | 0V | 00:00:00 | 00:00:00 | 00:00:00 | |
| MIELECB | 2026-09-05 23:52:34 | 49.69477 | 21.96961 | 123° | 162km/h | 12089m | 8.2m/s | 0°C | 0% | 0hPa | 0V | 00:00:00 | 00:00:00 | 00:00:00 | |
| AKAW68 | 2026-09-05 23:52:29 | 49.69602 | 21.96630 | 124° | 157km/h | 12058m | 5.6m/s | 0°C | 0% | 0hPa | 0V | 00:00:00 | 00:00:00 | 00:00:00 | |
| AKAW682 | 2026-09-05 23:52:25 | 49.69665 | 21.96469 | 117° | 159km/h | 12040m | 5.2m/s | 0°C | 0% | 0hPa | 0V | 00:00:00 | 00:00:00 | 00:00:00 | |
| MIELECB | 2026-09-05 23:52:23 | 49.69704 | 21.96358 | 123° | 166km/h | 12029m | 5.2m/s | 0°C | 0% | 0hPa | 0V | 00:00:00 | 00:00:00 | 00:00:00 | |
| MIELECB | 2026-09-05 23:52:17 | 49.69843 | 21.96018 | 123° | 173km/h | 11994m | 3.0m/s | 0°C | 0% | 0hPa | 0V | 00:00:00 | 00:00:00 | 00:00:00 | |
| SQ9PSP-11 | 2026-09-05 23:52:12 | 49.69951 | 21.95735 | 126° | 168km/h | 11968m | 3.5m/s | 0°C | 0% | 0hPa | 0V | 00:00:00 | 00:00:00 | 00:00:00 | |
| AKAW68 | 2026-09-05 23:52:07 | 49.70068 | 21.95454 | 125° | 175km/h | 11941m | 8.0m/s | 0°C | 0% | 0hPa | 0V | 00:00:00 | 00:00:00 | 00:00:00 | |
| AKAW682 | 2026-09-05 23:52:05 | 49.70118 | 21.95338 | 125° | 183km/h | 11929m | 8.6m/s | 0°C | 0% | 0hPa | 0V | 00:00:00 | 00:00:00 | 00:00:00 | |
| GYPAP8-17 | 2026-09-05 23:52:01 | 49.70211 | 21.95099 | 123° | 173km/h | 11906m | 3.3m/s | 0°C | 0% | 0hPa | 0V | 00:00:00 | 00:00:00 | 00:00:00 | |
| SQ9PSP-11 | 2026-09-05 23:51:56 | 49.70334 | 21.94804 | 123° | 183km/h | 11881m | 5.1m/s | 0°C | 0% | 0hPa | 0V | 00:00:00 | 00:00:00 | 00:00:00 | |
| AKAW68 | 2026-09-05 23:51:46 | 49.70564 | 21.94196 | 121° | 173km/h | 11827m | 3.7m/s | 0°C | 0% | 0hPa | 0V | 00:00:00 | 00:00:00 | 00:00:00 | |
| AKAW682 | 2026-09-05 23:51:43 | 49.70639 | 21.94012 | 123° | 195km/h | 11810m | 5.2m/s | 0°C | 0% | 0hPa | 0V | 00:00:00 | 00:00:00 | 00:00:00 | |
| GYPAP8-17 | 2026-09-05 23:51:40 | 49.70708 | 21.93823 | 119° | 177km/h | 11793m | 7.6m/s | 0°C | 0% | 0hPa | 0V | 00:00:00 | 00:00:00 | 00:00:00 | |
| AKAW68 | 2026-09-05 23:51:25 | 49.71066 | 21.92838 | 117° | 204km/h | 11702m | 4.7m/s | 0°C | 0% | 0hPa | 0V | 00:00:00 | 00:00:00 | 00:00:00 | |
| AKAW682 | 2026-09-05 23:51:23 | 49.71115 | 21.92700 | 123° | 199km/h | 11688m | 5.8m/s | 0°C | 0% | 0hPa | 0V | 00:00:00 | 00:00:00 | 00:00:00 | |
| AKAW682 | 2026-09-05 23:50:42 | 49.72012 | 21.90029 | 116° | 186km/h | 11435m | 5.1m/s | 0°C | 0% | 0hPa | 0V | 00:00:00 | 00:00:00 | 00:00:00 | |
| GYPAP8-17 | 2026-09-05 23:50:10 | 49.72761 | 21.87911 | 119° | 184km/h | 11242m | 6.8m/s | 0°C | 0% | 0hPa | 0V | 00:00:00 | 00:00:00 | 00:00:00 | |
| GYPAP8-17 | 2026-09-05 23:49:49 | 49.73269 | 21.86470 | 121° | 195km/h | 11128m | 4.1m/s | 0°C | 0% | 0hPa | 0V | 00:00:00 | 00:00:00 | 00:00:00 | |
| SQ9EZE-14 | 2026-09-05 23:48:59 | 49.74571 | 21.82967 | 124° | 214km/h | 10868m | 6.3m/s | 0°C | 0% | 0hPa | 0V | 00:00:00 | 00:00:00 | 00:00:00 | |
| GYPAP8-17 | 2026-09-05 23:48:45 | 49.74939 | 21.81981 | 117° | 223km/h | 10793m | 3.5m/s | 0°C | 0% | 0hPa | 0V | 00:00:00 | 00:00:00 | 00:00:00 | |
| SQ9EZE-14 | 2026-09-05 23:48:44 | 49.74964 | 21.81906 | 120° | 214km/h | 10788m | 7.2m/s | 0°C | 0% | 0hPa | 0V | 00:00:00 | 00:00:00 | 00:00:00 | |
| MIELECB | 2026-09-05 23:48:38 | 49.75115 | 21.81481 | 119° | 219km/h | 10754m | 8.1m/s | 0°C | 0% | 0hPa | 0V | 00:00:00 | 00:00:00 | 00:00:00 | |
| GYPAP8-17 | 2026-09-05 23:48:24 | 49.75465 | 21.80470 | 118° | 219km/h | 10664m | 6.8m/s | 0°C | 0% | 0hPa | 0V | 00:00:00 | 00:00:00 | 00:00:00 | |
| MIELECB | 2026-09-05 23:48:11 | 49.75768 | 21.79512 | 118° | 206km/h | 10581m | 6.1m/s | 0°C | 0% | 0hPa | 0V | 00:00:00 | 00:00:00 | 00:00:00 | |
| MIELECB | 2026-09-05 23:47:43 | 49.76411 | 21.77476 | 115° | 195km/h | 10410m | 4.8m/s | 0°C | 0% | 0hPa | 0V | 00:00:00 | 00:00:00 | 00:00:00 | |
| GYPAP8-17 | 2026-09-05 23:47:21 | 49.76928 | 21.75903 | 120° | 206km/h | 10282m | 5.9m/s | 0°C | 0% | 0hPa | 0V | 00:00:00 | 00:00:00 | 00:00:00 | |
| SQ9PSP-11 | 2026-09-05 23:47:19 | 49.76977 | 21.75766 | 119° | 199km/h | 10272m | 3.5m/s | 0°C | 0% | 0hPa | 0V | 00:00:00 | 00:00:00 | 00:00:00 | |
| MIELECB | 2026-09-05 23:47:06 | 49.77292 | 21.74838 | 122° | 199km/h | 10197m | 9.2m/s | 0°C | 0% | 0hPa | 0V | 00:00:00 | 00:00:00 | 00:00:00 | |
| SQ9PSP-11 | 2026-09-05 23:47:04 | 49.77343 | 21.74704 | 119° | 204km/h | 10185m | 5.5m/s | 0°C | 0% | 0hPa | 0V | 00:00:00 | 00:00:00 | 00:00:00 | |
| AKAW68 | 2026-09-05 23:47:02 | 49.77394 | 21.74559 | 120° | 215km/h | 10173m | 3.9m/s | 0°C | 0% | 0hPa | 0V | 00:00:00 | 00:00:00 | 00:00:00 | |
| MIELECB | 2026-09-05 23:47:00 | 49.77448 | 21.74411 | 120° | 217km/h | 10163m | 9.0m/s | 0°C | 0% | 0hPa | 0V | 00:00:00 | 00:00:00 | 00:00:00 | |
| MIELECB | 2026-09-05 23:46:55 | 49.77589 | 21.74067 | 124° | 212km/h | 10134m | 6.3m/s | 0°C | 0% | 0hPa | 0V | 00:00:00 | 00:00:00 | 00:00:00 | |
| SQ9PSP-11 | 2026-09-05 23:46:48 | 49.77778 | 21.73588 | 122° | 221km/h | 10095m | 4.4m/s | 0°C | 0% | 0hPa | 0V | 00:00:00 | 00:00:00 | 00:00:00 | |
| MIELECB | 2026-09-05 23:46:43 | 49.77904 | 21.73237 | 127° | 215km/h | 10072m | 4.4m/s | 0°C | 0% | 0hPa | 0V | 00:00:00 | 00:00:00 | 00:00:00 | |
| MIELECB | 2026-09-05 23:46:37 | 49.78067 | 21.72820 | 121° | 197km/h | 10043m | 4.0m/s | 0°C | 0% | 0hPa | 0V | 00:00:00 | 00:00:00 | 00:00:00 | |
| AKAW68 | 2026-09-05 23:46:36 | 49.78094 | 21.72753 | 124° | 203km/h | 10039m | 5.7m/s | 0°C | 0% | 0hPa | 0V | 00:00:00 | 00:00:00 | 00:00:00 | |
| SQ9PSP-11 | 2026-09-05 23:46:33 | 49.78184 | 21.72545 | 123° | 212km/h | 10023m | 2.5m/s | 0°C | 0% | 0hPa | 0V | 00:00:00 | 00:00:00 | 00:00:00 | |
| MIELECB | 2026-09-05 23:46:31 | 49.78237 | 21.72402 | 119° | 208km/h | 10015m | 4.8m/s | 0°C | 0% | 0hPa | 0V | 00:00:00 | 00:00:00 | 00:00:00 | |
| MIELECB | 2026-09-05 23:46:24 | 49.78443 | 21.71927 | 125° | 199km/h | 9983m | 4.3m/s | 0°C | 0% | 0hPa | 0V | 00:00:00 | 00:00:00 | 00:00:00 | |
| SQ9PSP-11 | 2026-09-05 23:46:18 | 49.78614 | 21.71497 | 123° | 219km/h | 9951m | 8.2m/s | 0°C | 0% | 0hPa | 0V | 00:00:00 | 00:00:00 | 00:00:00 | |
| AKAW68 | 2026-09-05 23:46:13 | 49.78752 | 21.71156 | 122° | 204km/h | 9928m | 8.3m/s | 0°C | 0% | 0hPa | 0V | 00:00:00 | 00:00:00 | 00:00:00 | |
| GYPAP8-17 | 2026-09-05 23:46:11 | 49.78810 | 21.71013 | 123° | 224km/h | 9918m | 7.3m/s | 0°C | 0% | 0hPa | 0V | 00:00:00 | 00:00:00 | 00:00:00 | |
| MIELECB | 2026-09-05 23:46:10 | 49.78839 | 21.70938 | 122° | 228km/h | 9912m | 4.8m/s | 0°C | 0% | 0hPa | 0V | 00:00:00 | 00:00:00 | 00:00:00 | |
| MIELECB | 2026-09-05 23:46:04 | 49.79006 | 21.70510 | 123° | 223km/h | 9886m | 5.0m/s | 0°C | 0% | 0hPa | 0V | 00:00:00 | 00:00:00 | 00:00:00 | |
| SQ9PSP-11 | 2026-09-05 23:46:02 | 49.79065 | 21.70368 | 124° | 203km/h | 9877m | 4.6m/s | 0°C | 0% | 0hPa | 0V | 00:00:00 | 00:00:00 | 00:00:00 | |
| MIELECB | 2026-09-05 23:45:59 | 49.79154 | 21.70174 | 127° | 210km/h | 9863m | 8.4m/s | 0°C | 0% | 0hPa | 0V | 00:00:00 | 00:00:00 | 00:00:00 | |
| MIELECB | 2026-09-05 23:45:53 | 49.79329 | 21.69759 | 123° | 212km/h | 9827m | 4.3m/s | 0°C | 0% | 0hPa | 0V | 00:00:00 | 00:00:00 | 00:00:00 | |
| AKAW68 | 2026-09-05 23:45:52 | 49.79358 | 21.69688 | 123° | 221km/h | 9822m | 5.6m/s | 0°C | 0% | 0hPa | 0V | 00:00:00 | 00:00:00 | 00:00:00 | |
| MIELECB | 2026-09-05 23:45:47 | 49.79510 | 21.69330 | 123° | 214km/h | 9799m | 5.6m/s | 0°C | 0% | 0hPa | 0V | 00:00:00 | 00:00:00 | 00:00:00 | |
| SQ9PSP-11 | 2026-09-05 23:45:46 | 49.79539 | 21.69259 | 123° | 214km/h | 9794m | 3.9m/s | 0°C | 0% | 0hPa | 0V | 00:00:00 | 00:00:00 | 00:00:00 | |
| MIELECB | 2026-09-05 23:45:42 | 49.79660 | 21.68980 | 125° | 223km/h | 9774m | 4.5m/s | 0°C | 0% | 0hPa | 0V | 00:00:00 | 00:00:00 | 00:00:00 | |
| AKAW682 | 2026-09-05 23:45:35 | 49.79852 | 21.68486 | 129° | 219km/h | 9747m | 3.9m/s | 0°C | 0% | 0hPa | 0V | 00:00:00 | 00:00:00 | 00:00:00 | |
| AKAW68 | 2026-09-05 23:45:32 | 49.79944 | 21.68274 | 122° | 217km/h | 9735m | 5.1m/s | 0°C | 0% | 0hPa | 0V | 00:00:00 | 00:00:00 | 00:00:00 | |
| SQ9PSP-11 | 2026-09-05 23:45:30 | 49.80000 | 21.68129 | 123° | 210km/h | 9726m | 5.4m/s | 0°C | 0% | 0hPa | 0V | 00:00:00 | 00:00:00 | 00:00:00 | |
| MIELECB | 2026-09-05 23:45:25 | 49.80144 | 21.67790 | 126° | 208km/h | 9701m | 8.2m/s | 0°C | 0% | 0hPa | 0V | 00:00:00 | 00:00:00 | 00:00:00 | |
| MIELECB | 2026-09-05 23:45:20 | 49.80281 | 21.67428 | 123° | 210km/h | 9672m | 6.6m/s | 0°C | 0% | 0hPa | 0V | 00:00:00 | 00:00:00 | 00:00:00 | |
| SQ9PSP-11 | 2026-09-05 23:45:14 | 49.80458 | 21.67006 | 124° | 223km/h | 9644m | 5.3m/s | 0°C | 0% | 0hPa | 0V | 00:00:00 | 00:00:00 | 00:00:00 | |
| AKAW68 | 2026-09-05 23:45:11 | 49.80544 | 21.66794 | 123° | 203km/h | 9629m | 4.8m/s | 0°C | 0% | 0hPa | 0V | 00:00:00 | 00:00:00 | 00:00:00 | |
| MIELECB | 2026-09-05 23:45:09 | 49.80601 | 21.66655 | 124° | 219km/h | 9619m | 6.1m/s | 0°C | 0% | 0hPa | 0V | 00:00:00 | 00:00:00 | 00:00:00 | |
| MIELECB | 2026-09-05 23:45:04 | 49.80740 | 21.66290 | 122° | 212km/h | 9591m | 5.2m/s | 0°C | 0% | 0hPa | 0V | 00:00:00 | 00:00:00 | 00:00:00 | |
| SQ9PSP-11 | 2026-09-05 23:44:59 | 49.80883 | 21.65931 | 122° | 221km/h | 9569m | 4.8m/s | 0°C | 0% | 0hPa | 0V | 00:00:00 | 00:00:00 | 00:00:00 | |
| MIELECB | 2026-09-05 23:44:58 | 49.80912 | 21.65857 | 122° | 219km/h | 9564m | 5.0m/s | 0°C | 0% | 0hPa | 0V | 00:00:00 | 00:00:00 | 00:00:00 | |
| AKAW682 | 2026-09-05 23:44:55 | 49.80994 | 21.65644 | 122° | 201km/h | 9549m | 3.2m/s | 0°C | 0% | 0hPa | 0V | 00:00:00 | 00:00:00 | 00:00:00 | |
| MIELECB | 2026-09-05 23:44:53 | 49.81075 | 21.65432 | 122° | 223km/h | 9536m | 5.2m/s | 0°C | 0% | 0hPa | 0V | 00:00:00 | 00:00:00 | 00:00:00 | |
| SQ9EZE-12 | 2026-09-05 23:44:51 | 49.81105 | 21.65359 | 123° | 223km/h | 9530m | 6.3m/s | 0°C | 0% | 0hPa | 0V | 00:00:00 | 00:00:00 | 00:00:00 | |
| MIELECB | 2026-09-05 23:44:46 | 49.81251 | 21.64993 | 120° | 226km/h | 9506m | 7.1m/s | 0°C | 0% | 0hPa | 0V | 00:00:00 | 00:00:00 | 00:00:00 | |
| SQ9PSP-11 | 2026-09-05 23:44:44 | 49.81303 | 21.64837 | 118° | 224km/h | 9497m | 5.0m/s | 0°C | 0% | 0hPa | 0V | 00:00:00 | 00:00:00 | 00:00:00 | |
| MIELECB | 2026-09-05 23:44:39 | 49.81446 | 21.64477 | 120° | 219km/h | 9473m | 4.2m/s | 0°C | 0% | 0hPa | 0V | 00:00:00 | 00:00:00 | 00:00:00 | |
| MIELECB | 2026-09-05 23:44:34 | 49.81586 | 21.64114 | 119° | 215km/h | 9448m | 6.3m/s | 0°C | 0% | 0hPa | 0V | 00:00:00 | 00:00:00 | 00:00:00 | |
| AKAW68 | 2026-09-05 23:44:31 | 49.81667 | 21.63890 | 121° | 212km/h | 9432m | 4.6m/s | 0°C | 0% | 0hPa | 0V | 00:00:00 | 00:00:00 | 00:00:00 | |
| SQ9PSP-11 | 2026-09-05 23:44:28 | 49.81751 | 21.63668 | 120° | 232km/h | 9414m | 6.2m/s | 0°C | 0% | 0hPa | 0V | 00:00:00 | 00:00:00 | 00:00:00 | |
| MIELECB | 2026-09-05 23:44:22 | 49.81923 | 21.63235 | 125° | 221km/h | 9384m | 4.6m/s | 0°C | 0% | 0hPa | 0V | 00:00:00 | 00:00:00 | 00:00:00 | |
| GYPAP8-17 | 2026-09-05 23:44:20 | 49.81982 | 21.63086 | 120° | 228km/h | 9373m | 7.1m/s | 0°C | 0% | 0hPa | 0V | 00:00:00 | 00:00:00 | 00:00:00 | |
| MIELECB | 2026-09-05 23:44:17 | 49.82062 | 21.62854 | 120° | 214km/h | 9357m | 5.5m/s | 0°C | 0% | 0hPa | 0V | 00:00:00 | 00:00:00 | 00:00:00 | |
| MIELECB | 2026-09-05 23:44:12 | 49.82199 | 21.62500 | 123° | 219km/h | 9331m | 8.7m/s | 0°C | 0% | 0hPa | 0V | 00:00:00 | 00:00:00 | 00:00:00 | |
| AKAW68 | 2026-09-05 23:44:11 | 49.82228 | 21.62428 | 123° | 217km/h | 9324m | 4.5m/s | 0°C | 0% | 0hPa | 0V | 00:00:00 | 00:00:00 | 00:00:00 | |
| MIELECB | 2026-09-05 23:44:06 | 49.82373 | 21.62065 | 121° | 217km/h | 9299m | 4.2m/s | 0°C | 0% | 0hPa | 0V | 00:00:00 | 00:00:00 | 00:00:00 | |
| MIELECB | 2026-09-05 23:44:00 | 49.82535 | 21.61623 | 122° | 221km/h | 9267m | 3.7m/s | 0°C | 0% | 0hPa | 0V | 00:00:00 | 00:00:00 | 00:00:00 | |
| MIELECB | 2026-09-05 23:43:55 | 49.82675 | 21.61258 | 119° | 212km/h | 9240m | 5.5m/s | 0°C | 0% | 0hPa | 0V | 00:00:00 | 00:00:00 | 00:00:00 | |
| AKAW68 | 2026-09-05 23:43:50 | 49.82795 | 21.60914 | 123° | 204km/h | 9209m | 9.0m/s | 0°C | 0% | 0hPa | 0V | 00:00:00 | 00:00:00 | 00:00:00 | |
| MIELECB | 2026-09-05 23:43:49 | 49.82823 | 21.60842 | 121° | 223km/h | 9201m | 6.5m/s | 0°C | 0% | 0hPa | 0V | 00:00:00 | 00:00:00 | 00:00:00 | |
| MIELECB | 2026-09-05 23:43:43 | 49.82984 | 21.60406 | 119° | 208km/h | 9169m | 7.6m/s | 0°C | 0% | 0hPa | 0V | 00:00:00 | 00:00:00 | 00:00:00 | |
| SQ9PSP-11 | 2026-09-05 23:43:42 | 49.83010 | 21.60334 | 121° | 217km/h | 9162m | 5.8m/s | 0°C | 0% | 0hPa | 0V | 00:00:00 | 00:00:00 | 00:00:00 | |
| AKAW682 | 2026-09-05 23:43:40 | 49.83066 | 21.60189 | 123° | 210km/h | 9150m | 5.7m/s | 0°C | 0% | 0hPa | 0V | 00:00:00 | 00:00:00 | 00:00:00 | |
| MIELECB | 2026-09-05 23:43:37 | 49.83150 | 21.59989 | 121° | 215km/h | 9135m | 5.9m/s | 0°C | 0% | 0hPa | 0V | 00:00:00 | 00:00:00 | 00:00:00 | |
| GYPAP8-17 | 2026-09-05 23:43:31 | 49.83305 | 21.59558 | 121° | 186km/h | 9103m | 3.7m/s | 0°C | 0% | 0hPa | 0V | 00:00:00 | 00:00:00 | 00:00:00 | |
| MIELECB | 2026-09-05 23:43:30 | 49.83329 | 21.59492 | 118° | 197km/h | 9099m | 5.2m/s | 0°C | 0% | 0hPa | 0V | 00:00:00 | 00:00:00 | 00:00:00 | |
| AKAW68 | 2026-09-05 23:43:29 | 49.83353 | 21.59420 | 118° | 215km/h | 9095m | 4.2m/s | 0°C | 0% | 0hPa | 0V | 00:00:00 | 00:00:00 | 00:00:00 | |
| SQ9PSP-11 | 2026-09-05 23:43:26 | 49.83436 | 21.59201 | 123° | 206km/h | 9080m | 2.6m/s | 0°C | 0% | 0hPa | 0V | 00:00:00 | 00:00:00 | 00:00:00 | |
| MIELECB | 2026-09-05 23:43:24 | 49.83492 | 21.59065 | 122° | 208km/h | 9067m | 5.3m/s | 0°C | 0% | 0hPa | 0V | 00:00:00 | 00:00:00 | 00:00:00 | |
| MIELECB | 2026-09-05 23:43:19 | 49.83614 | 21.58709 | 123° | 208km/h | 9040m | 8.3m/s | 0°C | 0% | 0hPa | 0V | 00:00:00 | 00:00:00 | 00:00:00 | |
| AKAW682 | 2026-09-05 23:43:17 | 49.83673 | 21.58564 | 123° | 223km/h | 9026m | 7.4m/s | 0°C | 0% | 0hPa | 0V | 00:00:00 | 00:00:00 | 00:00:00 | |
| MIELECB | 2026-09-05 23:43:13 | 49.83776 | 21.58286 | 122° | 201km/h | 9002m | 4.7m/s | 0°C | 0% | 0hPa | 0V | 00:00:00 | 00:00:00 | 00:00:00 | |
| GYPAP8-17 | 2026-09-05 23:43:10 | 49.83855 | 21.58076 | 121° | 204km/h | 8985m | 5.7m/s | 0°C | 0% | 0hPa | 0V | 00:00:00 | 00:00:00 | 00:00:00 | |
| SQ9EZE-12 | 2026-09-05 23:43:09 | 49.83881 | 21.58008 | 122° | 201km/h | 8979m | 6.9m/s | 0°C | 0% | 0hPa | 0V | 00:00:00 | 00:00:00 | 00:00:00 | |
| MIELECB | 2026-09-05 23:43:07 | 49.83933 | 21.57874 | 122° | 201km/h | 8964m | 8.6m/s | 0°C | 0% | 0hPa | 0V | 00:00:00 | 00:00:00 | 00:00:00 | |
| MIELECB | 2026-09-05 23:43:02 | 49.84068 | 21.57526 | 125° | 199km/h | 8928m | 6.9m/s | 0°C | 0% | 0hPa | 0V | 00:00:00 | 00:00:00 | 00:00:00 | |
| AKAW682 | 2026-09-05 23:42:57 | 49.84199 | 21.57195 | 120° | 206km/h | 8897m | 5.8m/s | 0°C | 0% | 0hPa | 0V | 00:00:00 | 00:00:00 | 00:00:00 | |
| MIELECB | 2026-09-05 23:42:56 | 49.84226 | 21.57125 | 123° | 210km/h | 8891m | 4.6m/s | 0°C | 0% | 0hPa | 0V | 00:00:00 | 00:00:00 | 00:00:00 | |
| SQ9PSP-11 | 2026-09-05 23:42:55 | 49.84255 | 21.57056 | 125° | 212km/h | 8887m | 3.7m/s | 0°C | 0% | 0hPa | 0V | 00:00:00 | 00:00:00 | 00:00:00 | |
| SQ9EZE-12 | 2026-09-05 23:42:50 | 49.84388 | 21.56736 | 123° | 206km/h | 8865m | 5.5m/s | 0°C | 0% | 0hPa | 0V | 00:00:00 | 00:00:00 | 00:00:00 | |
| AKAW68 | 2026-09-05 23:42:49 | 49.84417 | 21.56667 | 124° | 214km/h | 8859m | 7.4m/s | 0°C | 0% | 0hPa | 0V | 00:00:00 | 00:00:00 | 00:00:00 | |
| MIELECB | 2026-09-05 23:42:45 | 49.84539 | 21.56405 | 123° | 201km/h | 8835m | 5.0m/s | 0°C | 0% | 0hPa | 0V | 00:00:00 | 00:00:00 | 00:00:00 | |
| MIELECB | 2026-09-05 23:42:39 | 49.84699 | 21.55984 | 126° | 208km/h | 8794m | 4.4m/s | 0°C | 0% | 0hPa | 0V | 00:00:00 | 00:00:00 | 00:00:00 | |
| AKAW682 | 2026-09-05 23:42:36 | 49.84779 | 21.55777 | 118° | 203km/h | 8774m | 4.7m/s | 0°C | 0% | 0hPa | 0V | 00:00:00 | 00:00:00 | 00:00:00 | |
| MIELECB | 2026-09-05 23:42:34 | 49.84824 | 21.55633 | 116° | 206km/h | 8766m | 5.5m/s | 0°C | 0% | 0hPa | 0V | 00:00:00 | 00:00:00 | 00:00:00 | |
| AKAW68 | 2026-09-05 23:42:29 | 49.84965 | 21.55298 | 125° | 204km/h | 8735m | 4.6m/s | 0°C | 0% | 0hPa | 0V | 00:00:00 | 00:00:00 | 00:00:00 | |
| MIELECB | 2026-09-05 23:42:28 | 49.84993 | 21.55232 | 123° | 204km/h | 8728m | 9.2m/s | 0°C | 0% | 0hPa | 0V | 00:00:00 | 00:00:00 | 00:00:00 | |
| SQ9PSP-11 | 2026-09-05 23:42:23 | 49.85127 | 21.54863 | 123° | 212km/h | 8702m | 5.5m/s | 0°C | 0% | 0hPa | 0V | 00:00:00 | 00:00:00 | 00:00:00 | |
| MIELECB | 2026-09-05 23:42:22 | 49.85156 | 21.54796 | 127° | 199km/h | 8696m | 6.7m/s | 0°C | 0% | 0hPa | 0V | 00:00:00 | 00:00:00 | 00:00:00 | |
| AKAW682 | 2026-09-05 23:42:16 | 49.85322 | 21.54394 | 121° | 217km/h | 8663m | 4.4m/s | 0°C | 0% | 0hPa | 0V | 00:00:00 | 00:00:00 | 00:00:00 | |
| MIELECB | 2026-09-05 23:42:09 | 49.85511 | 21.53914 | 122° | 193km/h | 8623m | 7.9m/s | 0°C | 0% | 0hPa | 0V | 00:00:00 | 00:00:00 | 00:00:00 | |
| AKAW68 | 2026-09-05 23:42:08 | 49.85537 | 21.53848 | 123° | 199km/h | 8616m | 6.1m/s | 0°C | 0% | 0hPa | 0V | 00:00:00 | 00:00:00 | 00:00:00 | |
| SQ9PSP-11 | 2026-09-05 23:42:07 | 49.85564 | 21.53781 | 123° | 204km/h | 8610m | 7.7m/s | 0°C | 0% | 0hPa | 0V | 00:00:00 | 00:00:00 | 00:00:00 | |
| MIELECB | 2026-09-05 23:42:03 | 49.85673 | 21.53511 | 125° | 190km/h | 8583m | 5.2m/s | 0°C | 0% | 0hPa | 0V | 00:00:00 | 00:00:00 | 00:00:00 | |
| GYPAP8-17 | 2026-09-05 23:42:00 | 49.85757 | 21.53315 | 123° | 204km/h | 8567m | 8.1m/s | 0°C | 0% | 0hPa | 0V | 00:00:00 | 00:00:00 | 00:00:00 | |
| MIELECB | 2026-09-05 23:41:57 | 49.85840 | 21.53118 | 127° | 195km/h | 8546m | 7.9m/s | 0°C | 0% | 0hPa | 0V | 00:00:00 | 00:00:00 | 00:00:00 | |
| AKAW682 | 2026-09-05 23:41:55 | 49.85898 | 21.52986 | 122° | 212km/h | 8533m | 6.2m/s | 0°C | 0% | 0hPa | 0V | 00:00:00 | 00:00:00 | 00:00:00 | |
| MIELECB | 2026-09-05 23:41:52 | 49.85977 | 21.52768 | 123° | 210km/h | 8519m | 3.6m/s | 0°C | 0% | 0hPa | 0V | 00:00:00 | 00:00:00 | 00:00:00 | |
| AKAW68 | 2026-09-05 23:41:48 | 49.86088 | 21.52506 | 121° | 204km/h | 8492m | 8.3m/s | 0°C | 0% | 0hPa | 0V | 00:00:00 | 00:00:00 | 00:00:00 | |
| MIELECB | 2026-09-05 23:41:46 | 49.86141 | 21.52363 | 121° | 208km/h | 8481m | 3.0m/s | 0°C | 0% | 0hPa | 0V | 00:00:00 | 00:00:00 | 00:00:00 | |
| SQ9EZE-12 | 2026-09-05 23:41:43 | 49.86221 | 21.52160 | 122° | 192km/h | 8466m | 5.4m/s | 0°C | 0% | 0hPa | 0V | 00:00:00 | 00:00:00 | 00:00:00 | |
| MIELECB | 2026-09-05 23:41:39 | 49.86330 | 21.51894 | 123° | 204km/h | 8445m | 6.5m/s | 0°C | 0% | 0hPa | 0V | 00:00:00 | 00:00:00 | 00:00:00 | |
| SQ9PSP-11 | 2026-09-05 23:41:37 | 49.86382 | 21.51756 | 120° | 210km/h | 8434m | 5.7m/s | 0°C | 0% | 0hPa | 0V | 00:00:00 | 00:00:00 | 00:00:00 | |
| AKAW682 | 2026-09-05 23:41:35 | 49.86439 | 21.51614 | 125° | 208km/h | 8420m | 5.5m/s | 0°C | 0% | 0hPa | 0V | 00:00:00 | 00:00:00 | 00:00:00 | |
| MIELECB | 2026-09-05 23:41:34 | 49.86467 | 21.51547 | 124° | 201km/h | 8415m | 5.6m/s | 0°C | 0% | 0hPa | 0V | 00:00:00 | 00:00:00 | 00:00:00 | |
| AKAW68 | 2026-09-05 23:41:28 | 49.86628 | 21.51142 | 124° | 212km/h | 8380m | 4.7m/s | 0°C | 0% | 0hPa | 0V | 00:00:00 | 00:00:00 | 00:00:00 | |
| MIELECB | 2026-09-05 23:41:23 | 49.86762 | 21.50817 | 122° | 193km/h | 8353m | 3.1m/s | 0°C | 0% | 0hPa | 0V | 00:00:00 | 00:00:00 | 00:00:00 | |
| SQ9PSP-11 | 2026-09-05 23:41:22 | 49.86788 | 21.50751 | 122° | 197km/h | 8348m | 8.2m/s | 0°C | 0% | 0hPa | 0V | 00:00:00 | 00:00:00 | 00:00:00 | |
| MIELECB | 2026-09-05 23:41:18 | 49.86893 | 21.50478 | 121° | 201km/h | 8322m | 5.8m/s | 0°C | 0% | 0hPa | 0V | 00:00:00 | 00:00:00 | 00:00:00 | |
| MIELECB | 2026-09-05 23:41:12 | 49.87041 | 21.50079 | 119° | 204km/h | 8279m | 4.5m/s | 0°C | 0% | 0hPa | 0V | 00:00:00 | 00:00:00 | 00:00:00 | |
| SQ9EZE-12 | 2026-09-05 23:41:11 | 49.87064 | 21.50008 | 118° | 201km/h | 8274m | 6.2m/s | 0°C | 0% | 0hPa | 0V | 00:00:00 | 00:00:00 | 00:00:00 | |
| AKAW68 | 2026-09-05 23:41:07 | 49.87159 | 21.49736 | 122° | 206km/h | 8248m | 5.4m/s | 0°C | 0% | 0hPa | 0V | 00:00:00 | 00:00:00 | 00:00:00 | |
| SQ9PSP-11 | 2026-09-05 23:41:06 | 49.87186 | 21.49666 | 122° | 212km/h | 8243m | 3.5m/s | 0°C | 0% | 0hPa | 0V | 00:00:00 | 00:00:00 | 00:00:00 | |
| MIELECB | 2026-09-05 23:41:00 | 49.87347 | 21.49266 | 124° | 206km/h | 8216m | 4.4m/s | 0°C | 0% | 0hPa | 0V | 00:00:00 | 00:00:00 | 00:00:00 | |
| AKAW682 | 2026-09-05 23:40:59 | 49.87374 | 21.49197 | 121° | 212km/h | 8212m | 5.8m/s | 0°C | 0% | 0hPa | 0V | 00:00:00 | 00:00:00 | 00:00:00 | |
| MIELECB | 2026-09-05 23:40:53 | 49.87517 | 21.48773 | 119° | 203km/h | 8178m | 5.2m/s | 0°C | 0% | 0hPa | 0V | 00:00:00 | 00:00:00 | 00:00:00 | |
| SQ9EZE-12 | 2026-09-05 23:40:50 | 49.87584 | 21.48570 | 118° | 186km/h | 8156m | 8.0m/s | 0°C | 0% | 0hPa | 0V | 00:00:00 | 00:00:00 | 00:00:00 | |
| MIELECB | 2026-09-05 23:40:48 | 49.87632 | 21.48439 | 121° | 195km/h | 8144m | 6.5m/s | 0°C | 0% | 0hPa | 0V | 00:00:00 | 00:00:00 | 00:00:00 | |
| AKAW68 | 2026-09-05 23:40:47 | 49.87657 | 21.48371 | 120° | 206km/h | 8137m | 8.2m/s | 0°C | 0% | 0hPa | 0V | 00:00:00 | 00:00:00 | 00:00:00 | |
| MIELECB | 2026-09-05 23:40:42 | 49.87775 | 21.48030 | 121° | 181km/h | 8109m | 5.2m/s | 0°C | 0% | 0hPa | 0V | 00:00:00 | 00:00:00 | 00:00:00 | |
| AKAW682 | 2026-09-05 23:40:38 | 49.87877 | 21.47759 | 119° | 203km/h | 8091m | 6.6m/s | 0°C | 0% | 0hPa | 0V | 00:00:00 | 00:00:00 | 00:00:00 | |
| MIELECB | 2026-09-05 23:40:36 | 49.87922 | 21.47622 | 117° | 193km/h | 8079m | 3.5m/s | 0°C | 0% | 0hPa | 0V | 00:00:00 | 00:00:00 | 00:00:00 | |
| SQ9EZE-12 | 2026-09-05 23:40:34 | 49.87963 | 21.47486 | 114° | 193km/h | 8067m | 4.8m/s | 0°C | 0% | 0hPa | 0V | 00:00:00 | 00:00:00 | 00:00:00 | |
| MIELECB | 2026-09-05 23:40:31 | 49.88028 | 21.47272 | 119° | 199km/h | 8049m | 6.2m/s | 0°C | 0% | 0hPa | 0V | 00:00:00 | 00:00:00 | 00:00:00 | |
| MIELECB | 2026-09-05 23:40:26 | 49.88143 | 21.46946 | 119° | 204km/h | 8024m | 4.5m/s | 0°C | 0% | 0hPa | 0V | 00:00:00 | 00:00:00 | 00:00:00 | |
| AKAW68 | 2026-09-05 23:40:25 | 49.88168 | 21.46876 | 119° | 204km/h | 8019m | 6.6m/s | 0°C | 0% | 0hPa | 0V | 00:00:00 | 00:00:00 | 00:00:00 | |
| SQ9PSP-11 | 2026-09-05 23:40:20 | 49.88285 | 21.46535 | 116° | 214km/h | 7989m | 5.3m/s | 0°C | 0% | 0hPa | 0V | 00:00:00 | 00:00:00 | 00:00:00 | |
| SQ9EZE-12 | 2026-09-05 23:40:19 | 49.88308 | 21.46458 | 116° | 214km/h | 7984m | 5.7m/s | 0°C | 0% | 0hPa | 0V | 00:00:00 | 00:00:00 | 00:00:00 | |
| AKAW682 | 2026-09-05 23:40:18 | 49.88330 | 21.46386 | 118° | 197km/h | 7979m | 4.0m/s | 0°C | 0% | 0hPa | 0V | 00:00:00 | 00:00:00 | 00:00:00 | |
| MIELECB | 2026-09-05 23:40:15 | 49.88394 | 21.46195 | 118° | 181km/h | 7960m | 5.1m/s | 0°C | 0% | 0hPa | 0V | 00:00:00 | 00:00:00 | 00:00:00 | |
| MIELECB | 2026-09-05 23:40:10 | 49.88508 | 21.45857 | 121° | 188km/h | 7932m | 4.0m/s | 0°C | 0% | 0hPa | 0V | 00:00:00 | 00:00:00 | 00:00:00 | |
| GYPAP8-17 | 2026-09-05 23:40:09 | 49.88552 | 21.45729 | 116° | 190km/h | 7922m | 5.3m/s | 0°C | 0% | 0hPa | 0V | 00:00:00 | 00:00:00 | 00:00:00 | |
| MIELECB | 2026-09-05 23:40:05 | 49.88641 | 21.45444 | 118° | 195km/h | 7902m | 8.1m/s | 0°C | 0% | 0hPa | 0V | 00:00:00 | 00:00:00 | 00:00:00 | |
| SQ9PSP-11 | 2026-09-05 23:40:04 | 49.88641 | 21.45444 | 118° | 195km/h | 7902m | 8.1m/s | 0°C | 0% | 0hPa | 0V | 00:00:00 | 00:00:00 | 00:00:00 | |
| MIELECB | 2026-09-05 23:39:59 | 49.88742 | 21.45109 | 119° | 203km/h | 7870m | 6.3m/s | 0°C | 0% | 0hPa | 0V | 00:00:00 | 00:00:00 | 00:00:00 | |
| AKAW682 | 2026-09-05 23:39:57 | 49.88790 | 21.44977 | 122° | 183km/h | 7860m | 9.4m/s | 0°C | 0% | 0hPa | 0V | 00:00:00 | 00:00:00 | 00:00:00 | |
| MIELECB | 2026-09-05 23:39:53 | 49.88877 | 21.44723 | 118° | 203km/h | 7834m | 8.9m/s | 0°C | 0% | 0hPa | 0V | 00:00:00 | 00:00:00 | 00:00:00 | |
| SQ9PSP-11 | 2026-09-05 23:39:48 | 49.88990 | 21.44412 | 119° | 173km/h | 7803m | 5.2m/s | 0°C | 0% | 0hPa | 0V | 00:00:00 | 00:00:00 | 00:00:00 | |
| AKAW68 | 2026-09-05 23:39:44 | 49.89067 | 21.44143 | 116° | 184km/h | 7781m | 5.1m/s | 0°C | 0% | 0hPa | 0V | 00:00:00 | 00:00:00 | 00:00:00 | |
| MIELECB | 2026-09-05 23:39:43 | 49.89088 | 21.44080 | 119° | 179km/h | 7775m | 7.3m/s | 0°C | 0% | 0hPa | 0V | 00:00:00 | 00:00:00 | 00:00:00 | |
| MIELECB | 2026-09-05 23:39:37 | 49.89223 | 21.43690 | 118° | 184km/h | 7743m | 5.4m/s | 0°C | 0% | 0hPa | 0V | 00:00:00 | 00:00:00 | 00:00:00 | |
| AKAW682 | 2026-09-05 23:39:36 | 49.89244 | 21.43629 | 120° | 170km/h | 7738m | 3.6m/s | 0°C | 0% | 0hPa | 0V | 00:00:00 | 00:00:00 | 00:00:00 | |
| MIELECB | 2026-09-05 23:39:32 | 49.89316 | 21.43380 | 113° | 192km/h | 7721m | 4.8m/s | 0°C | 0% | 0hPa | 0V | 00:00:00 | 00:00:00 | 00:00:00 | |
| SQ9EZE-12 | 2026-09-05 23:39:27 | 49.89425 | 21.43059 | 116° | 179km/h | 7691m | 5.2m/s | 0°C | 0% | 0hPa | 0V | 00:00:00 | 00:00:00 | 00:00:00 | |
| MIELECB | 2026-09-05 23:39:26 | 49.89444 | 21.42993 | 113° | 188km/h | 7686m | 5.2m/s | 0°C | 0% | 0hPa | 0V | 00:00:00 | 00:00:00 | 00:00:00 | |
| MIELECB | 2026-09-05 23:39:23 | 49.89548 | 21.42666 | 116° | 177km/h | 7662m | 3.8m/s | 0°C | 0% | 0hPa | 0V | 00:00:00 | 00:00:00 | 00:00:00 | |
| MIELECB | 2026-09-05 23:39:22 | 49.89662 | 21.42287 | 122° | 181km/h | 7627m | 6.2m/s | 0°C | 0% | 0hPa | 0V | 00:00:00 | 00:00:00 | 00:00:00 | |
| MIELECB | 2026-09-05 23:39:20 | 49.89754 | 21.41978 | 115° | 181km/h | 7600m | 5.0m/s | 0°C | 0% | 0hPa | 0V | 00:00:00 | 00:00:00 | 00:00:00 | |
| SQ9EZE-12 | 2026-09-05 23:39:13 | 49.89773 | 21.41913 | 117° | 186km/h | 7595m | 4.2m/s | 0°C | 0% | 0hPa | 0V | 00:00:00 | 00:00:00 | 00:00:00 | |
| MIELECB | 2026-09-05 23:39:04 | 49.89870 | 21.41584 | 116° | 164km/h | 7571m | 3.4m/s | 0°C | 0% | 0hPa | 0V | 00:00:00 | 00:00:00 | 00:00:00 | |
| AKAW682 | 2026-09-05 23:39:03 | 49.89888 | 21.41526 | 117° | 162km/h | 7569m | 1.2m/s | 0°C | 0% | 0hPa | 0V | 00:00:00 | 00:00:00 | 00:00:00 | |
| SQ9PSP-11 | 2026-09-05 23:39:00 | 49.89940 | 21.41350 | 114° | 179km/h | 7556m | 7.8m/s | 0°C | 0% | 0hPa | 0V | 00:00:00 | 00:00:00 | 00:00:00 | |
| MIELECB | 2026-09-05 23:38:59 | 49.89959 | 21.41284 | 115° | 192km/h | 7548m | 8.1m/s | 0°C | 0% | 0hPa | 0V | 00:00:00 | 00:00:00 | 00:00:00 | |
| MIELECB | 2026-09-05 23:38:54 | 49.90065 | 21.40949 | 111° | 179km/h | 7516m | 5.4m/s | 0°C | 0% | 0hPa | 0V | 00:00:00 | 00:00:00 | 00:00:00 | |
| SQ9EZE-12 | 2026-09-05 23:38:53 | 49.90079 | 21.40883 | 109° | 179km/h | 7510m | 6.4m/s | 0°C | 0% | 0hPa | 0V | 00:00:00 | 00:00:00 | 00:00:00 | |
| GYPAP8-17 | 2026-09-05 23:38:48 | 49.90174 | 21.40562 | 113° | 183km/h | 7480m | 7.6m/s | 0°C | 0% | 0hPa | 0V | 00:00:00 | 00:00:00 | 00:00:00 | |
| SQ9PSP-11 | 2026-09-05 23:38:44 | 49.90243 | 21.40299 | 114° | 173km/h | 7462m | 4.3m/s | 0°C | 0% | 0hPa | 0V | 00:00:00 | 00:00:00 | 00:00:00 | |
| MIELECB | 2026-09-05 23:38:42 | 49.90282 | 21.40175 | 119° | 177km/h | 7452m | 3.9m/s | 0°C | 0% | 0hPa | 0V | 00:00:00 | 00:00:00 | 00:00:00 | |
| SQ9EZE-12 | 2026-09-05 23:38:37 | 49.90385 | 21.39849 | 112° | 183km/h | 7431m | 4.2m/s | 0°C | 0% | 0hPa | 0V | 00:00:00 | 00:00:00 | 00:00:00 | |
| MIELECB | 2026-09-05 23:38:36 | 49.90401 | 21.39783 | 112° | 177km/h | 7426m | 5.7m/s | 0°C | 0% | 0hPa | 0V | 00:00:00 | 00:00:00 | 00:00:00 | |
| MIELECB | 2026-09-05 23:38:31 | 49.90500 | 21.39467 | 122° | 175km/h | 7396m | 5.1m/s | 0°C | 0% | 0hPa | 0V | 00:00:00 | 00:00:00 | 00:00:00 | |
| SQ9PSP-11 | 2026-09-05 23:38:28 | 49.90560 | 21.39283 | 114° | 186km/h | 7382m | 5.4m/s | 0°C | 0% | 0hPa | 0V | 00:00:00 | 00:00:00 | 00:00:00 | |
| MIELECB | 2026-09-05 23:38:25 | 49.90618 | 21.39079 | 115° | 179km/h | 7371m | 5.6m/s | 0°C | 0% | 0hPa | 0V | 00:00:00 | 00:00:00 | 00:00:00 | |
| AKAW682 | 2026-09-05 23:38:22 | 49.90669 | 21.38911 | 115° | 155km/h | 7360m | 1.0m/s | 0°C | 0% | 0hPa | 0V | 00:00:00 | 00:00:00 | 00:00:00 | |
| AKAW68 | 2026-09-05 23:38:21 | 49.90685 | 21.38853 | 115° | 166km/h | 7357m | 4.8m/s | 0°C | 0% | 0hPa | 0V | 00:00:00 | 00:00:00 | 00:00:00 | |
| SQ9EZE-12 | 2026-09-05 23:38:20 | 49.90702 | 21.38791 | 113° | 177km/h | 7351m | 7.4m/s | 0°C | 0% | 0hPa | 0V | 00:00:00 | 00:00:00 | 00:00:00 | |
| MIELECB | 2026-09-05 23:38:14 | 49.90809 | 21.38414 | 117° | 162km/h | 7315m | 8.0m/s | 0°C | 0% | 0hPa | 0V | 00:00:00 | 00:00:00 | 00:00:00 | |
| SQ9PSP-11 | 2026-09-05 23:38:12 | 49.90846 | 21.38291 | 117° | 181km/h | 7305m | 4.5m/s | 0°C | 0% | 0hPa | 0V | 00:00:00 | 00:00:00 | 00:00:00 | |
| MIELECB | 2026-09-05 23:38:09 | 49.90904 | 21.38106 | 117° | 168km/h | 7290m | 6.6m/s | 0°C | 0% | 0hPa | 0V | 00:00:00 | 00:00:00 | 00:00:00 | |
| SQ9EZE-12 | 2026-09-05 23:38:04 | 49.90985 | 21.37797 | 112° | 172km/h | 7261m | 2.9m/s | 0°C | 0% | 0hPa | 0V | 00:00:00 | 00:00:00 | 00:00:00 | |
| MIELECB | 2026-09-05 23:38:03 | 49.91001 | 21.37735 | 112° | 166km/h | 7257m | 5.4m/s | 0°C | 0% | 0hPa | 0V | 00:00:00 | 00:00:00 | 00:00:00 | |
| AKAW682 | 2026-09-05 23:38:02 | 49.91016 | 21.37675 | 114° | 162km/h | 7252m | 4.1m/s | 0°C | 0% | 0hPa | 0V | 00:00:00 | 00:00:00 | 00:00:00 | |
| AKAW68 | 2026-09-05 23:38:00 | 49.91050 | 21.37565 | 119° | 150km/h | 7240m | 5.6m/s | 0°C | 0% | 0hPa | 0V | 00:00:00 | 00:00:00 | 00:00:00 | |
| MIELECB | 2026-09-05 23:37:58 | 49.91085 | 21.37458 | 117° | 159km/h | 7232m | 5.2m/s | 0°C | 0% | 0hPa | 0V | 00:00:00 | 00:00:00 | 00:00:00 | |
| SQ9PSP-11 | 2026-09-05 23:37:57 | 49.91103 | 21.37400 | 115° | 172km/h | 7227m | 5.7m/s | 0°C | 0% | 0hPa | 0V | 00:00:00 | 00:00:00 | 00:00:00 | |
| MIELECB | 2026-09-05 23:37:52 | 49.91192 | 21.37096 | 117° | 168km/h | 7203m | 3.3m/s | 0°C | 0% | 0hPa | 0V | 00:00:00 | 00:00:00 | 00:00:00 | |
| SQ9EZE-12 | 2026-09-05 23:37:47 | 49.91281 | 21.36812 | 111° | 151km/h | 7175m | 5.9m/s | 0°C | 0% | 0hPa | 0V | 00:00:00 | 00:00:00 | 00:00:00 | |
| MIELECB | 2026-09-05 23:37:46 | 49.91295 | 21.36756 | 112° | 155km/h | 7168m | 8.4m/s | 0°C | 0% | 0hPa | 0V | 00:00:00 | 00:00:00 | 00:00:00 | |
| SQ9PSP-11 | 2026-09-05 23:37:41 | 49.91365 | 21.36453 | 112° | 162km/h | 7136m | 6.1m/s | 0°C | 0% | 0hPa | 0V | 00:00:00 | 00:00:00 | 00:00:00 | |
| AKAW68 | 2026-09-05 23:37:40 | 49.91380 | 21.36396 | 112° | 150km/h | 7130m | 4.5m/s | 0°C | 0% | 0hPa | 0V | 00:00:00 | 00:00:00 | 00:00:00 | |
| MIELECB | 2026-09-05 23:37:35 | 49.91450 | 21.36110 | 117° | 161km/h | 7106m | 5.4m/s | 0°C | 0% | 0hPa | 0V | 00:00:00 | 00:00:00 | 00:00:00 | |
| SQ9EZE-12 | 2026-09-05 23:37:31 | 49.91505 | 21.35880 | 110° | 166km/h | 7088m | 4.0m/s | 0°C | 0% | 0hPa | 0V | 00:00:00 | 00:00:00 | 00:00:00 | |
| MIELECB | 2026-09-05 23:37:30 | 49.91520 | 21.35819 | 113° | 166km/h | 7084m | 4.1m/s | 0°C | 0% | 0hPa | 0V | 00:00:00 | 00:00:00 | 00:00:00 | |
| SQ9PSP-11 | 2026-09-05 23:37:26 | 49.91576 | 21.35586 | 111° | 153km/h | 7061m | 8.9m/s | 0°C | 0% | 0hPa | 0V | 00:00:00 | 00:00:00 | 00:00:00 | |
| MIELECB | 2026-09-05 23:37:24 | 49.91610 | 21.35469 | 117° | 166km/h | 7049m | 3.8m/s | 0°C | 0% | 0hPa | 0V | 00:00:00 | 00:00:00 | 00:00:00 | |
| AKAW682 | 2026-09-05 23:37:21 | 49.91656 | 21.35293 | 109° | 155km/h | 7034m | 3.2m/s | 0°C | 0% | 0hPa | 0V | 00:00:00 | 00:00:00 | 00:00:00 | |
| MIELECB | 2026-09-05 23:37:19 | 49.91682 | 21.35176 | 111° | 162km/h | 7022m | 5.7m/s | 0°C | 0% | 0hPa | 0V | 00:00:00 | 00:00:00 | 00:00:00 | |
| SQ9EZE-12 | 2026-09-05 23:37:15 | 49.91747 | 21.34936 | 110° | 161km/h | 7006m | 4.3m/s | 0°C | 0% | 0hPa | 0V | 00:00:00 | 00:00:00 | 00:00:00 | |
| MIELECB | 2026-09-05 23:37:13 | 49.91773 | 21.34825 | 111° | 144km/h | 6997m | 5.0m/s | 0°C | 0% | 0hPa | 0V | 00:00:00 | 00:00:00 | 00:00:00 | |
| SQ9PSP-11 | 2026-09-05 23:37:10 | 49.91812 | 21.34662 | 110° | 155km/h | 6982m | 6.5m/s | 0°C | 0% | 0hPa | 0V | 00:00:00 | 00:00:00 | 00:00:00 | |
| MIELECB | 2026-09-05 23:37:07 | 49.91851 | 21.34473 | 111° | 175km/h | 6964m | 4.5m/s | 0°C | 0% | 0hPa | 0V | 00:00:00 | 00:00:00 | 00:00:00 | |
| AKAW682 | 2026-09-05 23:36:59 | 49.91960 | 21.34010 | 112° | 157km/h | 6915m | 5.6m/s | 0°C | 0% | 0hPa | 0V | 00:00:00 | 00:00:00 | 00:00:00 | |
| MIELECB | 2026-09-05 23:36:58 | 49.91975 | 21.33952 | 113° | 162km/h | 6910m | 5.1m/s | 0°C | 0% | 0hPa | 0V | 00:00:00 | 00:00:00 | 00:00:00 | |
| SQ9PSP-11 | 2026-09-05 23:36:55 | 49.92025 | 21.33762 | 112° | 170km/h | 6893m | 3.4m/s | 0°C | 0% | 0hPa | 0V | 00:00:00 | 00:00:00 | 00:00:00 | |
| MIELECB | 2026-09-05 23:36:53 | 49.92051 | 21.33643 | 108° | 153km/h | 6881m | 7.9m/s | 0°C | 0% | 0hPa | 0V | 00:00:00 | 00:00:00 | 00:00:00 | |
| MIELECB | 2026-09-05 23:36:47 | 49.92133 | 21.33299 | 115° | 161km/h | 6846m | 3.7m/s | 0°C | 0% | 0hPa | 0V | 00:00:00 | 00:00:00 | 00:00:00 | |
| SQ9EZE-12 | 2026-09-05 23:36:43 | 49.92197 | 21.33053 | 111° | 170km/h | 6826m | 4.1m/s | 0°C | 0% | 0hPa | 0V | 00:00:00 | 00:00:00 | 00:00:00 | |
| MIELECB | 2026-09-05 23:36:42 | 49.92210 | 21.32992 | 110° | 161km/h | 6821m | 7.4m/s | 0°C | 0% | 0hPa | 0V | 00:00:00 | 00:00:00 | 00:00:00 | |
| SQ9PSP-11 | 2026-09-05 23:36:40 | 49.92235 | 21.32880 | 112° | 144km/h | 6806m | 5.2m/s | 0°C | 0% | 0hPa | 0V | 00:00:00 | 00:00:00 | 00:00:00 | |
| AKAW68 | 2026-09-05 23:36:39 | 49.92267 | 21.32770 | 115° | 161km/h | 6796m | 5.4m/s | 0°C | 0% | 0hPa | 0V | 00:00:00 | 00:00:00 | 00:00:00 | |
| MIELECB | 2026-09-05 23:36:37 | 49.92283 | 21.32710 | 114° | 170km/h | 6789m | 6.4m/s | 0°C | 0% | 0hPa | 0V | 00:00:00 | 00:00:00 | 00:00:00 | |
| MIELECB | 2026-09-05 23:36:31 | 49.92362 | 21.32356 | 107° | 150km/h | 6753m | 4.0m/s | 0°C | 0% | 0hPa | 0V | 00:00:00 | 00:00:00 | 00:00:00 | |
| SQ9EZE-12 | 2026-09-05 23:36:28 | 49.92398 | 21.32192 | 112° | 148km/h | 6738m | 4.9m/s | 0°C | 0% | 0hPa | 0V | 00:00:00 | 00:00:00 | 00:00:00 | |
| MIELECB | 2026-09-05 23:36:25 | 49.92439 | 21.32014 | 111° | 166km/h | 6718m | 4.2m/s | 0°C | 0% | 0hPa | 0V | 00:00:00 | 00:00:00 | 00:00:00 | |
| MIELECB | 2026-09-05 23:36:19 | 49.92523 | 21.31660 | 114° | 166km/h | 6687m | 2.7m/s | 0°C | 0% | 0hPa | 0V | 00:00:00 | 00:00:00 | 00:00:00 | |
| AKAW682 | 2026-09-05 23:36:18 | 49.92540 | 21.31603 | 116° | 153km/h | 6681m | 7.2m/s | 0°C | 0% | 0hPa | 0V | 00:00:00 | 00:00:00 | 00:00:00 | |
| AKAW68 | 2026-09-05 23:36:17 | 49.92555 | 21.31552 | 116° | 133km/h | 6675m | 4.3m/s | 0°C | 0% | 0hPa | 0V | 00:00:00 | 00:00:00 | 00:00:00 | |
| MIELECB | 2026-09-05 23:36:14 | 49.92596 | 21.31399 | 110° | 159km/h | 6661m | 6.7m/s | 0°C | 0% | 0hPa | 0V | 00:00:00 | 00:00:00 | 00:00:00 | |
| SQ9EZE-12 | 2026-09-05 23:36:12 | 49.92623 | 21.31277 | 112° | 162km/h | 6651m | 3.5m/s | 0°C | 0% | 0hPa | 0V | 00:00:00 | 00:00:00 | 00:00:00 | |
| SQ9PSP-11 | 2026-09-05 23:36:09 | 49.92670 | 21.31117 | 117° | 151km/h | 6635m | 5.5m/s | 0°C | 0% | 0hPa | 0V | 00:00:00 | 00:00:00 | 00:00:00 | |
| MIELECB | 2026-09-05 23:36:03 | 49.92747 | 21.30780 | 113° | 146km/h | 6606m | 6.7m/s | 0°C | 0% | 0hPa | 0V | 00:00:00 | 00:00:00 | 00:00:00 | |
| AKAW682 | 2026-09-05 23:35:58 | 49.92832 | 21.30499 | 112° | 148km/h | 6578m | 5.2m/s | 0°C | 0% | 0hPa | 0V | 00:00:00 | 00:00:00 | 00:00:00 | |
| SQ9EZE-12 | 2026-09-05 23:35:57 | 49.92845 | 21.30444 | 111° | 150km/h | 6573m | 3.0m/s | 0°C | 0% | 0hPa | 0V | 00:00:00 | 00:00:00 | 00:00:00 | |
| SQ9PSP-11 | 2026-09-05 23:35:55 | 49.92891 | 21.30274 | 117° | 159km/h | 6556m | 5.1m/s | 0°C | 0% | 0hPa | 0V | 00:00:00 | 00:00:00 | 00:00:00 | |
| MIELECB | 2026-09-05 23:35:51 | 49.92940 | 21.30115 | 115° | 144km/h | 6542m | 7.7m/s | 0°C | 0% | 0hPa | 0V | 00:00:00 | 00:00:00 | 00:00:00 | |
| MIELECB | 2026-09-05 23:35:45 | 49.93028 | 21.29823 | 116° | 142km/h | 6510m | 6.4m/s | 0°C | 0% | 0hPa | 0V | 00:00:00 | 00:00:00 | 00:00:00 | |
| SQ9EZE-12 | 2026-09-05 23:35:42 | 49.93066 | 21.29664 | 111° | 141km/h | 6491m | 5.7m/s | 0°C | 0% | 0hPa | 0V | 00:00:00 | 00:00:00 | 00:00:00 | |
| SQ9PSP-11 | 2026-09-05 23:35:39 | 49.93108 | 21.29509 | 114° | 144km/h | 6470m | 3.9m/s | 0°C | 0% | 0hPa | 0V | 00:00:00 | 00:00:00 | 00:00:00 | |
| AKAW682 | 2026-09-05 23:35:37 | 49.93137 | 21.29403 | 114° | 151km/h | 6461m | 3.6m/s | 0°C | 0% | 0hPa | 0V | 00:00:00 | 00:00:00 | 00:00:00 | |
| AKAW68 | 2026-09-05 23:35:35 | 49.93165 | 21.29290 | 111° | 155km/h | 6451m | 3.3m/s | 0°C | 0% | 0hPa | 0V | 00:00:00 | 00:00:00 | 00:00:00 | |
| MIELECB | 2026-09-05 23:35:33 | 49.93194 | 21.29187 | 117° | 133km/h | 6441m | 6.5m/s | 0°C | 0% | 0hPa | 0V | 00:00:00 | 00:00:00 | 00:00:00 | |
| MIELECB | 2026-09-05 23:35:27 | 49.93277 | 21.28882 | 107° | 148km/h | 6410m | 4.0m/s | 0°C | 0% | 0hPa | 0V | 00:00:00 | 00:00:00 | 00:00:00 | |
| SQ9EZE-12 | 2026-09-05 23:35:25 | 49.93301 | 21.28782 | 117° | 130km/h | 6399m | 7.1m/s | 0°C | 0% | 0hPa | 0V | 00:00:00 | 00:00:00 | 00:00:00 | |
| SQ9PSP-11 | 2026-09-05 23:35:23 | 49.93332 | 21.28690 | 117° | 137km/h | 6388m | 3.0m/s | 0°C | 0% | 0hPa | 0V | 00:00:00 | 00:00:00 | 00:00:00 | |
| MIELECB | 2026-09-05 23:35:21 | 49.93358 | 21.28585 | 109° | 144km/h | 6377m | 8.6m/s | 0°C | 0% | 0hPa | 0V | 00:00:00 | 00:00:00 | 00:00:00 | |
| AKAW682 | 2026-09-05 23:35:17 | 49.93402 | 21.28373 | 108° | 131km/h | 6349m | 5.4m/s | 0°C | 0% | 0hPa | 0V | 00:00:00 | 00:00:00 | 00:00:00 | |
| AKAW68 | 2026-09-05 23:35:15 | 49.93419 | 21.28277 | 106° | 122km/h | 6340m | 4.6m/s | 0°C | 0% | 0hPa | 0V | 00:00:00 | 00:00:00 | 00:00:00 | |
| MIELECB | 2026-09-05 23:35:10 | 49.93482 | 21.28032 | 111° | 137km/h | 6313m | 3.6m/s | 0°C | 0% | 0hPa | 0V | 00:00:00 | 00:00:00 | 00:00:00 | |
| SQ9PSP-11 | 2026-09-05 23:35:08 | 49.93505 | 21.27932 | 111° | 133km/h | 6298m | 9.2m/s | 0°C | 0% | 0hPa | 0V | 00:00:00 | 00:00:00 | 00:00:00 | |
| MIELECB | 2026-09-05 23:35:04 | 49.93549 | 21.27729 | 109° | 135km/h | 6269m | 5.8m/s | 0°C | 0% | 0hPa | 0V | 00:00:00 | 00:00:00 | 00:00:00 | |
| AKAW682 | 2026-09-05 23:34:56 | 49.93639 | 21.27318 | 109° | 133km/h | 6230m | 4.8m/s | 0°C | 0% | 0hPa | 0V | 00:00:00 | 00:00:00 | 00:00:00 | |
| AKAW68 | 2026-09-05 23:34:54 | 49.93661 | 21.27223 | 112° | 126km/h | 6216m | 7.0m/s | 0°C | 0% | 0hPa | 0V | 00:00:00 | 00:00:00 | 00:00:00 | |
| SQ9EZE-12 | 2026-09-05 23:34:53 | 49.93673 | 21.27176 | 113° | 130km/h | 6208m | 7.1m/s | 0°C | 0% | 0hPa | 0V | 00:00:00 | 00:00:00 | 00:00:00 | |
| SQ9PSP-11 | 2026-09-05 23:34:52 | 49.93686 | 21.27128 | 114° | 131km/h | 6203m | 2.9m/s | 0°C | 0% | 0hPa | 0V | 00:00:00 | 00:00:00 | 00:00:00 | |
| MIELECB | 2026-09-05 23:34:51 | 49.93699 | 21.27082 | 116° | 130km/h | 6198m | 5.6m/s | 0°C | 0% | 0hPa | 0V | 00:00:00 | 00:00:00 | 00:00:00 | |
| MIELECB | 2026-09-05 23:34:44 | 49.93777 | 21.26757 | 112° | 117km/h | 6157m | 5.6m/s | 0°C | 0% | 0hPa | 0V | 00:00:00 | 00:00:00 | 00:00:00 | |
| SQ9PSP-11 | 2026-09-05 23:34:37 | 49.93869 | 21.26434 | 110° | 115km/h | 6113m | 6.7m/s | 0°C | 0% | 0hPa | 0V | 00:00:00 | 00:00:00 | 00:00:00 | |
| SQ9EZE-12 | 2026-09-05 23:34:35 | 49.93888 | 21.26351 | 110° | 111km/h | 6104m | 3.4m/s | 0°C | 0% | 0hPa | 0V | 00:00:00 | 00:00:00 | 00:00:00 | |
| AKAW68 | 2026-09-05 23:34:34 | 49.93898 | 21.26308 | 113° | 119km/h | 6100m | 4.8m/s | 0°C | 0% | 0hPa | 0V | 00:00:00 | 00:00:00 | 00:00:00 | |
| MIELECB | 2026-09-05 23:34:33 | 49.93911 | 21.26264 | 118° | 128km/h | 6094m | 5.7m/s | 0°C | 0% | 0hPa | 0V | 00:00:00 | 00:00:00 | 00:00:00 | |
| MIELECB | 2026-09-05 23:34:27 | 49.93984 | 21.25987 | 109° | 110km/h | 6060m | 3.5m/s | 0°C | 0% | 0hPa | 0V | 00:00:00 | 00:00:00 | 00:00:00 | |
| MIELECB | 2026-09-05 23:34:21 | 49.94049 | 21.25708 | 108° | 130km/h | 6031m | 3.7m/s | 0°C | 0% | 0hPa | 0V | 00:00:00 | 00:00:00 | 00:00:00 | |
| SQ9EZE-12 | 2026-09-05 23:34:18 | 49.94079 | 21.25573 | 113° | 117km/h | 6014m | 5.0m/s | 0°C | 0% | 0hPa | 0V | 00:00:00 | 00:00:00 | 00:00:00 | |
| MIELECB | 2026-09-05 23:34:15 | 49.94112 | 21.25450 | 114° | 108km/h | 5997m | 4.8m/s | 0°C | 0% | 0hPa | 0V | 00:00:00 | 00:00:00 | 00:00:00 | |
| AKAW682 | 2026-09-05 23:34:14 | 49.94122 | 21.25411 | 111° | 108km/h | 5991m | 6.4m/s | 0°C | 0% | 0hPa | 0V | 00:00:00 | 00:00:00 | 00:00:00 | |
| AKAW68 | 2026-09-05 23:34:13 | 49.94132 | 21.25370 | 111° | 113km/h | 5984m | 7.7m/s | 0°C | 0% | 0hPa | 0V | 00:00:00 | 00:00:00 | 00:00:00 | |
| MIELECB | 2026-09-05 23:34:07 | 49.94206 | 21.25104 | 115° | 111km/h | 5946m | 6.8m/s | 0°C | 0% | 0hPa | 0V | 00:00:00 | 00:00:00 | 00:00:00 | |
| SQ9PSP-11 | 2026-09-05 23:34:06 | 49.94218 | 21.25062 | 116° | 122km/h | 5939m | 6.3m/s | 0°C | 0% | 0hPa | 0V | 00:00:00 | 00:00:00 | 00:00:00 | |
| MIELECB | 2026-09-05 23:34:02 | 49.94270 | 21.24882 | 115° | 106km/h | 5919m | 6.0m/s | 0°C | 0% | 0hPa | 0V | 00:00:00 | 00:00:00 | 00:00:00 | |
| SQ9EZE-12 | 2026-09-05 23:34:01 | 49.94280 | 21.24846 | 116° | 99km/h | 5913m | 4.3m/s | 0°C | 0% | 0hPa | 0V | 00:00:00 | 00:00:00 | 00:00:00 | |
| MIELECB | 2026-09-05 23:33:57 | 49.94332 | 21.24693 | 121° | 124km/h | 5894m | 6.1m/s | 0°C | 0% | 0hPa | 0V | 00:00:00 | 00:00:00 | 00:00:00 | |
| AKAW682 | 2026-09-05 23:33:54 | 49.94375 | 21.24561 | 115° | 119km/h | 5875m | 4.5m/s | 0°C | 0% | 0hPa | 0V | 00:00:00 | 00:00:00 | 00:00:00 | |
| AKAW68 | 2026-09-05 23:33:53 | 49.94387 | 21.24521 | 116° | 108km/h | 5870m | 5.6m/s | 0°C | 0% | 0hPa | 0V | 00:00:00 | 00:00:00 | 00:00:00 | |
| MIELECB | 2026-09-05 23:33:51 | 49.94408 | 21.24445 | 111° | 111km/h | 5859m | 3.2m/s | 0°C | 0% | 0hPa | 0V | 00:00:00 | 00:00:00 | 00:00:00 | |
| SQ9PSP-11 | 2026-09-05 23:33:50 | 49.94418 | 21.24403 | 113° | 117km/h | 5856m | 4.4m/s | 0°C | 0% | 0hPa | 0V | 00:00:00 | 00:00:00 | 00:00:00 | |
| MIELECB | 2026-09-05 23:33:46 | 49.94470 | 21.24222 | 113° | 130km/h | 5836m | 4.3m/s | 0°C | 0% | 0hPa | 0V | 00:00:00 | 00:00:00 | 00:00:00 | |
| MIELECB | 2026-09-05 23:33:40 | 49.94526 | 21.23971 | 113° | 99km/h | 5802m | 6.2m/s | 0°C | 0% | 0hPa | 0V | 00:00:00 | 00:00:00 | 00:00:00 | |
| SQ9PSP-11 | 2026-09-05 23:33:34 | 49.94596 | 21.23725 | 121° | 115km/h | 5767m | 4.8m/s | 0°C | 0% | 0hPa | 0V | 00:00:00 | 00:00:00 | 00:00:00 | |
| AKAW682 | 2026-09-05 23:33:33 | 49.94610 | 21.23684 | 115° | 119km/h | 5761m | 5.8m/s | 0°C | 0% | 0hPa | 0V | 00:00:00 | 00:00:00 | 00:00:00 | |
| AKAW68 | 2026-09-05 23:33:32 | 49.94621 | 21.23641 | 111° | 119km/h | 5754m | 6.8m/s | 0°C | 0% | 0hPa | 0V | 00:00:00 | 00:00:00 | 00:00:00 | |
| SQ9EZE-12 | 2026-09-05 23:33:31 | 49.94632 | 21.23597 | 112° | 119km/h | 5747m | 5.2m/s | 0°C | 0% | 0hPa | 0V | 00:00:00 | 00:00:00 | 00:00:00 | |
| MIELECB | 2026-09-05 23:33:28 | 49.94670 | 21.23482 | 120° | 106km/h | 5731m | 4.9m/s | 0°C | 0% | 0hPa | 0V | 00:00:00 | 00:00:00 | 00:00:00 | |
| MIELECB | 2026-09-05 23:33:22 | 49.94735 | 21.23255 | 120° | 110km/h | 5695m | 4.8m/s | 0°C | 0% | 0hPa | 0V | 00:00:00 | 00:00:00 | 00:00:00 | |
| SQ9PSP-11 | 2026-09-05 23:33:19 | 49.94766 | 21.23148 | 109° | 91km/h | 5680m | 4.0m/s | 0°C | 0% | 0hPa | 0V | 00:00:00 | 00:00:00 | 00:00:00 | |
| MIELECB | 2026-09-05 23:33:15 | 49.94803 | 21.23027 | 120° | 93km/h | 5663m | 4.7m/s | 0°C | 0% | 0hPa | 0V | 00:00:00 | 00:00:00 | 00:00:00 | |
| SQ9EZE-12 | 2026-09-05 23:33:14 | 49.94814 | 21.22993 | 114° | 100km/h | 5656m | 8.3m/s | 0°C | 0% | 0hPa | 0V | 00:00:00 | 00:00:00 | 00:00:00 | |
| AKAW682 | 2026-09-05 23:33:13 | 49.94824 | 21.22956 | 112° | 106km/h | 5648m | 7.0m/s | 0°C | 0% | 0hPa | 0V | 00:00:00 | 00:00:00 | 00:00:00 | |
| AKAW68 | 2026-09-05 23:33:12 | 49.94834 | 21.22918 | 115° | 108km/h | 5642m | 4.2m/s | 0°C | 0% | 0hPa | 0V | 00:00:00 | 00:00:00 | 00:00:00 | |
| MIELECB | 2026-09-05 23:33:09 | 49.94867 | 21.22803 | 110° | 102km/h | 5626m | 6.5m/s | 0°C | 0% | 0hPa | 0V | 00:00:00 | 00:00:00 | 00:00:00 | |
| MIELECB | 2026-09-05 23:33:04 | 49.94905 | 21.22636 | 122° | 97km/h | 5599m | 5.8m/s | 0°C | 0% | 0hPa | 0V | 00:00:00 | 00:00:00 | 00:00:00 | |
| SQ9PSP-11 | 2026-09-05 23:33:03 | 49.94918 | 21.22603 | 122° | 100km/h | 5594m | 3.8m/s | 0°C | 0% | 0hPa | 0V | 00:00:00 | 00:00:00 | 00:00:00 | |
| MIELECB | 2026-09-05 23:32:59 | 49.94955 | 21.22456 | 111° | 89km/h | 5577m | 3.4m/s | 0°C | 0% | 0hPa | 0V | 00:00:00 | 00:00:00 | 00:00:00 | |
| SQ9EZE-12 | 2026-09-05 23:32:58 | 49.94963 | 21.22424 | 118° | 86km/h | 5573m | 3.9m/s | 0°C | 0% | 0hPa | 0V | 00:00:00 | 00:00:00 | 00:00:00 | |
| MIELECB | 2026-09-05 23:32:53 | 49.95016 | 21.22249 | 107° | 91km/h | 5552m | 3.7m/s | 0°C | 0% | 0hPa | 0V | 00:00:00 | 00:00:00 | 00:00:00 | |
| AKAW682 | 2026-09-05 23:32:52 | 49.95022 | 21.22216 | 107° | 86km/h | 5549m | 1.8m/s | 0°C | 0% | 0hPa | 0V | 00:00:00 | 00:00:00 | 00:00:00 | |
| AKAW68 | 2026-09-05 23:32:51 | 49.95029 | 21.22182 | 111° | 93km/h | 5546m | 3.7m/s | 0°C | 0% | 0hPa | 0V | 00:00:00 | 00:00:00 | 00:00:00 | |
| MIELECB | 2026-09-05 23:32:48 | 49.95053 | 21.22080 | 111° | 91km/h | 5527m | 7.9m/s | 0°C | 0% | 0hPa | 0V | 00:00:00 | 00:00:00 | 00:00:00 | |
| SQ9PSP-11 | 2026-09-05 23:32:47 | 49.95062 | 21.22047 | 118° | 89km/h | 5518m | 7.3m/s | 0°C | 0% | 0hPa | 0V | 00:00:00 | 00:00:00 | 00:00:00 | |
| MIELECB | 2026-09-05 23:32:43 | 49.95116 | 21.21915 | 117° | 100km/h | 5495m | 5.1m/s | 0°C | 0% | 0hPa | 0V | 00:00:00 | 00:00:00 | 00:00:00 | |
| SQ9EZE-12 | 2026-09-05 23:32:42 | 49.95125 | 21.21881 | 114° | 93km/h | 5489m | 5.1m/s | 0°C | 0% | 0hPa | 0V | 00:00:00 | 00:00:00 | 00:00:00 | |
| MIELECB | 2026-09-05 23:32:37 | 49.95185 | 21.21702 | 119° | 100km/h | 5459m | 5.5m/s | 0°C | 0% | 0hPa | 0V | 00:00:00 | 00:00:00 | 00:00:00 | |
| MIELECB | 2026-09-05 23:32:32 | 49.95225 | 21.21546 | 114° | 80km/h | 5436m | 4.8m/s | 0°C | 0% | 0hPa | 0V | 00:00:00 | 00:00:00 | 00:00:00 | |
| AKAW682 | 2026-09-05 23:32:31 | 49.95234 | 21.21518 | 119° | 82km/h | 5431m | 4.1m/s | 0°C | 0% | 0hPa | 0V | 00:00:00 | 00:00:00 | 00:00:00 | |
| AKAW68 | 2026-09-05 23:32:30 | 49.95244 | 21.21487 | 119° | 93km/h | 5426m | 6.3m/s | 0°C | 0% | 0hPa | 0V | 00:00:00 | 00:00:00 | 00:00:00 | |
| SQ9EZE-12 | 2026-09-05 23:32:26 | 49.95288 | 21.21325 | 110° | 113km/h | 5403m | 4.2m/s | 0°C | 0% | 0hPa | 0V | 00:00:00 | 00:00:00 | 00:00:00 | |
| MIELECB | 2026-09-05 23:32:20 | 49.95341 | 21.21124 | 108° | 95km/h | 5365m | 2.9m/s | 0°C | 0% | 0hPa | 0V | 00:00:00 | 00:00:00 | 00:00:00 | |
| SQ9PSP-11 | 2026-09-05 23:32:16 | 49.95374 | 21.20990 | 114° | 93km/h | 5340m | 5.5m/s | 0°C | 0% | 0hPa | 0V | 00:00:00 | 00:00:00 | 00:00:00 | |
| MIELECB | 2026-09-05 23:32:14 | 49.95394 | 21.20924 | 116° | 89km/h | 5327m | 6.8m/s | 0°C | 0% | 0hPa | 0V | 00:00:00 | 00:00:00 | 00:00:00 | |
| AKAW68 | 2026-09-05 23:32:10 | 49.95427 | 21.20779 | 112° | 95km/h | 5301m | 4.9m/s | 0°C | 0% | 0hPa | 0V | 00:00:00 | 00:00:00 | 00:00:00 | |
| MIELECB | 2026-09-05 23:32:09 | 49.95436 | 21.20745 | 112° | 89km/h | 5297m | 4.3m/s | 0°C | 0% | 0hPa | 0V | 00:00:00 | 00:00:00 | 00:00:00 | |
| MIELECB | 2026-09-05 23:32:03 | 49.95487 | 21.20543 | 125° | 106km/h | 5267m | 2.5m/s | 0°C | 0% | 0hPa | 0V | 00:00:00 | 00:00:00 | 00:00:00 | |
| SQ9PSP-11 | 2026-09-05 23:32:01 | 49.95513 | 21.20477 | 117° | 95km/h | 5262m | 4.2m/s | 0°C | 0% | 0hPa | 0V | 00:00:00 | 00:00:00 | 00:00:00 | |
| MIELECB | 2026-09-05 23:31:57 | 49.95540 | 21.20342 | 116° | 84km/h | 5236m | 4.8m/s | 0°C | 0% | 0hPa | 0V | 00:00:00 | 00:00:00 | 00:00:00 | |
| MIELECB | 2026-09-05 23:31:52 | 49.95587 | 21.20177 | 103° | 80km/h | 5212m | 3.5m/s | 0°C | 0% | 0hPa | 0V | 00:00:00 | 00:00:00 | 00:00:00 | |
| AKAW68 | 2026-09-05 23:31:49 | 49.95605 | 21.20086 | 108° | 91km/h | 5199m | 6.3m/s | 0°C | 0% | 0hPa | 0V | 00:00:00 | 00:00:00 | 00:00:00 | |
| MIELECB | 2026-09-05 23:31:46 | 49.95626 | 21.19969 | 106° | 99km/h | 5184m | 4.1m/s | 0°C | 0% | 0hPa | 0V | 00:00:00 | 00:00:00 | 00:00:00 | |
| SQ9PSP-11 | 2026-09-05 23:31:45 | 49.95632 | 21.19934 | 110° | 89km/h | 5179m | 4.1m/s | 0°C | 0% | 0hPa | 0V | 00:00:00 | 00:00:00 | 00:00:00 | |
| MIELECB | 2026-09-05 23:31:40 | 49.95687 | 21.19786 | 116° | 97km/h | 5153m | 3.3m/s | 0°C | 0% | 0hPa | 0V | 00:00:00 | 00:00:00 | 00:00:00 | |
| MIELECB | 2026-09-05 23:31:34 | 49.95749 | 21.19594 | 115° | 82km/h | 5117m | 7.6m/s | 0°C | 0% | 0hPa | 0V | 00:00:00 | 00:00:00 | 00:00:00 | |
| SQ9EZE-12 | 2026-09-05 23:31:31 | 49.95769 | 21.19496 | 108° | 89km/h | 5101m | 5.0m/s | 0°C | 0% | 0hPa | 0V | 00:00:00 | 00:00:00 | 00:00:00 | |
| AKAW68 | 2026-09-05 23:31:29 | 49.95794 | 21.19404 | 117° | 86km/h | 5083m | 3.6m/s | 0°C | 0% | 0hPa | 0V | 00:00:00 | 00:00:00 | 00:00:00 | |
| AKAW682 | 2026-09-05 23:31:21 | 49.95858 | 21.19194 | 120° | 64km/h | 5054m | 1.8m/s | 0°C | 0% | 0hPa | 0V | 00:00:00 | 00:00:00 | 00:00:00 | |
| MIELECB | 2026-09-05 23:31:15 | 49.95897 | 21.19020 | 105° | 89km/h | 5024m | 3.4m/s | 0°C | 0% | 0hPa | 0V | 00:00:00 | 00:00:00 | 00:00:00 | |
| SQ9EZE-12 | 2026-09-05 23:31:14 | 49.95903 | 21.18988 | 109° | 78km/h | 5020m | 3.6m/s | 0°C | 0% | 0hPa | 0V | 00:00:00 | 00:00:00 | 00:00:00 | |
| AKAW68 | 2026-09-05 23:31:08 | 49.95951 | 21.18801 | 104° | 88km/h | 4990m | 1.2m/s | 0°C | 0% | 0hPa | 0V | 00:00:00 | 00:00:00 | 00:00:00 | |
| MIELECB | 2026-09-05 23:31:04 | 49.95986 | 21.18684 | 124° | 93km/h | 4965m | 7.1m/s | 0°C | 0% | 0hPa | 0V | 00:00:00 | 00:00:00 | 00:00:00 | |
| AKAW682 | 2026-09-05 23:31:01 | 49.96021 | 21.18595 | 116° | 75km/h | 4948m | 7.2m/s | 0°C | 0% | 0hPa | 0V | 00:00:00 | 00:00:00 | 00:00:00 | |
| SQ9EZE-12 | 2026-09-05 23:30:58 | 49.96037 | 21.18517 | 111° | 80km/h | 4932m | 4.9m/s | 0°C | 0% | 0hPa | 0V | 00:00:00 | 00:00:00 | 00:00:00 | |
| MIELECB | 2026-09-05 23:30:55 | 49.96066 | 21.18425 | 118° | 80km/h | 4918m | 5.4m/s | 0°C | 0% | 0hPa | 0V | 00:00:00 | 00:00:00 | 00:00:00 | |
| MIELECB | 2026-09-05 23:30:50 | 49.96103 | 21.18295 | 120° | 91km/h | 4898m | 4.3m/s | 0°C | 0% | 0hPa | 0V | 00:00:00 | 00:00:00 | 00:00:00 | |
| AKAW68 | 2026-09-05 23:30:48 | 49.96127 | 21.18234 | 123° | 89km/h | 4892m | 2.9m/s | 0°C | 0% | 0hPa | 0V | 00:00:00 | 00:00:00 | 00:00:00 | |
| MIELECB | 2026-09-05 23:30:44 | 49.96165 | 21.18132 | 116° | 82km/h | 4871m | 6.3m/s | 0°C | 0% | 0hPa | 0V | 00:00:00 | 00:00:00 | 00:00:00 | |
| SQ9PSP-11 | 2026-09-05 23:30:43 | 49.96175 | 21.18100 | 118° | 99km/h | 4865m | 5.4m/s | 0°C | 0% | 0hPa | 0V | 00:00:00 | 00:00:00 | 00:00:00 | |
| SQ9EZE-12 | 2026-09-05 23:30:41 | 49.96198 | 21.18032 | 117° | 91km/h | 4855m | 4.5m/s | 0°C | 0% | 0hPa | 0V | 00:00:00 | 00:00:00 | 00:00:00 | |
| AKAW682 | 2026-09-05 23:30:40 | 49.96206 | 21.18003 | 116° | 77km/h | 4850m | 5.1m/s | 0°C | 0% | 0hPa | 0V | 00:00:00 | 00:00:00 | 00:00:00 | |
| MIELECB | 2026-09-05 23:30:39 | 49.96214 | 21.17976 | 110° | 71km/h | 4844m | 4.9m/s | 0°C | 0% | 0hPa | 0V | 00:00:00 | 00:00:00 | 00:00:00 | |
| AKAW68 | 2026-09-05 23:30:27 | 49.96318 | 21.17592 | 121° | 91km/h | 4795m | 2.9m/s | 0°C | 0% | 0hPa | 0V | 00:00:00 | 00:00:00 | 00:00:00 | |
| SQ9EZE-12 | 2026-09-05 23:30:24 | 49.96341 | 21.17506 | 101° | 75km/h | 4779m | 4.9m/s | 0°C | 0% | 0hPa | 0V | 00:00:00 | 00:00:00 | 00:00:00 | |
| MIELECB | 2026-09-05 23:30:21 | 49.96355 | 21.17414 | 111° | 86km/h | 4769m | 4.9m/s | 0°C | 0% | 0hPa | 0V | 00:00:00 | 00:00:00 | 00:00:00 | |
| AKAW682 | 2026-09-05 23:30:18 | 49.96386 | 21.17325 | 121° | 84km/h | 4757m | 1.8m/s | 0°C | 0% | 0hPa | 0V | 00:00:00 | 00:00:00 | 00:00:00 | |
| MIELECB | 2026-09-05 23:30:16 | 49.96412 | 21.17230 | 108° | 97km/h | 4741m | 7.1m/s | 0°C | 0% | 0hPa | 0V | 00:00:00 | 00:00:00 | 00:00:00 | |
| SQ9PSP-11 | 2026-09-05 23:30:11 | 49.96443 | 21.17097 | 120° | 84km/h | 4723m | 4.3m/s | 0°C | 0% | 0hPa | 0V | 00:00:00 | 00:00:00 | 00:00:00 | |
| MIELECB | 2026-09-05 23:30:10 | 49.96453 | 21.17068 | 117° | 88km/h | 4718m | 4.1m/s | 0°C | 0% | 0hPa | 0V | 00:00:00 | 00:00:00 | 00:00:00 | |
| SQ9EZE-12 | 2026-09-05 23:30:09 | 49.96462 | 21.17035 | 109° | 91km/h | 4714m | 3.9m/s | 0°C | 0% | 0hPa | 0V | 00:00:00 | 00:00:00 | 00:00:00 | |
| AKAW68 | 2026-09-05 23:30:06 | 49.96476 | 21.16937 | 104° | 71km/h | 4703m | 3.0m/s | 0°C | 0% | 0hPa | 0V | 00:00:00 | 00:00:00 | 00:00:00 | |
| MIELECB | 2026-09-05 23:30:04 | 49.96484 | 21.16884 | 102° | 69km/h | 4695m | 4.0m/s | 0°C | 0% | 0hPa | 0V | 00:00:00 | 00:00:00 | 00:00:00 | |
| AKAW682 | 2026-09-05 23:29:57 | 49.96532 | 21.16671 | 110° | 75km/h | 4664m | 2.8m/s | 0°C | 0% | 0hPa | 0V | 00:00:00 | 00:00:00 | 00:00:00 | |
| SQ9PSP-11 | 2026-09-05 23:29:56 | 49.96537 | 21.16640 | 106° | 84km/h | 4661m | 3.5m/s | 0°C | 0% | 0hPa | 0V | 00:00:00 | 00:00:00 | 00:00:00 | |
| MIELECB | 2026-09-05 23:29:55 | 49.96543 | 21.16606 | 105° | 93km/h | 4657m | 4.2m/s | 0°C | 0% | 0hPa | 0V | 00:00:00 | 00:00:00 | 00:00:00 | |
| SQ9EZE-12 | 2026-09-05 23:29:54 | 49.96548 | 21.16570 | 104° | 97km/h | 4654m | 3.1m/s | 0°C | 0% | 0hPa | 0V | 00:00:00 | 00:00:00 | 00:00:00 | |
| MIELECB | 2026-09-05 23:29:49 | 49.96572 | 21.16406 | 109° | 71km/h | 4633m | 4.5m/s | 0°C | 0% | 0hPa | 0V | 00:00:00 | 00:00:00 | 00:00:00 | |
| AKAW68 | 2026-09-05 23:29:46 | 49.96593 | 21.16323 | 114° | 75km/h | 4619m | 6.8m/s | 0°C | 0% | 0hPa | 0V | 00:00:00 | 00:00:00 | 00:00:00 | |
| MIELECB | 2026-09-05 23:29:44 | 49.96609 | 21.16271 | 118° | 75km/h | 4607m | 4.1m/s | 0°C | 0% | 0hPa | 0V | 00:00:00 | 00:00:00 | 00:00:00 | |
| SQ9PSP-11 | 2026-09-05 23:29:40 | 49.96641 | 21.16135 | 104° | 100km/h | 4590m | 2.7m/s | 0°C | 0% | 0hPa | 0V | 00:00:00 | 00:00:00 | 00:00:00 | |
| MIELECB | 2026-09-05 23:29:38 | 49.96652 | 21.16063 | 107° | 88km/h | 4582m | 4.0m/s | 0°C | 0% | 0hPa | 0V | 00:00:00 | 00:00:00 | 00:00:00 | |
| AKAW682 | 2026-09-05 23:29:36 | 49.96666 | 21.16005 | 114° | 73km/h | 4574m | 3.9m/s | 0°C | 0% | 0hPa | 0V | 00:00:00 | 00:00:00 | 00:00:00 | |
| SQ9PSP-11 | 2026-09-05 23:29:25 | 49.96745 | 21.15680 | 120° | 93km/h | 4525m | 2.7m/s | 0°C | 0% | 0hPa | 0V | 00:00:00 | 00:00:00 | 00:00:00 | |
| MIELECB | 2026-09-05 23:29:24 | 49.96758 | 21.15646 | 121° | 104km/h | 4522m | 4.1m/s | 0°C | 0% | 0hPa | 0V | 00:00:00 | 00:00:00 | 00:00:00 | |
| SQ9EZE-12 | 2026-09-05 23:29:23 | 49.96770 | 21.15612 | 121° | 97km/h | 4516m | 4.9m/s | 0°C | 0% | 0hPa | 0V | 00:00:00 | 00:00:00 | 00:00:00 | |
| MIELECB | 2026-09-05 23:29:17 | 49.96817 | 21.15412 | 113° | 84km/h | 4486m | 5.2m/s | 0°C | 0% | 0hPa | 0V | 00:00:00 | 00:00:00 | 00:00:00 | |
| AKAW682 | 2026-09-05 23:29:16 | 49.96826 | 21.15386 | 121° | 69km/h | 4481m | 2.7m/s | 0°C | 0% | 0hPa | 0V | 00:00:00 | 00:00:00 | 00:00:00 | |
| MIELECB | 2026-09-05 23:29:12 | 49.96852 | 21.15261 | 103° | 106km/h | 4462m | 5.9m/s | 0°C | 0% | 0hPa | 0V | 00:00:00 | 00:00:00 | 00:00:00 | |
| SQ9PSP-11 | 2026-09-05 23:29:09 | 49.96883 | 21.15156 | 123° | 93km/h | 4443m | 6.8m/s | 0°C | 0% | 0hPa | 0V | 00:00:00 | 00:00:00 | 00:00:00 | |
| SQ9EZE-12 | 2026-09-05 23:29:08 | 49.96895 | 21.15125 | 119° | 88km/h | 4436m | 6.8m/s | 0°C | 0% | 0hPa | 0V | 00:00:00 | 00:00:00 | 00:00:00 | |
| MIELECB | 2026-09-05 23:29:07 | 49.96905 | 21.15095 | 118° | 89km/h | 4430m | 5.1m/s | 0°C | 0% | 0hPa | 0V | 00:00:00 | 00:00:00 | 00:00:00 | |
| AKAW68 | 2026-09-05 23:29:05 | 49.96918 | 21.15033 | 99° | 86km/h | 4418m | 4.6m/s | 0°C | 0% | 0hPa | 0V | 00:00:00 | 00:00:00 | 00:00:00 | |
| MIELECB | 2026-09-05 23:29:01 | 49.96948 | 21.14893 | 120° | 100km/h | 4399m | 4.1m/s | 0°C | 0% | 0hPa | 0V | 00:00:00 | 00:00:00 | 00:00:00 | |
| MIELECB | 2026-09-05 23:28:56 | 49.96991 | 21.14742 | 111° | 69km/h | 4382m | 2.5m/s | 0°C | 0% | 0hPa | 0V | 00:00:00 | 00:00:00 | 00:00:00 | |
| SQ9PSP-11 | 2026-09-05 23:28:54 | 49.97003 | 21.14690 | 112° | 71km/h | 4376m | 2.9m/s | 0°C | 0% | 0hPa | 0V | 00:00:00 | 00:00:00 | 00:00:00 | |
| SQ9EZE-12 | 2026-09-05 23:28:52 | 49.97019 | 21.14628 | 113° | 91km/h | 4366m | 5.1m/s | 0°C | 0% | 0hPa | 0V | 00:00:00 | 00:00:00 | 00:00:00 | |
| MIELECB | 2026-09-05 23:28:51 | 49.97029 | 21.14595 | 118° | 97km/h | 4361m | 3.5m/s | 0°C | 0% | 0hPa | 0V | 00:00:00 | 00:00:00 | 00:00:00 | |
| MIELECB | 2026-09-05 23:28:45 | 49.97081 | 21.14418 | 98° | 77km/h | 4337m | 5.0m/s | 0°C | 0% | 0hPa | 0V | 00:00:00 | 00:00:00 | 00:00:00 | |
| AKAW68 | 2026-09-05 23:28:44 | 49.97084 | 21.14388 | 99° | 78km/h | 4333m | 2.9m/s | 0°C | 0% | 0hPa | 0V | 00:00:00 | 00:00:00 | 00:00:00 | |
| MIELECB | 2026-09-05 23:28:40 | 49.97111 | 21.14264 | 121° | 93km/h | 4310m | 4.5m/s | 0°C | 0% | 0hPa | 0V | 00:00:00 | 00:00:00 | 00:00:00 | |
| SQ9PSP-11 | 2026-09-05 23:28:39 | 49.97123 | 21.14232 | 118° | 95km/h | 4307m | 2.9m/s | 0°C | 0% | 0hPa | 0V | 00:00:00 | 00:00:00 | 00:00:00 | |
| SQ9EZE-12 | 2026-09-05 23:28:36 | 49.97143 | 21.14136 | 102° | 82km/h | 4296m | 3.0m/s | 0°C | 0% | 0hPa | 0V | 00:00:00 | 00:00:00 | 00:00:00 | |
| AKAW682 | 2026-09-05 23:28:34 | 49.97158 | 21.14029 | 107° | 102km/h | 4288m | 1.8m/s | 0°C | 0% | 0hPa | 0V | 00:00:00 | 00:00:00 | 00:00:00 | |
| MIELECB | 2026-09-05 23:28:29 | 49.97194 | 21.13878 | 112° | 104km/h | 4271m | 5.5m/s | 0°C | 0% | 0hPa | 0V | 00:00:00 | 00:00:00 | 00:00:00 | |
| SQ9PSP-11 | 2026-09-05 23:28:23 | 49.97250 | 21.13656 | 106° | 97km/h | 4243m | 3.4m/s | 0°C | 0% | 0hPa | 0V | 00:00:00 | 00:00:00 | 00:00:00 | |
| SQ9EZE-12 | 2026-09-05 23:28:20 | 49.97262 | 21.13551 | 104° | 91km/h | 4228m | 4.8m/s | 0°C | 0% | 0hPa | 0V | 00:00:00 | 00:00:00 | 00:00:00 | |
| AKAW682 | 2026-09-05 23:28:12 | 49.97336 | 21.13283 | 106° | 93km/h | 4189m | 2.5m/s | 0°C | 0% | 0hPa | 0V | 00:00:00 | 00:00:00 | 00:00:00 | |
| MIELECB | 2026-09-05 23:28:08 | 49.97365 | 21.13139 | 108° | 100km/h | 4167m | 5.9m/s | 0°C | 0% | 0hPa | 0V | 00:00:00 | 00:00:00 | 00:00:00 | |
| SQ9PSP-11 | 2026-09-05 23:28:07 | 49.97372 | 21.13101 | 106° | 100km/h | 4161m | 5.2m/s | 0°C | 0% | 0hPa | 0V | 00:00:00 | 00:00:00 | 00:00:00 | |
| SQ9EZE-12 | 2026-09-05 23:28:04 | 49.97390 | 21.13003 | 116° | 80km/h | 4146m | 4.6m/s | 0°C | 0% | 0hPa | 0V | 00:00:00 | 00:00:00 | 00:00:00 | |
| AKAW68 | 2026-09-05 23:28:03 | 49.97399 | 21.12974 | 120° | 80km/h | 4142m | 3.4m/s | 0°C | 0% | 0hPa | 0V | 00:00:00 | 00:00:00 | 00:00:00 | |
| MIELECB | 2026-09-05 23:28:01 | 49.97417 | 21.12915 | 108° | 86km/h | 4135m | 2.6m/s | 0°C | 0% | 0hPa | 0V | 00:00:00 | 00:00:00 | 00:00:00 | |
| MIELECB | 2026-09-05 23:27:54 | 49.97473 | 21.12710 | 120° | 82km/h | 4111m | 2.4m/s | 0°C | 0% | 0hPa | 0V | 00:00:00 | 00:00:00 | 00:00:00 | |
| SQ9PSP-11 | 2026-09-05 23:27:51 | 49.97503 | 21.12611 | 119° | 97km/h | 4098m | 5.0m/s | 0°C | 0% | 0hPa | 0V | 00:00:00 | 00:00:00 | 00:00:00 | |
| SQ9EZE-12 | 2026-09-05 23:27:48 | 49.97532 | 21.12529 | 115° | 68km/h | 4087m | 4.3m/s | 0°C | 0% | 0hPa | 0V | 00:00:00 | 00:00:00 | 00:00:00 | |
| AKAW68 | 2026-09-05 23:27:43 | 49.97556 | 21.12374 | 103° | 99km/h | 4060m | 4.8m/s | 0°C | 0% | 0hPa | 0V | 00:00:00 | 00:00:00 | 00:00:00 | |
| MIELECB | 2026-09-05 23:27:38 | 49.97602 | 21.12218 | 121° | 68km/h | 4041m | 3.8m/s | 0°C | 0% | 0hPa | 0V | 00:00:00 | 00:00:00 | 00:00:00 | |
| SQ9PSP-11 | 2026-09-05 23:27:35 | 49.97622 | 21.12147 | 111° | 80km/h | 4029m | 4.8m/s | 0°C | 0% | 0hPa | 0V | 00:00:00 | 00:00:00 | 00:00:00 | |
| MIELECB | 2026-09-05 23:27:33 | 49.97635 | 21.12077 | 104° | 100km/h | 4019m | 3.2m/s | 0°C | 0% | 0hPa | 0V | 00:00:00 | 00:00:00 | 00:00:00 | |
| AKAW682 | 2026-09-05 23:27:30 | 49.97645 | 21.11982 | 102° | 64km/h | 4010m | 3.0m/s | 0°C | 0% | 0hPa | 0V | 00:00:00 | 00:00:00 | 00:00:00 | |
| MIELECB | 2026-09-05 23:27:27 | 49.97666 | 21.11904 | 116° | 89km/h | 3992m | 7.1m/s | 0°C | 0% | 0hPa | 0V | 00:00:00 | 00:00:00 | 00:00:00 | |
| AKAW68 | 2026-09-05 23:27:22 | 49.97709 | 21.11762 | 120° | 57km/h | 3968m | 3.2m/s | 0°C | 0% | 0hPa | 0V | 00:00:00 | 00:00:00 | 00:00:00 | |
| MIELECB | 2026-09-05 23:27:21 | 49.97716 | 21.11742 | 113° | 62km/h | 3963m | 4.3m/s | 0°C | 0% | 0hPa | 0V | 00:00:00 | 00:00:00 | 00:00:00 | |
| SQ9PSP-11 | 2026-09-05 23:27:20 | 49.97722 | 21.11716 | 109° | 78km/h | 3957m | 6.9m/s | 0°C | 0% | 0hPa | 0V | 00:00:00 | 00:00:00 | 00:00:00 | |
| SQ9EZE-12 | 2026-09-05 23:27:16 | 49.97754 | 21.11584 | 121° | 82km/h | 3934m | 6.1m/s | 0°C | 0% | 0hPa | 0V | 00:00:00 | 00:00:00 | 00:00:00 | |
| MIELECB | 2026-09-05 23:27:15 | 49.97765 | 21.11556 | 120° | 82km/h | 3928m | 6.5m/s | 0°C | 0% | 0hPa | 0V | 00:00:00 | 00:00:00 | 00:00:00 | |
| MIELECB | 2026-09-05 23:27:10 | 49.97811 | 21.11423 | 114° | 62km/h | 3903m | 2.6m/s | 0°C | 0% | 0hPa | 0V | 00:00:00 | 00:00:00 | 00:00:00 | |
| AKAW682 | 2026-09-05 23:27:09 | 49.97818 | 21.11400 | 119° | 60km/h | 3900m | 1.7m/s | 0°C | 0% | 0hPa | 0V | 00:00:00 | 00:00:00 | 00:00:00 | |
| SQ9PSP-11 | 2026-09-05 23:27:05 | 49.97855 | 21.11282 | 107° | 97km/h | 3884m | 4.2m/s | 0°C | 0% | 0hPa | 0V | 00:00:00 | 00:00:00 | 00:00:00 | |
| SQ9EZE-12 | 2026-09-05 23:27:00 | 49.97898 | 21.11134 | 122° | 89km/h | 3853m | 4.3m/s | 0°C | 0% | 0hPa | 0V | 00:00:00 | 00:00:00 | 00:00:00 | |
| MIELECB | 2026-09-05 23:26:51 | 49.97951 | 21.10866 | 116° | 69km/h | 3812m | 3.4m/s | 0°C | 0% | 0hPa | 0V | 00:00:00 | 00:00:00 | 00:00:00 | |
| SQ9PSP-11 | 2026-09-05 23:26:49 | 49.97966 | 21.10817 | 115° | 66km/h | 3801m | 4.0m/s | 0°C | 0% | 0hPa | 0V | 00:00:00 | 00:00:00 | 00:00:00 | |
| AKAW682 | 2026-09-05 23:26:45 | 49.97994 | 21.10723 | 124° | 73km/h | 3785m | 3.0m/s | 0°C | 0% | 0hPa | 0V | 00:00:00 | 00:00:00 | 00:00:00 | |
| SQ9EZE-12 | 2026-09-05 23:26:44 | 49.98006 | 21.10698 | 125° | 86km/h | 3782m | 2.7m/s | 0°C | 0% | 0hPa | 0V | 00:00:00 | 00:00:00 | 00:00:00 | |
| AKAW68 | 2026-09-05 23:26:42 | 49.98029 | 21.10636 | 115° | 97km/h | 3773m | 4.3m/s | 0°C | 0% | 0hPa | 0V | 00:00:00 | 00:00:00 | 00:00:00 | |
| MIELECB | 2026-09-05 23:26:35 | 49.98076 | 21.10432 | 127° | 64km/h | 3731m | 4.2m/s | 0°C | 0% | 0hPa | 0V | 00:00:00 | 00:00:00 | 00:00:00 | |
| SQ9PSP-11 | 2026-09-05 23:26:33 | 49.98095 | 21.10382 | 116° | 82km/h | 3718m | 6.9m/s | 0°C | 0% | 0hPa | 0V | 00:00:00 | 00:00:00 | 00:00:00 | |
| SQ9EZE-12 | 2026-09-05 23:26:29 | 49.98130 | 21.10250 | 111° | 97km/h | 3688m | 6.3m/s | 0°C | 0% | 0hPa | 0V | 00:00:00 | 00:00:00 | 00:00:00 | |
| AKAW68 | 2026-09-05 23:26:21 | 49.98212 | 21.10007 | 130° | 71km/h | 3645m | 5.5m/s | 0°C | 0% | 0hPa | 0V | 00:00:00 | 00:00:00 | 00:00:00 | |
| SQ9PSP-11 | 2026-09-05 23:26:18 | 49.98259 | 21.09893 | 113° | 100km/h | 3619m | 5.8m/s | 0°C | 0% | 0hPa | 0V | 00:00:00 | 00:00:00 | 00:00:00 | |
| AKAW682 | 2026-09-05 23:26:16 | 49.98267 | 21.09857 | 108° | 93km/h | 3613m | 4.9m/s | 0°C | 0% | 0hPa | 0V | 00:00:00 | 00:00:00 | 00:00:00 | |
| SQ9EZE-12 | 2026-09-05 23:26:13 | 49.98285 | 21.09767 | 107° | 69km/h | 3595m | 5.2m/s | 0°C | 0% | 0hPa | 0V | 00:00:00 | 00:00:00 | 00:00:00 | |
| SQ9PSP-11 | 2026-09-05 23:26:02 | 49.98377 | 21.09465 | 107° | 60km/h | 3531m | 4.0m/s | 0°C | 0% | 0hPa | 0V | 00:00:00 | 00:00:00 | 00:00:00 | |
| AKAW68 | 2026-09-05 23:26:00 | 49.98385 | 21.09414 | 103° | 78km/h | 3523m | 4.2m/s | 0°C | 0% | 0hPa | 0V | 00:00:00 | 00:00:00 | 00:00:00 | |
| SQ9EZE-12 | 2026-09-05 23:25:57 | 49.98408 | 21.09309 | 119° | 99km/h | 3510m | 3.3m/s | 0°C | 0% | 0hPa | 0V | 00:00:00 | 00:00:00 | 00:00:00 | |
| AKAW682 | 2026-09-05 23:25:50 | 49.98457 | 21.09119 | 105° | 88km/h | 3475m | 5.3m/s | 0°C | 0% | 0hPa | 0V | 00:00:00 | 00:00:00 | 00:00:00 | |
| SQ9PSP-11 | 2026-09-05 23:25:47 | 49.98481 | 21.09012 | 117° | 99km/h | 3458m | 4.1m/s | 0°C | 0% | 0hPa | 0V | 00:00:00 | 00:00:00 | 00:00:00 | |
| SQ9PSP-11 | 2026-09-05 23:25:31 | 49.98621 | 21.08554 | 111° | 89km/h | 3376m | 5.6m/s | 0°C | 0% | 0hPa | 0V | 00:00:00 | 00:00:00 | 00:00:00 | |
| SQ9EZE-12 | 2026-09-05 23:25:24 | 49.98668 | 21.08369 | 128° | 88km/h | 3347m | 4.9m/s | 0°C | 0% | 0hPa | 0V | 00:00:00 | 00:00:00 | 00:00:00 | |
| SQ9PSP-11 | 2026-09-05 23:25:15 | 49.98745 | 21.08085 | 122° | 62km/h | 3301m | 6.7m/s | 0°C | 0% | 0hPa | 0V | 00:00:00 | 00:00:00 | 00:00:00 | |
| SQ9EZE-12 | 2026-09-05 23:25:08 | 49.98797 | 21.07894 | 110° | 64km/h | 3263m | 6.6m/s | 0°C | 0% | 0hPa | 0V | 00:00:00 | 00:00:00 | 00:00:00 | |
| MIELECB | 2026-09-05 23:25:01 | 49.98858 | 21.07684 | 102° | 77km/h | 3219m | 4.6m/s | 0°C | 0% | 0hPa | 0V | 00:00:00 | 00:00:00 | 00:00:00 | |
| SQ9PSP-11 | 2026-09-05 23:24:59 | 49.98866 | 21.07634 | 110° | 58km/h | 3207m | 2.4m/s | 0°C | 0% | 0hPa | 0V | 00:00:00 | 00:00:00 | 00:00:00 | |
| AKAW68 | 2026-09-05 23:24:57 | 49.98879 | 21.07592 | 121° | 71km/h | 3198m | 5.2m/s | 0°C | 0% | 0hPa | 0V | 00:00:00 | 00:00:00 | 00:00:00 | |
| SQ9EZE-12 | 2026-09-05 23:24:51 | 49.98932 | 21.07402 | 103° | 77km/h | 3163m | 6.0m/s | 0°C | 0% | 0hPa | 0V | 00:00:00 | 00:00:00 | 00:00:00 | |
| AKAW682 | 2026-09-05 23:24:48 | 49.98945 | 21.07316 | 112° | 82km/h | 3148m | 5.7m/s | 0°C | 0% | 0hPa | 0V | 00:00:00 | 00:00:00 | 00:00:00 | |
| SQ9PSP-11 | 2026-09-05 23:24:44 | 49.98988 | 21.07206 | 131° | 77km/h | 3122m | 3.0m/s | 0°C | 0% | 0hPa | 0V | 00:00:00 | 00:00:00 | 00:00:00 | |
| AKAW68 | 2026-09-05 23:24:36 | 49.99059 | 21.06974 | 127° | 78km/h | 3081m | 7.2m/s | 0°C | 0% | 0hPa | 0V | 00:00:00 | 00:00:00 | 00:00:00 | |
| SQ9PSP-11 | 2026-09-05 23:24:28 | 49.99140 | 21.06743 | 113° | 89km/h | 3040m | 4.3m/s | 0°C | 0% | 0hPa | 0V | 00:00:00 | 00:00:00 | 00:00:00 | |
| AKAW682 | 2026-09-05 23:24:26 | 49.99162 | 21.06680 | 125° | 91km/h | 3031m | 3.8m/s | 0°C | 0% | 0hPa | 0V | 00:00:00 | 00:00:00 | 00:00:00 | |
| SQ9EZE-12 | 2026-09-05 23:24:20 | 49.99236 | 21.06546 | 126° | 64km/h | 3002m | 6.3m/s | 0°C | 0% | 0hPa | 0V | 00:00:00 | 00:00:00 | 00:00:00 | |
| AKAW68 | 2026-09-05 23:24:16 | 49.99270 | 21.06437 | 115° | 86km/h | 2980m | 2.7m/s | 0°C | 0% | 0hPa | 0V | 00:00:00 | 00:00:00 | 00:00:00 | |
| SQ9PSP-11 | 2026-09-05 23:24:13 | 49.99290 | 21.06353 | 112° | 69km/h | 2968m | 2.2m/s | 0°C | 0% | 0hPa | 0V | 00:00:00 | 00:00:00 | 00:00:00 | |
| SQ9EZE-12 | 2026-09-05 23:24:05 | 49.99364 | 21.06129 | 115° | 77km/h | 2928m | 5.1m/s | 0°C | 0% | 0hPa | 0V | 00:00:00 | 00:00:00 | 00:00:00 | |
| AKAW682 | 2026-09-05 23:24:04 | 49.99371 | 21.06103 | 109° | 71km/h | 2923m | 4.6m/s | 0°C | 0% | 0hPa | 0V | 00:00:00 | 00:00:00 | 00:00:00 | |
| SQ9PSP-11 | 2026-09-05 23:23:57 | 49.99431 | 21.05915 | 125° | 89km/h | 2889m | 1.5m/s | 0°C | 0% | 0hPa | 0V | 00:00:00 | 00:00:00 | 00:00:00 | |
| AKAW68 | 2026-09-05 23:23:55 | 49.99456 | 21.05861 | 133° | 84km/h | 2882m | 3.3m/s | 0°C | 0% | 0hPa | 0V | 00:00:00 | 00:00:00 | 00:00:00 | |
| AKAW682 | 2026-09-05 23:23:44 | 49.99567 | 21.05573 | 129° | 88km/h | 2830m | 4.4m/s | 0°C | 0% | 0hPa | 0V | 00:00:00 | 00:00:00 | 00:00:00 | |
| SQ9EZE-12 | 2026-09-05 23:23:42 | 49.99596 | 21.05524 | 137° | 77km/h | 2819m | 2.4m/s | 0°C | 0% | 0hPa | 0V | 00:00:00 | 00:00:00 | 00:00:00 | |
| SQ9PSP-11 | 2026-09-05 23:23:41 | 49.99610 | 21.05503 | 136° | 73km/h | 2815m | 2.8m/s | 0°C | 0% | 0hPa | 0V | 00:00:00 | 00:00:00 | 00:00:00 | |
| AKAW68 | 2026-09-05 23:23:33 | 49.99690 | 21.05324 | 124° | 95km/h | 2778m | 4.2m/s | 0°C | 0% | 0hPa | 0V | 00:00:00 | 00:00:00 | 00:00:00 | |
| SQ9EZE-12 | 2026-09-05 23:23:26 | 49.99747 | 21.05129 | 125° | 58km/h | 2744m | 3.7m/s | 0°C | 0% | 0hPa | 0V | 00:00:00 | 00:00:00 | 00:00:00 | |
| MIELECB | 2026-09-05 23:23:24 | 49.99765 | 21.05090 | 130° | 66km/h | 2735m | 3.4m/s | 0°C | 0% | 0hPa | 0V | 00:00:00 | 00:00:00 | 00:00:00 | |
| AKAW682 | 2026-09-05 23:23:22 | 49.99788 | 21.05043 | 127° | 88km/h | 2726m | 5.7m/s | 0°C | 0% | 0hPa | 0V | 00:00:00 | 00:00:00 | 00:00:00 | |
| AKAW68 | 2026-09-05 23:23:11 | 49.99897 | 21.04719 | 115° | 80km/h | 2671m | 4.6m/s | 0°C | 0% | 0hPa | 0V | 00:00:00 | 00:00:00 | 00:00:00 | |
| SQ9PSP-11 | 2026-09-05 23:23:09 | 49.99911 | 21.04664 | 113° | 71km/h | 2660m | 4.5m/s | 0°C | 0% | 0hPa | 0V | 00:00:00 | 00:00:00 | 00:00:00 | |
| SQ9EZE-12 | 2026-09-05 23:23:03 | 49.99960 | 21.04515 | 132° | 71km/h | 2630m | 5.3m/s | 0°C | 0% | 0hPa | 0V | 00:00:00 | 00:00:00 | 00:00:00 | |
| SQ9PSP-11 | 2026-09-05 23:22:53 | 50.00032 | 21.04284 | 132° | 60km/h | 2585m | 1.1m/s | 0°C | 0% | 0hPa | 0V | 00:00:00 | 00:00:00 | 00:00:00 | |
| AKAW68 | 2026-09-05 23:22:49 | 50.00071 | 21.04196 | 112° | 78km/h | 2569m | 4.6m/s | 0°C | 0% | 0hPa | 0V | 00:00:00 | 00:00:00 | 00:00:00 | |
| SQ9EZE-12 | 2026-09-05 23:22:48 | 50.00077 | 21.04167 | 111° | 80km/h | 2565m | 3.9m/s | 0°C | 0% | 0hPa | 0V | 00:00:00 | 00:00:00 | 00:00:00 | |
| SQ9PSP-11 | 2026-09-05 23:22:38 | 50.00141 | 21.03930 | 136° | 69km/h | 2523m | 3.5m/s | 0°C | 0% | 0hPa | 0V | 00:00:00 | 00:00:00 | 00:00:00 | |
| SQ9PSP-11 | 2026-09-05 23:22:20 | 50.00277 | 21.03445 | 111° | 73km/h | 2439m | 5.3m/s | 0°C | 0% | 0hPa | 0V | 00:00:00 | 00:00:00 | 00:00:00 | |
| SQ9PSP-11 | 2026-09-05 23:22:04 | 50.00375 | 21.03056 | 114° | 78km/h | 2364m | 2.8m/s | 0°C | 0% | 0hPa | 0V | 00:00:00 | 00:00:00 | 00:00:00 | |
| MIELECB | 2026-09-05 23:21:59 | 83.55863 | 21.02915 | 114° | 88km/h | 2338m | 4.8m/s | 0°C | 0% | 0hPa | 0V | 00:00:00 | 00:00:00 | 00:00:00 | |
| AKAW68 | 2026-09-05 23:21:54 | 50.00454 | 21.02801 | 120° | 49km/h | 2313m | 3.0m/s | 0°C | 0% | 0hPa | 0V | 00:00:00 | 00:00:00 | 00:00:00 | |
| SQ9PSP-11 | 2026-09-05 23:21:49 | 50.00484 | 21.02668 | 110° | 84km/h | 2290m | 0.7m/s | 0°C | 0% | 0hPa | 0V | 00:00:00 | 00:00:00 | 00:00:00 | |
| SQ9PSP-11 | 2026-09-05 23:21:21 | 50.00720 | 21.01966 | 127° | 77km/h | 2137m | 4.5m/s | 0°C | 0% | 0hPa | 0V | 00:00:00 | 00:00:00 | 00:00:00 | |
| AKAW68 | 2026-09-05 23:21:12 | 50.00784 | 21.01730 | 133° | 69km/h | 2097m | 4.5m/s | 0°C | 0% | 0hPa | 0V | 00:00:00 | 00:00:00 | 00:00:00 | |
| SQ9PSP-11 | 2026-09-05 23:21:06 | 50.00816 | 21.01580 | 114° | 47km/h | 2064m | 3.5m/s | 0°C | 0% | 0hPa | 0V | 00:00:00 | 00:00:00 | 00:00:00 | |
| SQ9PSP-11 | 2026-09-05 23:20:50 | 50.00921 | 21.01197 | 103° | 68km/h | 1983m | 6.2m/s | 0°C | 0% | 0hPa | 0V | 00:00:00 | 00:00:00 | 00:00:00 | |
| AKAW68 | 2026-09-05 23:20:50 | 50.00921 | 21.01197 | 103° | 68km/h | 1983m | 6.2m/s | 0°C | 0% | 0hPa | 0V | 00:00:00 | 00:00:00 | 00:00:00 | |
| SQ9PSP-11 | 2026-09-05 23:20:35 | 50.01004 | 21.00803 | 105° | 80km/h | 1908m | 3.0m/s | 0°C | 0% | 0hPa | 0V | 00:00:00 | 00:00:00 | 00:00:00 | |
| AKAW68 | 2026-09-05 23:20:30 | 50.01045 | 21.00676 | 118° | 58km/h | 1883m | 5.6m/s | 0°C | 0% | 0hPa | 0V | 00:00:00 | 00:00:00 | 00:00:00 | |
| SQ9PSP-11 | 2026-09-05 23:20:15 | 50.01130 | 21.00282 | 97° | 78km/h | 1798m | 3.8m/s | 0°C | 0% | 0hPa | 0V | 00:00:00 | 00:00:00 | 00:00:00 | |
| SQ9PSP-11 | 2026-09-05 23:20:00 | 50.01209 | 20.99896 | 109° | 69km/h | 1721m | 6.1m/s | 0°C | 0% | 0hPa | 0V | 00:00:00 | 00:00:00 | 00:00:00 | |
| SQ9PSP-11 | 2026-09-05 23:19:44 | 50.01324 | 20.99526 | 125° | 75km/h | 1645m | 3.2m/s | 0°C | 0% | 0hPa | 0V | 00:00:00 | 00:00:00 | 00:00:00 | |
| AKAW68 | 2026-09-05 23:19:35 | 50.01392 | 20.99280 | 100° | 57km/h | 1596m | 6.6m/s | 0°C | 0% | 0hPa | 0V | 00:00:00 | 00:00:00 | 00:00:00 | |
| AKAW68 | 2026-09-05 23:18:50 | 50.01663 | 20.98242 | 133° | 62km/h | 1361m | 6.5m/s | 0°C | 0% | 0hPa | 0V | 00:00:00 | 00:00:00 | 00:00:00 | |
| AKAW68 | 2026-09-05 23:18:29 | 50.01813 | 20.97768 | 105° | 71km/h | 1244m | 2.4m/s | 0°C | 0% | 0hPa | 0V | 00:00:00 | 00:00:00 | 00:00:00 | |
| SQ9PSP-11 | 2026-09-05 23:18:27 | 50.01824 | 20.97714 | 109° | 73km/h | 1234m | 5.2m/s | 0°C | 0% | 0hPa | 0V | 00:00:00 | 00:00:00 | 00:00:00 | |
| AKAW68 | 2026-09-05 23:18:08 | 50.01933 | 20.97275 | 108° | 75km/h | 1138m | 6.5m/s | 0°C | 0% | 0hPa | 0V | 00:00:00 | 00:00:00 | 00:00:00 | |
| AKAW68 | 2026-09-05 23:17:48 | 50.02082 | 20.96772 | 113° | 78km/h | 1032m | 2.5m/s | 0°C | 0% | 0hPa | 0V | 00:00:00 | 00:00:00 | 00:00:00 | |
| AKAW68 | 2026-09-05 23:17:26 | 50.02239 | 20.96232 | 118° | 88km/h | 916m | 3.9m/s | 0°C | 0% | 0hPa | 0V | 00:00:00 | 00:00:00 | 00:00:00 | |
| AKAW68 | 2026-09-05 23:17:16 | 50.02373 | 20.95720 | 110° | 88km/h | 811m | 5.6m/s | 0°C | 0% | 0hPa | 0V | 00:00:00 | 00:00:00 | 00:00:00 |